Wetterdaten: Sonntag, 13.08.2017
Datum Zeit Temp. A. Pool Temp. Feuchte A. Luftdruck Regen Wind Richtung Richtung Sonnenschein ET UV Solar Taupunkt Windchill Windben Empfang
13.08.2017 00:00 15,7 C 20,0 C 80 % 1019,0 hPa 0,0 l/m 12,6 km/h (3 Bft) SW 234 0 min 0,000 mm 0,0 UV-I 0 W/m 12,3 C 12,9 C 19,3 km/h (3 Bft) 100,00 %
13.08.2017 00:02 15,7 C 20,0 C 80 % 1019,0 hPa 0,0 l/m 15,6 km/h (3 Bft) SW 234 0 min 0,000 mm 0,0 UV-I 0 W/m 12,3 C 11,9 C 22,5 km/h (4 Bft) 97,56 %
13.08.2017 00:04 15,7 C 20,0 C 80 % 1018,9 hPa 0,0 l/m 15,1 km/h (3 Bft) W-SW 247 0 min 0,000 mm 0,0 UV-I 0 W/m 12,3 C 12,0 C 22,5 km/h (4 Bft) 100,00 %
13.08.2017 00:06 15,7 C 20,0 C 80 % 1019,0 hPa 0,0 l/m 12,4 km/h (3 Bft) SW 224 0 min 0,000 mm 0,0 UV-I 0 W/m 12,3 C 12,9 C 20,9 km/h (4 Bft) 100,00 %
13.08.2017 00:08 15,7 C 20,0 C 80 % 1019,0 hPa 0,0 l/m 13,2 km/h (3 Bft) SW 217 0 min 0,000 mm 0,0 UV-I 0 W/m 12,3 C 12,6 C 20,9 km/h (4 Bft) 100,00 %
13.08.2017 00:10 15,7 C 20,0 C 80 % 1018,9 hPa 0,0 l/m 15,0 km/h (3 Bft) SW 231 0 min 0,000 mm 0,0 UV-I 0 W/m 12,3 C 12,0 C 20,9 km/h (4 Bft) 100,00 %
13.08.2017 00:12 15,7 C 20,0 C 80 % 1018,9 hPa 0,0 l/m 14,7 km/h (3 Bft) W-SW 238 0 min 0,000 mm 0,0 UV-I 0 W/m 12,3 C 12,1 C 20,9 km/h (4 Bft) 100,00 %
13.08.2017 00:14 15,7 C 20,0 C 80 % 1018,9 hPa 0,0 l/m 15,5 km/h (3 Bft) W 263 0 min 0,000 mm 0,0 UV-I 0 W/m 12,3 C 11,9 C 20,9 km/h (4 Bft) 97,56 %
13.08.2017 00:16 15,7 C 20,0 C 79 % 1018,9 hPa 0,0 l/m 14,2 km/h (3 Bft) W-SW 240 0 min 0,000 mm 0,0 UV-I 0 W/m 12,1 C 12,3 C 19,3 km/h (3 Bft) 100,00 %
13.08.2017 00:18 15,7 C 20,0 C 79 % 1018,9 hPa 0,0 l/m 12,8 km/h (3 Bft) SW 232 0 min 0,000 mm 0,0 UV-I 0 W/m 12,1 C 12,8 C 19,3 km/h (3 Bft) 100,00 %
13.08.2017 00:20 15,7 C 20,0 C 80 % 1018,9 hPa 0,0 l/m 13,5 km/h (3 Bft) SW 217 0 min 0,000 mm 0,0 UV-I 0 W/m 12,3 C 12,5 C 19,3 km/h (3 Bft) 100,00 %
13.08.2017 00:22 15,7 C 20,0 C 79 % 1018,9 hPa 0,0 l/m 16,5 km/h (3 Bft) W-SW 241 0 min 0,000 mm 0,0 UV-I 0 W/m 12,1 C 11,6 C 25,7 km/h (4 Bft) 100,00 %
13.08.2017 00:24 15,7 C 20,0 C 79 % 1019,0 hPa 0,0 l/m 13,1 km/h (3 Bft) W-SW 244 0 min 0,000 mm 0,0 UV-I 0 W/m 12,1 C 12,7 C 22,5 km/h (4 Bft) 100,00 %
13.08.2017 00:26 15,7 C 20,0 C 79 % 1019,0 hPa 0,0 l/m 14,3 km/h (3 Bft) SW 221 0 min 0,000 mm 0,0 UV-I 0 W/m 12,1 C 12,3 C 20,9 km/h (4 Bft) 100,00 %
13.08.2017 00:28 15,7 C 20,0 C 79 % 1019,0 hPa 0,0 l/m 13,3 km/h (3 Bft) SW 215 0 min 0,000 mm 0,0 UV-I 0 W/m 12,1 C 12,6 C 22,5 km/h (4 Bft) 100,00 %
13.08.2017 00:30 15,7 C 20,0 C 79 % 1019,0 hPa 0,0 l/m 14,1 km/h (3 Bft) SW 235 0 min 0,000 mm 0,0 UV-I 0 W/m 12,1 C 12,3 C 24,1 km/h (4 Bft) 100,00 %
13.08.2017 00:32 15,7 C 20,0 C 79 % 1019,0 hPa 0,0 l/m 13,5 km/h (3 Bft) W-SW 237 0 min 0,000 mm 0,0 UV-I 0 W/m 12,1 C 12,5 C 19,3 km/h (3 Bft) 100,00 %
13.08.2017 00:34 15,8 C 20,0 C 79 % 1019,0 hPa 0,0 l/m 15,9 km/h (3 Bft) SW 233 0 min 0,000 mm 0,0 UV-I 0 W/m 12,2 C 11,9 C 25,7 km/h (4 Bft) 100,00 %
13.08.2017 00:36 15,8 C 20,0 C 79 % 1019,0 hPa 0,0 l/m 14,9 km/h (3 Bft) W-SW 242 0 min 0,000 mm 0,0 UV-I 0 W/m 12,2 C 12,2 C 20,9 km/h (4 Bft) 100,00 %
13.08.2017 00:38 15,8 C 20,0 C 79 % 1019,0 hPa 0,0 l/m 13,1 km/h (3 Bft) SW 234 0 min 0,000 mm 0,0 UV-I 0 W/m 12,2 C 12,8 C 20,9 km/h (4 Bft) 100,00 %
13.08.2017 00:40 15,8 C 20,0 C 79 % 1019,0 hPa 0,0 l/m 14,0 km/h (3 Bft) W 263 0 min 0,000 mm 0,0 UV-I 0 W/m 12,2 C 12,5 C 22,5 km/h (4 Bft) 100,00 %
13.08.2017 00:42 15,8 C 20,0 C 79 % 1019,0 hPa 0,0 l/m 16,4 km/h (3 Bft) W-SW 248 0 min 0,000 mm 0,0 UV-I 0 W/m 12,2 C 11,7 C 25,7 km/h (4 Bft) 98,21 %
13.08.2017 00:44 15,8 C 20,0 C 79 % 1018,9 hPa 0,0 l/m 14,9 km/h (3 Bft) W-SW 248 0 min 0,000 mm 0,0 UV-I 0 W/m 12,2 C 12,2 C 20,9 km/h (4 Bft) 100,00 %
13.08.2017 00:46 15,8 C 20,0 C 79 % 1019,0 hPa 0,0 l/m 14,5 km/h (3 Bft) W-SW 255 0 min 0,000 mm 0,0 UV-I 0 W/m 12,2 C 12,3 C 19,3 km/h (3 Bft) 98,21 %
13.08.2017 00:48 15,8 C 20,0 C 79 % 1018,9 hPa 0,0 l/m 13,4 km/h (3 Bft) W-SW 254 0 min 0,000 mm 0,0 UV-I 0 W/m 12,2 C 12,7 C 24,1 km/h (4 Bft) 97,37 %
13.08.2017 00:50 15,8 C 20,0 C 79 % 1019,0 hPa 0,0 l/m 13,2 km/h (3 Bft) W-SW 246 0 min 0,000 mm 0,0 UV-I 0 W/m 12,2 C 12,8 C 22,5 km/h (4 Bft) 98,00 %
13.08.2017 00:52 15,8 C 20,0 C 79 % 1018,9 hPa 0,0 l/m 13,7 km/h (3 Bft) W 268 0 min 0,000 mm 0,0 UV-I 0 W/m 12,2 C 12,6 C 20,9 km/h (4 Bft) 97,56 %
13.08.2017 00:54 15,8 C 20,0 C 79 % 1019,0 hPa 0,0 l/m 14,6 km/h (3 Bft) W 265 0 min 0,000 mm 0,0 UV-I 0 W/m 12,2 C 12,3 C 24,1 km/h (4 Bft) 96,61 %
13.08.2017 00:56 15,8 C 20,0 C 79 % 1019,0 hPa 0,0 l/m 15,7 km/h (3 Bft) W 267 0 min 0,000 mm 0,0 UV-I 0 W/m 12,2 C 11,9 C 20,9 km/h (4 Bft) 97,87 %
13.08.2017 00:58 15,8 C 20,0 C 79 % 1019,0 hPa 0,0 l/m 15,7 km/h (3 Bft) W-SW 244 0 min 0,000 mm 0,0 UV-I 0 W/m 12,2 C 11,9 C 20,9 km/h (4 Bft) 97,14 %
13.08.2017 01:00 15,8 C 20,0 C 79 % 1019,0 hPa 0,0 l/m 12,7 km/h (3 Bft) W-SW 253 0 min 0,000 mm 0,0 UV-I 0 W/m 12,2 C 12,9 C 20,9 km/h (4 Bft) 97,87 %
13.08.2017 01:02 15,8 C 20,0 C 79 % 1019,1 hPa 0,0 l/m 13,4 km/h (3 Bft) W-SW 246 0 min 0,051 mm 0,0 UV-I 0 W/m 12,2 C 12,7 C 19,3 km/h (3 Bft) 96,00 %
13.08.2017 01:04 15,8 C 20,0 C 79 % 1019,1 hPa 0,0 l/m 11,1 km/h (2 Bft) W 261 0 min 0,000 mm 0,0 UV-I 0 W/m 12,2 C 13,5 C 17,7 km/h (3 Bft) 98,00 %
13.08.2017 01:06 15,8 C 20,0 C 79 % 1019,1 hPa 0,0 l/m 12,0 km/h (2 Bft) W-SW 240 0 min 0,000 mm 0,0 UV-I 0 W/m 12,2 C 13,2 C 17,7 km/h (3 Bft) 96,30 %
13.08.2017 01:08 15,8 C 20,0 C 79 % 1019,1 hPa 0,0 l/m 10,9 km/h (2 Bft) W-SW 257 0 min 0,000 mm 0,0 UV-I 0 W/m 12,2 C 13,6 C 17,7 km/h (3 Bft) 97,10 %
13.08.2017 01:10 15,8 C 20,0 C 79 % 1019,2 hPa 0,0 l/m 11,3 km/h (2 Bft) W-SW 249 0 min 0,000 mm 0,0 UV-I 0 W/m 12,2 C 13,5 C 16,1 km/h (3 Bft) 97,56 %
13.08.2017 01:12 15,8 C 20,0 C 80 % 1019,1 hPa 0,0 l/m 11,1 km/h (2 Bft) W-SW 257 0 min 0,000 mm 0,0 UV-I 0 W/m 12,4 C 13,5 C 16,1 km/h (3 Bft) 98,11 %
13.08.2017 01:14 15,8 C 20,0 C 80 % 1019,1 hPa 0,0 l/m 10,9 km/h (2 Bft) W 271 0 min 0,000 mm 0,0 UV-I 0 W/m 12,4 C 13,6 C 16,1 km/h (3 Bft) 95,74 %
13.08.2017 01:16 15,8 C 20,0 C 80 % 1019,1 hPa 0,0 l/m 8,0 km/h (2 Bft) W-SW 248 0 min 0,000 mm 0,0 UV-I 0 W/m 12,4 C 14,9 C 12,9 km/h (3 Bft) 91,30 %
13.08.2017 01:18 15,8 C 20,0 C 80 % 1019,1 hPa 0,0 l/m 11,1 km/h (2 Bft) SW 234 0 min 0,000 mm 0,0 UV-I 0 W/m 12,4 C 13,5 C 16,1 km/h (3 Bft) 97,22 %
13.08.2017 01:20 15,8 C 20,0 C 80 % 1019,1 hPa 0,0 l/m 11,3 km/h (2 Bft) SW 224 0 min 0,000 mm 0,0 UV-I 0 W/m 12,4 C 13,5 C 17,7 km/h (3 Bft) 95,45 %
13.08.2017 01:22 15,8 C 20,0 C 80 % 1019,2 hPa 0,0 l/m 9,7 km/h (2 Bft) W-SW 252 0 min 0,000 mm 0,0 UV-I 0 W/m 12,4 C 14,1 C 12,9 km/h (3 Bft) 95,12 %
13.08.2017 01:24 15,8 C 20,0 C 80 % 1019,2 hPa 0,0 l/m 10,1 km/h (2 Bft) W 261 0 min 0,000 mm 0,0 UV-I 0 W/m 12,4 C 14,0 C 14,5 km/h (3 Bft) 95,45 %
13.08.2017 01:26 15,8 C 20,0 C 80 % 1019,2 hPa 0,0 l/m 11,1 km/h (2 Bft) W 259 0 min 0,000 mm 0,0 UV-I 0 W/m 12,4 C 13,5 C 17,7 km/h (3 Bft) 98,21 %
13.08.2017 01:28 15,8 C 20,0 C 80 % 1019,2 hPa 0,0 l/m 10,2 km/h (2 Bft) W-SW 255 0 min 0,000 mm 0,0 UV-I 0 W/m 12,4 C 13,9 C 16,1 km/h (3 Bft) 96,00 %
13.08.2017 01:30 15,8 C 20,0 C 80 % 1019,2 hPa 0,0 l/m 10,9 km/h (2 Bft) SW 225 0 min 0,000 mm 0,0 UV-I 0 W/m 12,4 C 13,6 C 19,3 km/h (3 Bft) 97,37 %
13.08.2017 01:32 15,8 C 20,0 C 80 % 1019,1 hPa 0,0 l/m 8,4 km/h (2 Bft) SW 225 0 min 0,000 mm 0,0 UV-I 0 W/m 12,4 C 14,7 C 12,9 km/h (3 Bft) 97,37 %
13.08.2017 01:34 15,8 C 20,0 C 81 % 1019,1 hPa 0,0 l/m 10,2 km/h (2 Bft) W 266 0 min 0,000 mm 0,0 UV-I 0 W/m 12,5 C 13,9 C 12,9 km/h (3 Bft) 94,74 %
13.08.2017 01:36 15,8 C 20,0 C 81 % 1019,2 hPa 0,0 l/m 8,9 km/h (2 Bft) W-SW 252 0 min 0,000 mm 0,0 UV-I 0 W/m 12,5 C 14,5 C 12,9 km/h (3 Bft) 98,00 %
13.08.2017 01:38 15,7 C 20,0 C 81 % 1019,2 hPa 0,0 l/m 8,2 km/h (2 Bft) S-SW 211 0 min 0,000 mm 0,0 UV-I 0 W/m 12,4 C 14,7 C 11,3 km/h (2 Bft) 97,56 %
13.08.2017 01:40 15,7 C 20,0 C 81 % 1019,1 hPa 0,0 l/m 9,1 km/h (2 Bft) W-SW 244 0 min 0,000 mm 0,0 UV-I 0 W/m 12,4 C 14,3 C 14,5 km/h (3 Bft) 94,34 %
13.08.2017 01:42 15,7 C 20,0 C 81 % 1019,2 hPa 0,0 l/m 7,5 km/h (2 Bft) W-SW 239 0 min 0,000 mm 0,0 UV-I 0 W/m 12,4 C 15,1 C 14,5 km/h (3 Bft) 98,00 %
13.08.2017 01:44 15,7 C 20,0 C 81 % 1019,2 hPa 0,0 l/m 6,3 km/h (2 Bft) W-SW 252 0 min 0,000 mm 0,0 UV-I 0 W/m 12,4 C 15,7 C 14,5 km/h (3 Bft) 97,44 %
13.08.2017 01:46 15,7 C 20,0 C 81 % 1019,1 hPa 0,0 l/m 10,2 km/h (2 Bft) W-SW 248 0 min 0,000 mm 0,0 UV-I 0 W/m 12,4 C 13,8 C 14,5 km/h (3 Bft) 96,15 %
13.08.2017 01:48 15,7 C 20,0 C 81 % 1019,1 hPa 0,0 l/m 8,4 km/h (2 Bft) W-SW 251 0 min 0,000 mm 0,0 UV-I 0 W/m 12,4 C 14,6 C 12,9 km/h (3 Bft) 97,78 %
13.08.2017 01:50 15,7 C 20,0 C 81 % 1019,1 hPa 0,0 l/m 8,4 km/h (2 Bft) W-SW 254 0 min 0,000 mm 0,0 UV-I 0 W/m 12,4 C 14,6 C 16,1 km/h (3 Bft) 96,00 %
13.08.2017 01:52 15,7 C 20,0 C 81 % 1019,1 hPa 0,0 l/m 9,0 km/h (2 Bft) W-SW 244 0 min 0,000 mm 0,0 UV-I 0 W/m 12,4 C 14,3 C 12,9 km/h (3 Bft) 97,56 %
13.08.2017 01:54 15,7 C 20,0 C 81 % 1019,1 hPa 0,0 l/m 8,9 km/h (2 Bft) W-SW 237 0 min 0,000 mm 0,0 UV-I 0 W/m 12,4 C 14,4 C 14,5 km/h (3 Bft) 97,56 %
13.08.2017 01:56 15,7 C 20,0 C 81 % 1019,1 hPa 0,0 l/m 10,9 km/h (2 Bft) W-SW 242 0 min 0,000 mm 0,0 UV-I 0 W/m 12,4 C 13,5 C 17,7 km/h (3 Bft) 98,00 %
13.08.2017 01:58 15,7 C 20,0 C 81 % 1019,1 hPa 0,0 l/m 10,9 km/h (2 Bft) SW 216 0 min 0,000 mm 0,0 UV-I 0 W/m 12,4 C 13,5 C 16,1 km/h (3 Bft) 98,11 %
13.08.2017 02:00 15,7 C 20,0 C 81 % 1019,1 hPa 0,0 l/m 11,3 km/h (2 Bft) W-SW 246 0 min 0,025 mm 0,0 UV-I 0 W/m 12,4 C 13,3 C 17,7 km/h (3 Bft) 95,74 %
13.08.2017 02:02 15,7 C 20,0 C 81 % 1019,1 hPa 0,0 l/m 11,7 km/h (2 Bft) W-SW 244 0 min 0,000 mm 0,0 UV-I 0 W/m 12,4 C 13,2 C 16,1 km/h (3 Bft) 95,74 %
13.08.2017 02:04 15,7 C 20,0 C 81 % 1019,2 hPa 0,0 l/m 11,7 km/h (2 Bft) W-SW 254 0 min 0,000 mm 0,0 UV-I 0 W/m 12,4 C 13,2 C 17,7 km/h (3 Bft) 100,00 %
13.08.2017 02:06 15,7 C 20,0 C 81 % 1019,1 hPa 0,0 l/m 12,1 km/h (2 Bft) W 265 0 min 0,000 mm 0,0 UV-I 0 W/m 12,4 C 13,0 C 16,1 km/h (3 Bft) 92,86 %
13.08.2017 02:08 15,7 C 20,0 C 81 % 1019,1 hPa 0,0 l/m 12,5 km/h (3 Bft) W-SW 250 0 min 0,000 mm 0,0 UV-I 0 W/m 12,4 C 12,9 C 16,1 km/h (3 Bft) 98,00 %
13.08.2017 02:10 15,7 C 20,0 C 81 % 1019,1 hPa 0,0 l/m 14,0 km/h (3 Bft) W-SW 255 0 min 0,000 mm 0,0 UV-I 0 W/m 12,4 C 12,4 C 17,7 km/h (3 Bft) 94,74 %
13.08.2017 02:12 15,7 C 20,0 C 80 % 1019,1 hPa 0,0 l/m 13,5 km/h (3 Bft) W 261 0 min 0,000 mm 0,0 UV-I 0 W/m 12,3 C 12,5 C 17,7 km/h (3 Bft) 98,00 %
13.08.2017 02:14 15,7 C 20,0 C 80 % 1019,1 hPa 0,0 l/m 9,8 km/h (2 Bft) W-SW 242 0 min 0,000 mm 0,0 UV-I 0 W/m 12,3 C 14,0 C 12,9 km/h (3 Bft) 98,11 %
13.08.2017 02:16 15,7 C 20,0 C 81 % 1019,1 hPa 0,0 l/m 11,1 km/h (2 Bft) W 276 0 min 0,000 mm 0,0 UV-I 0 W/m 12,4 C 13,4 C 16,1 km/h (3 Bft) 97,37 %
13.08.2017 02:18 15,7 C 20,0 C 80 % 1019,1 hPa 0,0 l/m 11,5 km/h (2 Bft) W 270 0 min 0,000 mm 0,0 UV-I 0 W/m 12,3 C 13,3 C 16,1 km/h (3 Bft) 96,30 %
13.08.2017 02:20 15,7 C 20,0 C 80 % 1019,1 hPa 0,0 l/m 14,2 km/h (3 Bft) W-SW 249 0 min 0,000 mm 0,0 UV-I 0 W/m 12,3 C 12,3 C 17,7 km/h (3 Bft) 98,57 %
13.08.2017 02:22 15,7 C 20,0 C 81 % 1019,1 hPa 0,0 l/m 11,7 km/h (2 Bft) SW 232 0 min 0,000 mm 0,0 UV-I 0 W/m 12,4 C 13,2 C 17,7 km/h (3 Bft) 97,62 %
13.08.2017 02:24 15,7 C 20,0 C 81 % 1019,0 hPa 0,0 l/m 12,3 km/h (3 Bft) W-SW 246 0 min 0,000 mm 0,0 UV-I 0 W/m 12,4 C 13,0 C 17,7 km/h (3 Bft) 92,73 %
13.08.2017 02:26 15,7 C 20,0 C 81 % 1019,0 hPa 0,0 l/m 11,2 km/h (2 Bft) W-SW 256 0 min 0,000 mm 0,0 UV-I 0 W/m 12,4 C 13,4 C 17,7 km/h (3 Bft) 97,87 %
13.08.2017 02:28 15,7 C 20,0 C 81 % 1019,0 hPa 0,0 l/m 14,4 km/h (3 Bft) W 261 0 min 0,000 mm 0,0 UV-I 0 W/m 12,4 C 12,2 C 19,3 km/h (3 Bft) 94,87 %
13.08.2017 02:30 15,7 C 20,0 C 81 % 1019,0 hPa 0,0 l/m 15,5 km/h (3 Bft) W-SW 247 0 min 0,000 mm 0,0 UV-I 0 W/m 12,4 C 11,9 C 24,1 km/h (4 Bft) 95,74 %
13.08.2017 02:32 15,7 C 20,0 C 81 % 1019,0 hPa 0,0 l/m 13,2 km/h (3 Bft) W-SW 246 0 min 0,000 mm 0,0 UV-I 0 W/m 12,4 C 12,6 C 20,9 km/h (4 Bft) 100,00 %
13.08.2017 02:34 15,7 C 20,0 C 81 % 1019,0 hPa 0,0 l/m 15,4 km/h (3 Bft) W-SW 251 0 min 0,000 mm 0,0 UV-I 0 W/m 12,4 C 11,9 C 22,5 km/h (4 Bft) 100,00 %
13.08.2017 02:36 15,7 C 20,0 C 81 % 1019,0 hPa 0,0 l/m 12,3 km/h (3 Bft) W-SW 240 0 min 0,000 mm 0,0 UV-I 0 W/m 12,4 C 13,0 C 16,1 km/h (3 Bft) 96,00 %
13.08.2017 02:38 15,7 C 20,0 C 81 % 1019,0 hPa 0,0 l/m 14,0 km/h (3 Bft) SW 227 0 min 0,000 mm 0,0 UV-I 0 W/m 12,4 C 12,4 C 20,9 km/h (4 Bft) 97,56 %
13.08.2017 02:40 15,7 C 20,0 C 81 % 1019,0 hPa 0,0 l/m 14,0 km/h (3 Bft) SW 223 0 min 0,000 mm 0,0 UV-I 0 W/m 12,4 C 12,4 C 22,5 km/h (4 Bft) 100,00 %
13.08.2017 02:42 15,7 C 20,0 C 82 % 1019,0 hPa 0,0 l/m 14,1 km/h (3 Bft) SW 236 0 min 0,000 mm 0,0 UV-I 0 W/m 12,6 C 12,3 C 22,5 km/h (4 Bft) 98,00 %
13.08.2017 02:44 15,6 C 20,0 C 82 % 1019,0 hPa 0,0 l/m 10,3 km/h (2 Bft) W-SW 257 0 min 0,000 mm 0,0 UV-I 0 W/m 12,5 C 13,7 C 17,7 km/h (3 Bft) 100,00 %
13.08.2017 02:46 15,6 C 20,0 C 82 % 1019,1 hPa 0,0 l/m 10,1 km/h (2 Bft) SW 232 0 min 0,000 mm 0,0 UV-I 0 W/m 12,5 C 13,7 C 16,1 km/h (3 Bft) 95,12 %
13.08.2017 02:48 15,6 C 20,0 C 82 % 1019,2 hPa 0,0 l/m 12,6 km/h (3 Bft) W-SW 256 0 min 0,000 mm 0,0 UV-I 0 W/m 12,5 C 12,7 C 20,9 km/h (4 Bft) 100,00 %
13.08.2017 02:50 15,6 C 20,0 C 82 % 1019,2 hPa 0,0 l/m 11,0 km/h (2 Bft) W-SW 250 0 min 0,000 mm 0,0 UV-I 0 W/m 12,5 C 13,4 C 16,1 km/h (3 Bft) 97,73 %
13.08.2017 02:52 15,6 C 20,0 C 82 % 1019,2 hPa 0,0 l/m 11,1 km/h (2 Bft) W-SW 257 0 min 0,000 mm 0,0 UV-I 0 W/m 12,5 C 13,3 C 16,1 km/h (3 Bft) 97,56 %
13.08.2017 02:54 15,6 C 20,0 C 83 % 1019,3 hPa 0,0 l/m 12,8 km/h (3 Bft) SW 226 0 min 0,000 mm 0,0 UV-I 0 W/m 12,7 C 12,7 C 19,3 km/h (3 Bft) 98,31 %
13.08.2017 02:56 15,6 C 20,0 C 83 % 1019,2 hPa 0,0 l/m 16,9 km/h (3 Bft) W-SW 246 0 min 0,000 mm 0,0 UV-I 0 W/m 12,7 C 11,3 C 24,1 km/h (4 Bft) 97,37 %
13.08.2017 02:58 15,6 C 20,0 C 83 % 1019,3 hPa 0,0 l/m 11,9 km/h (2 Bft) W 260 0 min 0,000 mm 0,0 UV-I 0 W/m 12,7 C 13,0 C 17,7 km/h (3 Bft) 97,78 %
13.08.2017 03:00 15,5 C 20,0 C 83 % 1019,3 hPa 0,0 l/m 12,1 km/h (2 Bft) W 261 0 min 0,000 mm 0,0 UV-I 0 W/m 12,6 C 12,8 C 19,3 km/h (3 Bft) 95,74 %
13.08.2017 03:02 15,5 C 20,0 C 83 % 1019,2 hPa 0,0 l/m 14,6 km/h (3 Bft) SW 235 0 min 0,026 mm 0,0 UV-I 0 W/m 12,6 C 11,9 C 19,3 km/h (3 Bft) 96,36 %
13.08.2017 03:04 15,4 C 20,0 C 83 % 1019,2 hPa 0,0 l/m 13,4 km/h (3 Bft) W-SW 244 0 min 0,000 mm 0,0 UV-I 0 W/m 12,5 C 12,2 C 20,9 km/h (4 Bft) 100,00 %
13.08.2017 03:06 15,4 C 20,0 C 84 % 1019,2 hPa 0,0 l/m 13,9 km/h (3 Bft) W-SW 256 0 min 0,000 mm 0,0 UV-I 0 W/m 12,7 C 12,0 C 22,5 km/h (4 Bft) 95,74 %
13.08.2017 03:08 15,4 C 20,0 C 84 % 1019,2 hPa 0,0 l/m 15,1 km/h (3 Bft) W-SW 247 0 min 0,000 mm 0,0 UV-I 0 W/m 12,7 C 11,6 C 20,9 km/h (4 Bft) 98,21 %
13.08.2017 03:10 15,4 C 20,0 C 84 % 1019,2 hPa 0,0 l/m 16,1 km/h (3 Bft) W-SW 244 0 min 0,000 mm 0,0 UV-I 0 W/m 12,7 C 11,3 C 22,5 km/h (4 Bft) 97,56 %
13.08.2017 03:12 15,4 C 20,0 C 84 % 1019,2 hPa 0,0 l/m 14,3 km/h (3 Bft) W-SW 248 0 min 0,000 mm 0,0 UV-I 0 W/m 12,7 C 11,9 C 24,1 km/h (4 Bft) 98,00 %
13.08.2017 03:14 15,4 C 20,0 C 84 % 1019,2 hPa 0,0 l/m 14,5 km/h (3 Bft) W-NW 294 0 min 0,000 mm 0,0 UV-I 0 W/m 12,7 C 11,8 C 19,3 km/h (3 Bft) 97,87 %
13.08.2017 03:16 15,3 C 20,0 C 84 % 1019,1 hPa 0,0 l/m 14,0 km/h (3 Bft) SW 227 0 min 0,000 mm 0,0 UV-I 0 W/m 12,6 C 11,9 C 19,3 km/h (3 Bft) 96,00 %
13.08.2017 03:18 15,3 C 20,0 C 84 % 1019,2 hPa 0,0 l/m 15,9 km/h (3 Bft) W-SW 248 0 min 0,000 mm 0,0 UV-I 0 W/m 12,6 C 11,3 C 20,9 km/h (4 Bft) 97,73 %
13.08.2017 03:20 15,3 C 20,0 C 84 % 1019,2 hPa 0,0 l/m 13,2 km/h (3 Bft) W 260 0 min 0,000 mm 0,0 UV-I 0 W/m 12,6 C 12,2 C 17,7 km/h (3 Bft) 97,56 %
13.08.2017 03:22 15,3 C 20,0 C 84 % 1019,3 hPa 0,0 l/m 12,3 km/h (3 Bft) W-SW 248 0 min 0,000 mm 0,0 UV-I 0 W/m 12,6 C 12,5 C 20,9 km/h (4 Bft) 95,74 %
13.08.2017 03:24 15,3 C 20,0 C 84 % 1019,3 hPa 0,0 l/m 13,0 km/h (3 Bft) W 267 0 min 0,000 mm 0,0 UV-I 0 W/m 12,6 C 12,2 C 20,9 km/h (4 Bft) 98,00 %
13.08.2017 03:26 15,3 C 20,0 C 85 % 1019,3 hPa 0,0 l/m 12,2 km/h (2 Bft) W-SW 250 0 min 0,000 mm 0,0 UV-I 0 W/m 12,8 C 12,5 C 19,3 km/h (3 Bft) 98,00 %
13.08.2017 03:28 15,3 C 20,0 C 85 % 1019,3 hPa 0,0 l/m 12,4 km/h (3 Bft) W-SW 246 0 min 0,000 mm 0,0 UV-I 0 W/m 12,8 C 12,5 C 16,1 km/h (3 Bft) 100,00 %
13.08.2017 03:30 15,2 C 20,0 C 85 % 1019,4 hPa 0,0 l/m 12,1 km/h (2 Bft) W-SW 247 0 min 0,000 mm 0,0 UV-I 0 W/m 12,7 C 12,5 C 17,7 km/h (3 Bft) 100,00 %
13.08.2017 03:32 15,2 C 20,0 C 85 % 1019,3 hPa 0,0 l/m 8,6 km/h (2 Bft) W-SW 238 0 min 0,000 mm 0,0 UV-I 0 W/m 12,7 C 14,0 C 12,9 km/h (3 Bft) 97,56 %
13.08.2017 03:34 15,2 C 20,0 C 85 % 1019,3 hPa 0,0 l/m 9,0 km/h (2 Bft) W-SW 258 0 min 0,000 mm 0,0 UV-I 0 W/m 12,7 C 13,8 C 14,5 km/h (3 Bft) 98,31 %
13.08.2017 03:36 15,2 C 20,0 C 85 % 1019,3 hPa 0,0 l/m 9,4 km/h (2 Bft) W 275 0 min 0,000 mm 0,0 UV-I 0 W/m 12,7 C 13,6 C 19,3 km/h (3 Bft) 100,00 %
13.08.2017 03:38 15,2 C 20,0 C 85 % 1019,3 hPa 0,0 l/m 9,9 km/h (2 Bft) W-SW 249 0 min 0,000 mm 0,0 UV-I 0 W/m 12,7 C 13,4 C 16,1 km/h (3 Bft) 100,00 %
13.08.2017 03:40 15,2 C 20,0 C 85 % 1019,4 hPa 0,0 l/m 10,1 km/h (2 Bft) W-SW 238 0 min 0,000 mm 0,0 UV-I 0 W/m 12,7 C 13,3 C 16,1 km/h (3 Bft) 97,44 %
13.08.2017 03:42 15,2 C 20,0 C 85 % 1019,4 hPa 0,0 l/m 10,9 km/h (2 Bft) W-SW 254 0 min 0,000 mm 0,0 UV-I 0 W/m 12,7 C 12,9 C 16,1 km/h (3 Bft) 100,00 %
13.08.2017 03:44 15,1 C 20,0 C 85 % 1019,4 hPa 0,0 l/m 9,6 km/h (2 Bft) SW 225 0 min 0,000 mm 0,0 UV-I 0 W/m 12,6 C 13,4 C 14,5 km/h (3 Bft) 100,00 %
13.08.2017 03:46 15,1 C 20,0 C 86 % 1019,4 hPa 0,0 l/m 9,9 km/h (2 Bft) SW 221 0 min 0,000 mm 0,0 UV-I 0 W/m 12,8 C 13,3 C 14,5 km/h (3 Bft) 100,00 %
13.08.2017 03:48 15,1 C 20,0 C 86 % 1019,5 hPa 0,0 l/m 9,3 km/h (2 Bft) SW 225 0 min 0,000 mm 0,0 UV-I 0 W/m 12,8 C 13,6 C 14,5 km/h (3 Bft) 100,00 %
13.08.2017 03:50 15,1 C 20,0 C 86 % 1019,5 hPa 0,0 l/m 8,9 km/h (2 Bft) W-SW 246 0 min 0,000 mm 0,0 UV-I 0 W/m 12,8 C 13,7 C 12,9 km/h (3 Bft) 100,00 %
13.08.2017 03:52 15,1 C 20,0 C 86 % 1019,4 hPa 0,0 l/m 9,1 km/h (2 Bft) SW 216 0 min 0,000 mm 0,0 UV-I 0 W/m 12,8 C 13,6 C 14,5 km/h (3 Bft) 100,00 %
13.08.2017 03:54 15,1 C 20,0 C 86 % 1019,4 hPa 0,0 l/m 12,1 km/h (2 Bft) W-SW 239 0 min 0,000 mm 0,0 UV-I 0 W/m 12,8 C 12,3 C 19,3 km/h (3 Bft) 100,00 %
13.08.2017 03:56 15,1 C 20,0 C 86 % 1019,4 hPa 0,0 l/m 13,8 km/h (3 Bft) S-SW 210 0 min 0,000 mm 0,0 UV-I 0 W/m 12,8 C 11,7 C 19,3 km/h (3 Bft) 100,00 %
13.08.2017 03:58 15,1 C 20,0 C 86 % 1019,4 hPa 0,0 l/m 14,8 km/h (3 Bft) W-SW 240 0 min 0,000 mm 0,0 UV-I 0 W/m 12,8 C 11,4 C 22,5 km/h (4 Bft) 96,00 %
13.08.2017 04:00 15,0 C 20,0 C 87 % 1019,5 hPa 0,0 l/m 13,2 km/h (3 Bft) S-SW 202 0 min 0,025 mm 0,0 UV-I 0 W/m 12,9 C 11,8 C 19,3 km/h (3 Bft) 100,00 %
13.08.2017 04:02 15,0 C 20,0 C 87 % 1019,5 hPa 0,0 l/m 11,0 km/h (2 Bft) W-SW 246 0 min 0,000 mm 0,0 UV-I 0 W/m 12,9 C 12,7 C 16,1 km/h (3 Bft) 90,91 %
13.08.2017 04:04 15,0 C 20,0 C 87 % 1019,5 hPa 0,0 l/m 9,9 km/h (2 Bft) SW 218 0 min 0,000 mm 0,0 UV-I 0 W/m 12,9 C 13,2 C 16,1 km/h (3 Bft) 100,00 %
13.08.2017 04:06 15,0 C 20,0 C 87 % 1019,5 hPa 0,0 l/m 9,4 km/h (2 Bft) W-SW 255 0 min 0,000 mm 0,0 UV-I 0 W/m 12,9 C 13,4 C 16,1 km/h (3 Bft) 100,00 %
13.08.2017 04:08 15,0 C 20,0 C 87 % 1019,5 hPa 0,0 l/m 12,2 km/h (2 Bft) SW 219 0 min 0,000 mm 0,0 UV-I 0 W/m 12,9 C 12,2 C 19,3 km/h (3 Bft) 98,39 %
13.08.2017 04:10 14,9 C 20,0 C 87 % 1019,4 hPa 0,0 l/m 13,9 km/h (3 Bft) SW 236 0 min 0,000 mm 0,0 UV-I 0 W/m 12,8 C 11,4 C 20,9 km/h (4 Bft) 100,00 %
13.08.2017 04:12 14,9 C 20,0 C 87 % 1019,4 hPa 0,0 l/m 12,4 km/h (3 Bft) SW 222 0 min 0,000 mm 0,0 UV-I 0 W/m 12,8 C 12,0 C 19,3 km/h (3 Bft) 100,00 %
13.08.2017 04:14 14,9 C 20,0 C 87 % 1019,4 hPa 0,0 l/m 14,4 km/h (3 Bft) SW 233 0 min 0,000 mm 0,0 UV-I 0 W/m 12,8 C 11,3 C 20,9 km/h (4 Bft) 98,00 %
13.08.2017 04:16 14,9 C 20,0 C 87 % 1019,4 hPa 0,0 l/m 12,1 km/h (2 Bft) W 263 0 min 0,000 mm 0,0 UV-I 0 W/m 12,8 C 12,1 C 16,1 km/h (3 Bft) 100,00 %
13.08.2017 04:18 14,9 C 20,0 C 87 % 1019,4 hPa 0,0 l/m 12,1 km/h (2 Bft) W-SW 242 0 min 0,000 mm 0,0 UV-I 0 W/m 12,8 C 12,1 C 22,5 km/h (4 Bft) 100,00 %
13.08.2017 04:20 14,9 C 20,0 C 87 % 1019,4 hPa 0,0 l/m 11,5 km/h (2 Bft) W-SW 257 0 min 0,000 mm 0,0 UV-I 0 W/m 12,8 C 12,4 C 19,3 km/h (3 Bft) 100,00 %
13.08.2017 04:22 14,9 C 20,0 C 87 % 1019,4 hPa 0,0 l/m 13,1 km/h (3 Bft) W-SW 254 0 min 0,000 mm 0,0 UV-I 0 W/m 12,8 C 11,7 C 19,3 km/h (3 Bft) 100,00 %
13.08.2017 04:24 14,9 C 20,0 C 88 % 1019,5 hPa 0,0 l/m 12,4 km/h (3 Bft) W-SW 242 0 min 0,000 mm 0,0 UV-I 0 W/m 12,9 C 12,0 C 17,7 km/h (3 Bft) 100,00 %
13.08.2017 04:26 14,9 C 20,0 C 88 % 1019,4 hPa 0,0 l/m 15,9 km/h (3 Bft) W-SW 246 0 min 0,000 mm 0,0 UV-I 0 W/m 12,9 C 10,8 C 25,7 km/h (4 Bft) 100,00 %
13.08.2017 04:28 14,9 C 20,0 C 88 % 1019,4 hPa 0,0 l/m 13,6 km/h (3 Bft) W 273 0 min 0,000 mm 0,0 UV-I 0 W/m 12,9 C 11,6 C 20,9 km/h (4 Bft) 100,00 %
13.08.2017 04:30 14,9 C 20,0 C 88 % 1019,4 hPa 0,0 l/m 12,5 km/h (3 Bft) W-SW 246 0 min 0,000 mm 0,0 UV-I 0 W/m 12,9 C 12,0 C 19,3 km/h (3 Bft) 100,00 %
13.08.2017 04:32 14,9 C 20,0 C 88 % 1019,4 hPa 0,0 l/m 15,8 km/h (3 Bft) W 266 0 min 0,000 mm 0,0 UV-I 0 W/m 12,9 C 10,8 C 24,1 km/h (4 Bft) 98,11 %
13.08.2017 04:34 14,9 C 20,0 C 88 % 1019,4 hPa 0,0 l/m 16,0 km/h (3 Bft) W-SW 248 0 min 0,000 mm 0,0 UV-I 0 W/m 12,9 C 10,7 C 22,5 km/h (4 Bft) 97,56 %
13.08.2017 04:36 14,8 C 20,0 C 88 % 1019,4 hPa 0,0 l/m 14,6 km/h (3 Bft) SW 232 0 min 0,000 mm 0,0 UV-I 0 W/m 12,8 C 11,1 C 20,9 km/h (4 Bft) 100,00 %
13.08.2017 04:38 14,8 C 20,0 C 88 % 1019,3 hPa 0,0 l/m 13,4 km/h (3 Bft) W-SW 258 0 min 0,000 mm 0,0 UV-I 0 W/m 12,8 C 11,5 C 20,9 km/h (4 Bft) 100,00 %
13.08.2017 04:40 14,9 C 20,0 C 88 % 1019,3 hPa 0,0 l/m 14,7 km/h (3 Bft) W-SW 247 0 min 0,000 mm 0,0 UV-I 0 W/m 12,9 C 11,2 C 20,9 km/h (4 Bft) 100,00 %
13.08.2017 04:42 14,8 C 20,0 C 87 % 1019,3 hPa 0,0 l/m 12,4 km/h (3 Bft) W 267 0 min 0,000 mm 0,0 UV-I 0 W/m 12,7 C 11,9 C 19,3 km/h (3 Bft) 97,56 %
13.08.2017 04:44 14,9 C 20,0 C 87 % 1019,3 hPa 0,0 l/m 11,4 km/h (2 Bft) SW 227 0 min 0,000 mm 0,0 UV-I 0 W/m 12,8 C 12,4 C 16,1 km/h (3 Bft) 100,00 %
13.08.2017 04:46 14,9 C 20,0 C 87 % 1019,3 hPa 0,0 l/m 15,2 km/h (3 Bft) W 261 0 min 0,000 mm 0,0 UV-I 0 W/m 12,8 C 11,0 C 19,3 km/h (3 Bft) 100,00 %
13.08.2017 04:48 14,9 C 20,0 C 87 % 1019,2 hPa 0,0 l/m 13,4 km/h (3 Bft) W-SW 239 0 min 0,000 mm 0,0 UV-I 0 W/m 12,8 C 11,6 C 20,9 km/h (4 Bft) 100,00 %
13.08.2017 04:50 14,9 C 20,0 C 87 % 1019,2 hPa 0,0 l/m 11,3 km/h (2 Bft) SW 215 0 min 0,000 mm 0,0 UV-I 0 W/m 12,8 C 12,4 C 19,3 km/h (3 Bft) 95,74 %
13.08.2017 04:52 14,9 C 20,0 C 87 % 1019,2 hPa 0,0 l/m 10,9 km/h (2 Bft) W 260 0 min 0,000 mm 0,0 UV-I 0 W/m 12,8 C 12,6 C 17,7 km/h (3 Bft) 97,87 %
13.08.2017 04:54 14,9 C 20,0 C 87 % 1019,3 hPa 0,0 l/m 12,8 km/h (3 Bft) W-SW 246 0 min 0,000 mm 0,0 UV-I 0 W/m 12,8 C 11,8 C 17,7 km/h (3 Bft) 97,87 %
13.08.2017 04:56 14,9 C 20,0 C 87 % 1019,2 hPa 0,0 l/m 13,1 km/h (3 Bft) W-SW 254 0 min 0,000 mm 0,0 UV-I 0 W/m 12,8 C 11,7 C 16,1 km/h (3 Bft) 97,87 %
13.08.2017 04:58 14,9 C 20,0 C 87 % 1019,2 hPa 0,0 l/m 13,1 km/h (3 Bft) W-SW 241 0 min 0,000 mm 0,0 UV-I 0 W/m 12,8 C 11,7 C 20,9 km/h (4 Bft) 95,45 %
13.08.2017 05:00 14,9 C 20,0 C 87 % 1019,3 hPa 0,0 l/m 8,4 km/h (2 Bft) W-SW 246 0 min 0,025 mm 0,0 UV-I 0 W/m 12,8 C 13,8 C 14,5 km/h (3 Bft) 97,44 %
13.08.2017 05:02 14,9 C 20,0 C 87 % 1019,4 hPa 0,0 l/m 10,7 km/h (2 Bft) W-SW 258 0 min 0,000 mm 0,0 UV-I 0 W/m 12,8 C 12,7 C 14,5 km/h (3 Bft) 96,55 %
13.08.2017 05:04 14,9 C 20,0 C 87 % 1019,4 hPa 0,0 l/m 8,5 km/h (2 Bft) SW 215 0 min 0,000 mm 0,0 UV-I 0 W/m 12,8 C 13,7 C 17,7 km/h (3 Bft) 97,56 %
13.08.2017 05:06 14,9 C 20,0 C 87 % 1019,3 hPa 0,0 l/m 9,7 km/h (2 Bft) SW 216 0 min 0,000 mm 0,0 UV-I 0 W/m 12,8 C 13,1 C 19,3 km/h (3 Bft) 95,74 %
13.08.2017 05:08 14,9 C 19,4 C 87 % 1019,4 hPa 0,0 l/m 8,4 km/h (2 Bft) W-SW 238 0 min 0,000 mm 0,0 UV-I 0 W/m 12,8 C 13,8 C 12,9 km/h (3 Bft) 98,00 %
13.08.2017 05:10 14,9 C 20,0 C 88 % 1019,4 hPa 0,0 l/m 10,0 km/h (2 Bft) W 259 0 min 0,000 mm 0,0 UV-I 0 W/m 12,9 C 13,0 C 14,5 km/h (3 Bft) 95,12 %
13.08.2017 05:12 14,9 C 20,0 C 88 % 1019,4 hPa 0,0 l/m 7,9 km/h (2 Bft) SW 232 0 min 0,000 mm 0,0 UV-I 0 W/m 12,9 C 14,1 C 17,7 km/h (3 Bft) 98,21 %
13.08.2017 05:14 14,9 C 19,4 C 88 % 1019,3 hPa 0,0 l/m 12,1 km/h (2 Bft) W-SW 237 0 min 0,000 mm 0,0 UV-I 0 W/m 12,9 C 12,1 C 19,3 km/h (3 Bft) 95,65 %
13.08.2017 05:16 14,9 C 20,0 C 88 % 1019,3 hPa 0,0 l/m 10,2 km/h (2 Bft) SW 231 0 min 0,000 mm 0,0 UV-I 0 W/m 12,9 C 12,9 C 16,1 km/h (3 Bft) 98,53 %
13.08.2017 05:18 14,9 C 20,0 C 88 % 1019,3 hPa 0,0 l/m 11,9 km/h (2 Bft) SW 236 0 min 0,000 mm 0,0 UV-I 0 W/m 12,9 C 12,2 C 19,3 km/h (3 Bft) 97,56 %
13.08.2017 05:20 14,9 C 19,4 C 88 % 1019,3 hPa 0,0 l/m 10,5 km/h (2 Bft) W-SW 239 0 min 0,000 mm 0,0 UV-I 0 W/m 12,9 C 12,8 C 17,7 km/h (3 Bft) 96,43 %
13.08.2017 05:22 14,8 C 19,4 C 88 % 1019,4 hPa 0,0 l/m 10,1 km/h (2 Bft) S-SW 211 0 min 0,000 mm 0,0 UV-I 0 W/m 12,8 C 12,9 C 17,7 km/h (3 Bft) 95,45 %
13.08.2017 05:24 14,8 C 19,4 C 88 % 1019,3 hPa 0,0 l/m 10,5 km/h (2 Bft) S-SW 211 0 min 0,000 mm 0,0 UV-I 0 W/m 12,8 C 12,7 C 19,3 km/h (3 Bft) 97,56 %
13.08.2017 05:26 14,8 C 19,4 C 88 % 1019,3 hPa 0,0 l/m 13,6 km/h (3 Bft) SW 220 0 min 0,000 mm 0,0 UV-I 0 W/m 12,8 C 11,4 C 19,3 km/h (3 Bft) 98,00 %
13.08.2017 05:28 14,8 C 19,4 C 88 % 1019,3 hPa 0,0 l/m 12,8 km/h (3 Bft) W-SW 242 0 min 0,000 mm 0,0 UV-I 0 W/m 12,8 C 11,7 C 17,7 km/h (3 Bft) 96,23 %
13.08.2017 05:30 14,8 C 19,4 C 88 % 1019,3 hPa 0,0 l/m 12,0 km/h (2 Bft) SW 236 0 min 0,000 mm 0,0 UV-I 0 W/m 12,8 C 12,0 C 20,9 km/h (4 Bft) 95,12 %
13.08.2017 05:32 14,8 C 19,4 C 88 % 1019,3 hPa 0,0 l/m 18,4 km/h (3 Bft) SW 229 0 min 0,000 mm 0,0 UV-I 0 W/m 12,8 C 9,9 C 24,1 km/h (4 Bft) 97,56 %
13.08.2017 05:34 14,8 C 19,4 C 88 % 1019,3 hPa 0,0 l/m 15,0 km/h (3 Bft) W-SW 245 0 min 0,000 mm 0,0 UV-I 0 W/m 12,8 C 10,9 C 24,1 km/h (4 Bft) 94,92 %
13.08.2017 05:36 14,8 C 19,4 C 88 % 1019,3 hPa 0,0 l/m 15,2 km/h (3 Bft) W-SW 239 0 min 0,000 mm 0,0 UV-I 0 W/m 12,8 C 10,9 C 20,9 km/h (4 Bft) 100,00 %
13.08.2017 05:38 14,8 C 19,4 C 88 % 1019,3 hPa 0,0 l/m 13,4 km/h (3 Bft) SW 233 0 min 0,000 mm 0,0 UV-I 0 W/m 12,8 C 11,5 C 20,9 km/h (4 Bft) 96,61 %
13.08.2017 05:40 14,8 C 19,4 C 88 % 1019,3 hPa 0,0 l/m 10,9 km/h (2 Bft) SW 219 0 min 0,000 mm 0,0 UV-I 0 W/m 12,8 C 12,5 C 17,7 km/h (3 Bft) 97,73 %
13.08.2017 05:42 14,8 C 19,4 C 88 % 1019,3 hPa 0,0 l/m 14,8 km/h (3 Bft) S-SW 207 0 min 0,000 mm 0,0 UV-I 0 W/m 12,8 C 11,0 C 22,5 km/h (4 Bft) 98,21 %
13.08.2017 05:44 14,8 C 19,4 C 88 % 1019,3 hPa 0,0 l/m 11,9 km/h (2 Bft) W 268 0 min 0,000 mm 0,0 UV-I 0 W/m 12,8 C 12,1 C 22,5 km/h (4 Bft) 97,56 %
13.08.2017 05:46 14,8 C 19,4 C 88 % 1019,4 hPa 0,0 l/m 17,8 km/h (3 Bft) SW 223 0 min 0,000 mm 0,0 UV-I 0 W/m 12,8 C 10,1 C 24,1 km/h (4 Bft) 98,11 %
13.08.2017 05:48 14,8 C 19,4 C 88 % 1019,4 hPa 0,0 l/m 11,7 km/h (2 Bft) SW 218 0 min 0,000 mm 0,0 UV-I 0 W/m 12,8 C 12,2 C 22,5 km/h (4 Bft) 97,56 %
13.08.2017 05:50 14,8 C 19,4 C 88 % 1019,4 hPa 0,0 l/m 10,6 km/h (2 Bft) W-SW 254 0 min 0,000 mm 0,0 UV-I 0 W/m 12,8 C 12,6 C 16,1 km/h (3 Bft) 97,87 %
13.08.2017 05:52 14,8 C 19,4 C 88 % 1019,4 hPa 0,0 l/m 9,6 km/h (2 Bft) S-SW 213 0 min 0,000 mm 0,0 UV-I 3 W/m 12,8 C 13,1 C 14,5 km/h (3 Bft) 97,87 %
13.08.2017 05:54 14,8 C 19,4 C 88 % 1019,4 hPa 0,0 l/m 12,2 km/h (2 Bft) SW 228 0 min 0,000 mm 0,0 UV-I 5 W/m 12,8 C 12,0 C 19,3 km/h (3 Bft) 97,87 %
13.08.2017 05:56 14,8 C 19,4 C 88 % 1019,5 hPa 0,0 l/m 7,9 km/h (2 Bft) W-SW 254 0 min 0,000 mm 0,0 UV-I 5 W/m 12,8 C 13,9 C 14,5 km/h (3 Bft) 96,23 %
13.08.2017 05:58 14,8 C 19,4 C 88 % 1019,5 hPa 0,0 l/m 9,4 km/h (2 Bft) SW 234 0 min 0,000 mm 0,0 UV-I 5 W/m 12,8 C 13,2 C 14,5 km/h (3 Bft) 100,00 %
13.08.2017 06:00 14,8 C 19,4 C 88 % 1019,4 hPa 0,0 l/m 8,4 km/h (2 Bft) S-SW 209 0 min 0,026 mm 0,0 UV-I 5 W/m 12,8 C 13,7 C 11,3 km/h (2 Bft) 96,23 %
13.08.2017 06:02 14,8 C 19,4 C 88 % 1019,4 hPa 0,0 l/m 9,4 km/h (2 Bft) SW 225 0 min 0,000 mm 0,0 UV-I 5 W/m 12,8 C 13,2 C 14,5 km/h (3 Bft) 94,29 %
13.08.2017 06:04 14,8 C 19,4 C 88 % 1019,4 hPa 0,0 l/m 10,9 km/h (2 Bft) W-SW 246 0 min 0,000 mm 0,0 UV-I 6 W/m 12,8 C 12,5 C 16,1 km/h (3 Bft) 97,96 %
13.08.2017 06:06 14,8 C 19,4 C 88 % 1019,4 hPa 0,0 l/m 9,3 km/h (2 Bft) W-SW 248 0 min 0,000 mm 0,0 UV-I 7 W/m 12,8 C 13,2 C 14,5 km/h (3 Bft) 98,00 %
13.08.2017 06:08 14,8 C 19,4 C 88 % 1019,4 hPa 0,0 l/m 10,1 km/h (2 Bft) W-SW 258 0 min 0,000 mm 0,0 UV-I 7 W/m 12,8 C 12,9 C 16,1 km/h (3 Bft) 97,73 %
13.08.2017 06:10 14,8 C 19,4 C 88 % 1019,4 hPa 0,0 l/m 10,2 km/h (2 Bft) W-SW 242 0 min 0,000 mm 0,0 UV-I 8 W/m 12,8 C 12,8 C 14,5 km/h (3 Bft) 98,11 %
13.08.2017 06:12 14,8 C 19,4 C 88 % 1019,4 hPa 0,0 l/m 9,7 km/h (2 Bft) W-SW 252 0 min 0,000 mm 0,0 UV-I 9 W/m 12,8 C 13,0 C 16,1 km/h (3 Bft) 97,87 %
13.08.2017 06:14 14,8 C 19,4 C 88 % 1019,5 hPa 0,0 l/m 10,9 km/h (2 Bft) W 260 0 min 0,000 mm 0,0 UV-I 10 W/m 12,8 C 12,5 C 16,1 km/h (3 Bft) 98,00 %
13.08.2017 06:16 14,8 C 19,4 C 88 % 1019,5 hPa 0,0 l/m 10,1 km/h (2 Bft) W-SW 241 0 min 0,000 mm 0,0 UV-I 13 W/m 12,8 C 12,9 C 12,9 km/h (3 Bft) 97,56 %
13.08.2017 06:18 14,8 C 19,4 C 88 % 1019,4 hPa 0,0 l/m 12,7 km/h (3 Bft) W-SW 257 0 min 0,000 mm 0,0 UV-I 15 W/m 12,8 C 11,8 C 17,7 km/h (3 Bft) 97,92 %
13.08.2017 06:20 14,8 C 19,4 C 88 % 1019,5 hPa 0,0 l/m 11,6 km/h (2 Bft) W-SW 246 0 min 0,000 mm 0,0 UV-I 18 W/m 12,8 C 12,2 C 17,7 km/h (3 Bft) 94,00 %
13.08.2017 06:22 14,8 C 19,4 C 88 % 1019,4 hPa 0,0 l/m 11,9 km/h (2 Bft) W-SW 250 0 min 0,000 mm 0,0 UV-I 18 W/m 12,8 C 12,1 C 19,3 km/h (3 Bft) 95,12 %
13.08.2017 06:24 14,8 C 19,4 C 88 % 1019,4 hPa 0,0 l/m 13,3 km/h (3 Bft) W-SW 239 0 min 0,000 mm 0,0 UV-I 16 W/m 12,8 C 11,5 C 22,5 km/h (4 Bft) 97,73 %
13.08.2017 06:26 14,9 C 19,4 C 88 % 1019,5 hPa 0,0 l/m 12,7 km/h (3 Bft) S-SW 212 0 min 0,000 mm 0,0 UV-I 16 W/m 12,9 C 11,9 C 22,5 km/h (4 Bft) 96,23 %
13.08.2017 06:28 14,9 C 19,4 C 87 % 1019,5 hPa 0,0 l/m 9,0 km/h (2 Bft) W-SW 256 0 min 0,000 mm 0,0 UV-I 16 W/m 12,8 C 13,5 C 14,5 km/h (3 Bft) 100,00 %
13.08.2017 06:30 14,9 C 19,4 C 87 % 1019,5 hPa 0,0 l/m 14,4 km/h (3 Bft) W-SW 240 0 min 0,000 mm 0,0 UV-I 19 W/m 12,8 C 11,3 C 20,9 km/h (4 Bft) 100,00 %
13.08.2017 06:32 14,9 C 19,4 C 87 % 1019,6 hPa 0,0 l/m 10,1 km/h (2 Bft) W-SW 258 0 min 0,000 mm 0,0 UV-I 16 W/m 12,8 C 13,0 C 12,9 km/h (3 Bft) 98,21 %
13.08.2017 06:34 14,9 C 19,4 C 87 % 1019,6 hPa 0,0 l/m 11,2 km/h (2 Bft) W-SW 258 0 min 0,000 mm 0,0 UV-I 16 W/m 12,8 C 12,5 C 17,7 km/h (3 Bft) 100,00 %
13.08.2017 06:36 14,9 C 19,4 C 87 % 1019,5 hPa 0,0 l/m 14,0 km/h (3 Bft) W-SW 252 0 min 0,000 mm 0,0 UV-I 16 W/m 12,8 C 11,4 C 17,7 km/h (3 Bft) 100,00 %
13.08.2017 06:38 15,0 C 19,4 C 87 % 1019,5 hPa 0,0 l/m 13,6 km/h (3 Bft) W 269 0 min 0,000 mm 0,0 UV-I 14 W/m 12,9 C 11,7 C 17,7 km/h (3 Bft) 98,11 %
13.08.2017 06:40 15,0 C 19,4 C 87 % 1019,5 hPa 0,0 l/m 10,8 km/h (2 Bft) W-SW 239 0 min 0,000 mm 0,0 UV-I 14 W/m 12,9 C 12,8 C 16,1 km/h (3 Bft) 100,00 %
13.08.2017 06:42 15,0 C 19,4 C 87 % 1019,5 hPa 0,0 l/m 10,9 km/h (2 Bft) SW 232 0 min 0,000 mm 0,0 UV-I 14 W/m 12,9 C 12,7 C 16,1 km/h (3 Bft) 97,56 %
13.08.2017 06:44 15,0 C 19,4 C 87 % 1019,5 hPa 0,0 l/m 10,5 km/h (2 Bft) W-SW 258 0 min 0,000 mm 0,0 UV-I 15 W/m 12,9 C 12,9 C 19,3 km/h (3 Bft) 100,00 %
13.08.2017 06:46 15,0 C 19,4 C 87 % 1019,6 hPa 0,0 l/m 10,5 km/h (2 Bft) W 267 0 min 0,000 mm 0,0 UV-I 17 W/m 12,9 C 12,9 C 14,5 km/h (3 Bft) 100,00 %
13.08.2017 06:48 15,0 C 19,4 C 87 % 1019,6 hPa 0,0 l/m 10,2 km/h (2 Bft) W-SW 248 0 min 0,000 mm 0,0 UV-I 18 W/m 12,9 C 13,0 C 14,5 km/h (3 Bft) 98,11 %
13.08.2017 06:50 15,0 C 19,4 C 87 % 1019,6 hPa 0,0 l/m 8,1 km/h (2 Bft) W-SW 250 0 min 0,000 mm 0,0 UV-I 19 W/m 12,9 C 14,0 C 12,9 km/h (3 Bft) 97,37 %
13.08.2017 06:52 15,0 C 19,4 C 87 % 1019,6 hPa 0,0 l/m 10,8 km/h (2 Bft) W-SW 258 0 min 0,000 mm 0,0 UV-I 20 W/m 12,9 C 12,8 C 16,1 km/h (3 Bft) 96,23 %
13.08.2017 06:54 15,1 C 19,4 C 87 % 1019,6 hPa 0,0 l/m 8,4 km/h (2 Bft) W 271 0 min 0,000 mm 0,0 UV-I 24 W/m 13,0 C 14,0 C 14,5 km/h (3 Bft) 97,73 %
13.08.2017 06:56 15,1 C 19,4 C 87 % 1019,6 hPa 0,0 l/m 9,2 km/h (2 Bft) W-SW 250 0 min 0,000 mm 0,0 UV-I 31 W/m 13,0 C 13,6 C 14,5 km/h (3 Bft) 98,11 %
13.08.2017 06:58 15,1 C 19,4 C 87 % 1019,6 hPa 0,0 l/m 8,7 km/h (2 Bft) SW 228 0 min 0,000 mm 0,0 UV-I 33 W/m 13,0 C 13,8 C 14,5 km/h (3 Bft) 97,44 %
13.08.2017 07:00 15,1 C 19,4 C 87 % 1019,6 hPa 0,0 l/m 6,5 km/h (2 Bft) W 263 0 min 0,025 mm 0,0 UV-I 33 W/m 13,0 C 15,1 C 11,3 km/h (2 Bft) 98,00 %
13.08.2017 07:02 15,1 C 19,4 C 87 % 1019,6 hPa 0,0 l/m 7,1 km/h (2 Bft) W 263 0 min 0,000 mm 0,0 UV-I 36 W/m 13,0 C 14,7 C 11,3 km/h (2 Bft) 95,74 %
13.08.2017 07:04 15,1 C 19,4 C 87 % 1019,6 hPa 0,0 l/m 6,1 km/h (2 Bft) SW 229 0 min 0,000 mm 0,0 UV-I 40 W/m 13,0 C 15,1 C 9,7 km/h (2 Bft) 96,23 %
13.08.2017 07:06 15,1 C 19,4 C 87 % 1019,6 hPa 0,0 l/m 8,7 km/h (2 Bft) W 260 0 min 0,000 mm 0,0 UV-I 46 W/m 13,0 C 13,8 C 12,9 km/h (3 Bft) 97,87 %
13.08.2017 07:08 15,1 C 19,4 C 87 % 1019,6 hPa 0,0 l/m 7,5 km/h (2 Bft) W-SW 252 0 min 0,000 mm 0,0 UV-I 51 W/m 13,0 C 14,5 C 12,9 km/h (3 Bft) 97,37 %
13.08.2017 07:10 15,1 C 19,4 C 87 % 1019,6 hPa 0,0 l/m 8,7 km/h (2 Bft) W-SW 244 0 min 0,000 mm 0,0 UV-I 56 W/m 13,0 C 13,8 C 12,9 km/h (3 Bft) 97,56 %
13.08.2017 07:12 15,2 C 19,4 C 87 % 1019,6 hPa 0,0 l/m 8,4 km/h (2 Bft) W 267 0 min 0,000 mm 0,0 UV-I 60 W/m 13,0 C 14,1 C 12,9 km/h (3 Bft) 97,56 %
13.08.2017 07:14 15,2 C 19,4 C 87 % 1019,7 hPa 0,0 l/m 9,5 km/h (2 Bft) W-SW 256 0 min 0,000 mm 0,0 UV-I 57 W/m 13,0 C 13,6 C 14,5 km/h (3 Bft) 98,11 %
13.08.2017 07:16 15,2 C 19,4 C 87 % 1019,7 hPa 0,0 l/m 7,1 km/h (2 Bft) W-SW 251 0 min 0,000 mm 0,0 UV-I 58 W/m 13,0 C 14,8 C 12,9 km/h (3 Bft) 98,21 %
13.08.2017 07:18 15,2 C 19,4 C 87 % 1019,7 hPa 0,0 l/m 5,6 km/h (1 Bft) W-SW 245 0 min 0,000 mm 0,0 UV-I 57 W/m 13,0 C 15,2 C 11,3 km/h (2 Bft) 98,00 %
13.08.2017 07:20 15,2 C 19,4 C 87 % 1019,7 hPa 0,0 l/m 5,3 km/h (1 Bft) W-SW 256 0 min 0,000 mm 0,0 UV-I 56 W/m 13,0 C 15,2 C 8,0 km/h (2 Bft) 97,56 %
13.08.2017 07:22 15,3 C 19,4 C 87 % 1019,8 hPa 0,0 l/m 4,5 km/h (1 Bft) W-SW 256 0 min 0,000 mm 0,0 UV-I 54 W/m 13,1 C 15,3 C 6,4 km/h (2 Bft) 93,62 %
13.08.2017 07:24 15,3 C 19,4 C 87 % 1019,8 hPa 0,0 l/m 5,0 km/h (1 Bft) W-SW 254 0 min 0,000 mm 0,0 UV-I 51 W/m 13,1 C 15,3 C 6,4 km/h (2 Bft) 98,00 %
13.08.2017 07:26 15,3 C 19,4 C 87 % 1019,7 hPa 0,0 l/m 4,5 km/h (1 Bft) SW 230 0 min 0,000 mm 0,0 UV-I 51 W/m 13,1 C 15,3 C 8,0 km/h (2 Bft) 97,37 %
13.08.2017 07:28 15,3 C 19,4 C 87 % 1019,7 hPa 0,0 l/m 4,3 km/h (1 Bft) SW 231 0 min 0,000 mm 0,0 UV-I 54 W/m 13,1 C 15,3 C 6,4 km/h (2 Bft) 98,11 %
13.08.2017 07:30 15,3 C 19,4 C 87 % 1019,8 hPa 0,0 l/m 3,5 km/h (1 Bft) SW 230 0 min 0,000 mm 0,0 UV-I 61 W/m 13,1 C 15,3 C 4,8 km/h (1 Bft) 98,11 %
13.08.2017 07:32 15,3 C 19,4 C 87 % 1019,8 hPa 0,0 l/m 3,6 km/h (1 Bft) SW 231 0 min 0,000 mm 0,0 UV-I 67 W/m 13,1 C 15,3 C 4,8 km/h (1 Bft) 100,00 %
13.08.2017 07:34 15,3 C 19,4 C 87 % 1019,8 hPa 0,0 l/m 3,6 km/h (1 Bft) SW 231 0 min 0,000 mm 0,0 UV-I 83 W/m 13,1 C 15,3 C 4,8 km/h (1 Bft) 98,44 %
13.08.2017 07:36 15,3 C 19,4 C 87 % 1019,8 hPa 0,0 l/m 4,8 km/h (1 Bft) W-SW 257 0 min 0,000 mm 0,0 UV-I 100 W/m 13,1 C 15,3 C 6,4 km/h (2 Bft) 97,78 %
13.08.2017 07:38 15,4 C 19,4 C 87 % 1019,8 hPa 0,0 l/m 5,1 km/h (1 Bft) SW 232 0 min 0,000 mm 0,0 UV-I 115 W/m 13,2 C 15,4 C 9,7 km/h (2 Bft) 95,74 %
13.08.2017 07:40 15,5 C 19,4 C 87 % 1019,8 hPa 0,0 l/m 4,4 km/h (1 Bft) W-SW 250 0 min 0,000 mm 0,0 UV-I 124 W/m 13,3 C 15,5 C 6,4 km/h (2 Bft) 100,00 %
13.08.2017 07:42 15,6 C 19,4 C 87 % 1019,8 hPa 0,0 l/m 6,2 km/h (2 Bft) W 269 0 min 0,000 mm 0,0 UV-I 124 W/m 13,4 C 15,6 C 11,3 km/h (2 Bft) 97,73 %
13.08.2017 07:44 15,6 C 19,4 C 86 % 1019,8 hPa 0,0 l/m 8,8 km/h (2 Bft) W 267 0 min 0,000 mm 0,0 UV-I 118 W/m 13,3 C 14,3 C 14,5 km/h (3 Bft) 100,00 %
13.08.2017 07:46 15,6 C 19,4 C 85 % 1019,8 hPa 0,0 l/m 6,2 km/h (2 Bft) W 271 0 min 0,000 mm 0,0 UV-I 114 W/m 13,1 C 15,6 C 9,7 km/h (2 Bft) 100,00 %
13.08.2017 07:48 15,7 C 19,4 C 86 % 1019,8 hPa 0,0 l/m 3,6 km/h (1 Bft) W 264 0 min 0,000 mm 0,0 UV-I 111 W/m 13,4 C 15,7 C 6,4 km/h (2 Bft) 98,11 %
13.08.2017 07:50 15,7 C 19,4 C 86 % 1019,9 hPa 0,0 l/m 3,8 km/h (1 Bft) W 265 0 min 0,000 mm 0,0 UV-I 113 W/m 13,4 C 15,7 C 6,4 km/h (2 Bft) 100,00 %
13.08.2017 07:52 15,7 C 19,4 C 86 % 1019,9 hPa 0,0 l/m 4,0 km/h (1 Bft) W 259 0 min 0,000 mm 0,0 UV-I 107 W/m 13,4 C 15,7 C 9,7 km/h (2 Bft) 100,00 %
13.08.2017 07:54 15,7 C 19,4 C 86 % 1019,9 hPa 0,0 l/m 5,4 km/h (1 Bft) W-SW 241 0 min 0,000 mm 0,0 UV-I 100 W/m 13,4 C 15,7 C 8,0 km/h (2 Bft) 100,00 %
13.08.2017 07:56 15,7 C 19,4 C 86 % 1020,0 hPa 0,0 l/m 4,3 km/h (1 Bft) W-SW 242 0 min 0,000 mm 0,0 UV-I 103 W/m 13,4 C 15,7 C 6,4 km/h (2 Bft) 100,00 %
13.08.2017 07:58 15,7 C 19,4 C 86 % 1020,0 hPa 0,0 l/m 3,2 km/h (1 Bft) W-SW 242 0 min 0,000 mm 0,0 UV-I 102 W/m 13,4 C 15,7 C 4,8 km/h (1 Bft) 100,00 %
13.08.2017 08:00 15,8 C 19,4 C 86 % 1020,0 hPa 0,0 l/m 3,6 km/h (1 Bft) W-SW 248 0 min 0,051 mm 0,0 UV-I 96 W/m 13,5 C 15,8 C 6,4 km/h (2 Bft) 100,00 %
13.08.2017 08:02 15,8 C 19,4 C 86 % 1020,0 hPa 0,0 l/m 4,2 km/h (1 Bft) SW 231 0 min 0,000 mm 0,0 UV-I 92 W/m 13,5 C 15,8 C 8,0 km/h (2 Bft) 100,00 %
13.08.2017 08:04 15,8 C 19,4 C 85 % 1019,9 hPa 0,0 l/m 5,6 km/h (1 Bft) W-SW 255 0 min 0,000 mm 0,0 UV-I 90 W/m 13,3 C 15,8 C 11,3 km/h (2 Bft) 100,00 %
13.08.2017 08:06 15,8 C 19,4 C 85 % 1020,0 hPa 0,0 l/m 9,2 km/h (2 Bft) W-SW 244 0 min 0,000 mm 0,0 UV-I 88 W/m 13,3 C 14,4 C 14,5 km/h (3 Bft) 100,00 %
13.08.2017 08:08 15,8 C 19,4 C 85 % 1019,9 hPa 0,0 l/m 7,3 km/h (2 Bft) W-SW 251 0 min 0,000 mm 0,0 UV-I 91 W/m 13,3 C 15,3 C 12,9 km/h (3 Bft) 100,00 %
13.08.2017 08:10 15,8 C 19,4 C 84 % 1019,9 hPa 0,0 l/m 8,7 km/h (2 Bft) W-SW 244 0 min 0,000 mm 0,0 UV-I 89 W/m 13,1 C 14,6 C 16,1 km/h (3 Bft) 100,00 %
13.08.2017 08:12 15,8 C 19,4 C 84 % 1019,9 hPa 0,0 l/m 11,0 km/h (2 Bft) W-SW 256 0 min 0,000 mm 0,0 UV-I 78 W/m 13,1 C 13,6 C 17,7 km/h (3 Bft) 100,00 %
13.08.2017 08:14 15,8 C 19,4 C 83 % 1019,9 hPa 0,0 l/m 10,3 km/h (2 Bft) W-SW 258 0 min 0,000 mm 0,0 UV-I 76 W/m 12,9 C 13,9 C 16,1 km/h (3 Bft) 100,00 %
13.08.2017 08:16 15,8 C 19,4 C 83 % 1019,9 hPa 0,0 l/m 11,9 km/h (2 Bft) W 261 0 min 0,000 mm 0,0 UV-I 76 W/m 12,9 C 13,2 C 16,1 km/h (3 Bft) 100,00 %
13.08.2017 08:18 15,8 C 19,4 C 83 % 1020,0 hPa 0,0 l/m 8,5 km/h (2 Bft) SW 219 0 min 0,000 mm 0,0 UV-I 82 W/m 12,9 C 14,7 C 14,5 km/h (3 Bft) 100,00 %
13.08.2017 08:20 15,8 C 19,4 C 83 % 1019,9 hPa 0,0 l/m 9,8 km/h (2 Bft) W-SW 258 0 min 0,000 mm 0,0 UV-I 89 W/m 12,9 C 14,1 C 14,5 km/h (3 Bft) 100,00 %
13.08.2017 08:22 15,8 C 19,4 C 83 % 1020,0 hPa 0,0 l/m 8,0 km/h (2 Bft) W-SW 243 0 min 0,000 mm 0,0 UV-I 101 W/m 12,9 C 14,9 C 14,5 km/h (3 Bft) 97,56 %
13.08.2017 08:24 15,8 C 19,4 C 83 % 1020,1 hPa 0,0 l/m 7,1 km/h (2 Bft) W-SW 254 0 min 0,000 mm 0,0 UV-I 117 W/m 12,9 C 15,4 C 11,3 km/h (2 Bft) 98,11 %
13.08.2017 08:26 15,8 C 19,4 C 83 % 1020,1 hPa 0,0 l/m 7,9 km/h (2 Bft) SW 222 0 min 0,000 mm 0,0 UV-I 121 W/m 12,9 C 15,0 C 12,9 km/h (3 Bft) 100,00 %
13.08.2017 08:28 15,8 C 19,4 C 83 % 1020,0 hPa 0,0 l/m 10,9 km/h (2 Bft) W 259 0 min 0,000 mm 0,0 UV-I 111 W/m 12,9 C 13,6 C 14,5 km/h (3 Bft) 100,00 %
13.08.2017 08:30 15,9 C 19,4 C 83 % 1020,0 hPa 0,0 l/m 9,1 km/h (2 Bft) W-SW 251 0 min 0,000 mm 0,0 UV-I 101 W/m 13,0 C 14,5 C 14,5 km/h (3 Bft) 100,00 %
13.08.2017 08:32 15,9 C 19,4 C 84 % 1020,1 hPa 0,0 l/m 8,0 km/h (2 Bft) SW 233 0 min 0,000 mm 0,5 UV-I 100 W/m 13,2 C 15,0 C 12,9 km/h (3 Bft) 100,00 %
13.08.2017 08:34 15,9 C 19,4 C 84 % 1020,1 hPa 0,0 l/m 6,2 km/h (2 Bft) W-SW 250 0 min 0,000 mm 0,5 UV-I 103 W/m 13,2 C 15,9 C 9,7 km/h (2 Bft) 100,00 %
13.08.2017 08:36 15,9 C 19,4 C 84 % 1020,1 hPa 0,0 l/m 7,0 km/h (2 Bft) SW 225 0 min 0,000 mm 0,5 UV-I 111 W/m 13,2 C 15,6 C 11,3 km/h (2 Bft) 100,00 %
13.08.2017 08:38 15,9 C 19,4 C 83 % 1020,1 hPa 0,0 l/m 6,9 km/h (2 Bft) W-SW 246 0 min 0,000 mm 0,5 UV-I 112 W/m 13,0 C 15,6 C 11,3 km/h (2 Bft) 97,87 %
13.08.2017 08:40 15,9 C 19,4 C 84 % 1020,1 hPa 0,0 l/m 10,5 km/h (2 Bft) W-SW 249 0 min 0,000 mm 0,5 UV-I 99 W/m 13,2 C 13,9 C 14,5 km/h (3 Bft) 100,00 %
13.08.2017 08:42 15,9 C 19,4 C 83 % 1020,1 hPa 0,0 l/m 10,4 km/h (2 Bft) W-SW 250 0 min 0,000 mm 0,1 UV-I 82 W/m 13,0 C 13,9 C 16,1 km/h (3 Bft) 98,00 %
13.08.2017 08:44 15,9 C 19,4 C 84 % 1020,1 hPa 0,0 l/m 5,2 km/h (1 Bft) W 268 0 min 0,000 mm 0,3 UV-I 82 W/m 13,2 C 15,9 C 8,0 km/h (2 Bft) 98,00 %
13.08.2017 08:46 15,9 C 19,4 C 83 % 1020,1 hPa 0,0 l/m 7,2 km/h (2 Bft) W-SW 254 0 min 0,000 mm 0,6 UV-I 93 W/m 13,0 C 15,5 C 12,9 km/h (3 Bft) 100,00 %
13.08.2017 08:48 15,9 C 19,4 C 84 % 1020,1 hPa 0,0 l/m 6,1 km/h (2 Bft) W 277 0 min 0,000 mm 0,6 UV-I 102 W/m 13,2 C 15,9 C 12,9 km/h (3 Bft) 97,62 %
13.08.2017 08:50 15,9 C 19,4 C 84 % 1020,2 hPa 0,0 l/m 6,5 km/h (2 Bft) W-SW 251 0 min 0,000 mm 0,6 UV-I 99 W/m 13,2 C 15,9 C 11,3 km/h (2 Bft) 94,23 %
13.08.2017 08:52 15,9 C 19,4 C 84 % 1020,2 hPa 0,0 l/m 7,1 km/h (2 Bft) W-SW 258 0 min 0,000 mm 0,6 UV-I 111 W/m 13,2 C 15,5 C 11,3 km/h (2 Bft) 100,00 %
13.08.2017 08:54 15,9 C 19,4 C 84 % 1020,1 hPa 0,0 l/m 6,1 km/h (2 Bft) SW 228 0 min 0,000 mm 0,7 UV-I 150 W/m 13,2 C 15,9 C 11,3 km/h (2 Bft) 94,83 %
13.08.2017 08:56 16,0 C 19,4 C 84 % 1020,1 hPa 0,0 l/m 5,4 km/h (1 Bft) W 275 0 min 0,000 mm 0,7 UV-I 157 W/m 13,3 C 16,0 C 9,7 km/h (2 Bft) 96,00 %
13.08.2017 08:58 16,0 C 19,4 C 84 % 1020,1 hPa 0,0 l/m 5,3 km/h (1 Bft) SW 233 0 min 0,000 mm 0,7 UV-I 134 W/m 13,3 C 16,0 C 8,0 km/h (2 Bft) 97,44 %
13.08.2017 09:00 16,0 C 19,4 C 84 % 1020,1 hPa 0,0 l/m 5,2 km/h (1 Bft) W 272 0 min 0,076 mm 0,6 UV-I 101 W/m 13,3 C 16,0 C 11,3 km/h (2 Bft) 98,11 %
13.08.2017 09:02 16,0 C 19,4 C 84 % 1020,2 hPa 0,0 l/m 4,9 km/h (1 Bft) W 267 0 min 0,000 mm 0,5 UV-I 89 W/m 13,3 C 16,0 C 6,4 km/h (2 Bft) 98,00 %
13.08.2017 09:04 16,0 C 19,4 C 84 % 1020,2 hPa 0,0 l/m 6,6 km/h (2 Bft) W-SW 254 0 min 0,000 mm 0,5 UV-I 99 W/m 13,3 C 15,9 C 11,3 km/h (2 Bft) 93,62 %
13.08.2017 09:06 16,0 C 19,4 C 84 % 1020,2 hPa 0,0 l/m 6,3 km/h (2 Bft) W 262 0 min 0,000 mm 0,5 UV-I 111 W/m 13,3 C 16,0 C 11,3 km/h (2 Bft) 97,67 %
13.08.2017 09:08 16,0 C 19,4 C 84 % 1020,3 hPa 0,0 l/m 4,7 km/h (1 Bft) W-SW 258 0 min 0,000 mm 0,5 UV-I 111 W/m 13,3 C 16,0 C 6,4 km/h (2 Bft) 97,56 %
13.08.2017 09:10 16,0 C 19,4 C 84 % 1020,3 hPa 0,0 l/m 5,7 km/h (1 Bft) W-SW 248 0 min 0,000 mm 0,5 UV-I 122 W/m 13,3 C 16,0 C 11,3 km/h (2 Bft) 98,00 %
13.08.2017 09:12 16,1 C 19,4 C 84 % 1020,2 hPa 0,0 l/m 4,2 km/h (1 Bft) W-SW 248 0 min 0,000 mm 0,7 UV-I 150 W/m 13,4 C 16,1 C 6,4 km/h (2 Bft) 98,00 %
13.08.2017 09:14 16,1 C 19,4 C 84 % 1020,2 hPa 0,0 l/m 4,1 km/h (1 Bft) W 271 0 min 0,000 mm 0,8 UV-I 154 W/m 13,4 C 16,1 C 6,4 km/h (2 Bft) 97,37 %
13.08.2017 09:16 16,1 C 19,4 C 84 % 1020,2 hPa 0,0 l/m 5,9 km/h (2 Bft) W-SW 251 0 min 0,000 mm 0,8 UV-I 161 W/m 13,4 C 16,1 C 8,0 km/h (2 Bft) 98,11 %
13.08.2017 09:18 16,2 C 19,4 C 84 % 1020,2 hPa 0,0 l/m 4,3 km/h (1 Bft) W 280 0 min 0,000 mm 1,0 UV-I 187 W/m 13,5 C 16,2 C 9,7 km/h (2 Bft) 97,87 %
13.08.2017 09:20 16,2 C 19,4 C 84 % 1020,2 hPa 0,0 l/m 4,0 km/h (1 Bft) W-SW 250 0 min 0,000 mm 1,0 UV-I 210 W/m 13,5 C 16,2 C 6,4 km/h (2 Bft) 100,00 %
13.08.2017 09:23 16,3 C 19,4 C 84 % 1020,2 hPa 0,0 l/m 2,9 km/h (1 Bft) W-SW 250 0 min 0,000 mm 1,1 UV-I 226 W/m 13,6 C 16,3 C 4,8 km/h (1 Bft) 98,80 %
13.08.2017 09:24 16,4 C 19,4 C 84 % 1020,1 hPa 0,0 l/m 4,1 km/h (1 Bft) W 279 0 min 0,000 mm 1,1 UV-I 231 W/m 13,7 C 16,4 C 6,4 km/h (2 Bft) 100,00 %
13.08.2017 09:26 16,4 C 19,4 C 84 % 1020,2 hPa 0,0 l/m 4,6 km/h (1 Bft) W 271 0 min 0,000 mm 1,1 UV-I 235 W/m 13,7 C 16,4 C 6,4 km/h (2 Bft) 100,00 %
13.08.2017 09:28 16,6 C 19,4 C 84 % 1020,2 hPa 0,0 l/m 4,1 km/h (1 Bft) W-SW 255 0 min 0,000 mm 1,1 UV-I 234 W/m 13,9 C 16,6 C 6,4 km/h (2 Bft) 96,15 %
13.08.2017 09:30 16,6 C 19,4 C 83 % 1020,3 hPa 0,0 l/m 4,7 km/h (1 Bft) W 262 0 min 0,000 mm 1,1 UV-I 230 W/m 13,7 C 16,6 C 9,7 km/h (2 Bft) 95,83 %
13.08.2017 09:32 16,6 C 19,4 C 82 % 1020,2 hPa 0,0 l/m 4,0 km/h (1 Bft) W-SW 254 0 min 0,000 mm 1,2 UV-I 239 W/m 13,5 C 16,6 C 6,4 km/h (2 Bft) 96,36 %
13.08.2017 09:34 16,6 C 19,4 C 83 % 1020,2 hPa 0,0 l/m 5,8 km/h (2 Bft) W-SW 253 0 min 0,000 mm 1,2 UV-I 244 W/m 13,7 C 16,6 C 8,0 km/h (2 Bft) 97,62 %
13.08.2017 09:36 16,7 C 19,4 C 82 % 1020,2 hPa 0,0 l/m 5,7 km/h (1 Bft) W-SW 257 0 min 0,000 mm 1,2 UV-I 229 W/m 13,6 C 16,7 C 9,7 km/h (2 Bft) 98,00 %
13.08.2017 09:38 16,7 C 19,4 C 83 % 1020,3 hPa 0,0 l/m 6,7 km/h (2 Bft) W-SW 249 0 min 0,000 mm 1,2 UV-I 221 W/m 13,8 C 16,6 C 12,9 km/h (3 Bft) 98,00 %
13.08.2017 09:40 16,7 C 19,4 C 83 % 1020,3 hPa 0,0 l/m 4,2 km/h (1 Bft) W-SW 242 0 min 0,000 mm 1,2 UV-I 221 W/m 13,8 C 16,7 C 11,3 km/h (2 Bft) 95,74 %
13.08.2017 09:42 16,7 C 19,4 C 82 % 1020,4 hPa 0,0 l/m 10,0 km/h (2 Bft) W-SW 244 0 min 0,000 mm 1,2 UV-I 231 W/m 13,6 C 15,0 C 16,1 km/h (3 Bft) 97,37 %
13.08.2017 09:44 16,8 C 19,4 C 82 % 1020,4 hPa 0,0 l/m 7,5 km/h (2 Bft) W-SW 247 0 min 0,000 mm 1,2 UV-I 232 W/m 13,7 C 16,2 C 12,9 km/h (3 Bft) 98,00 %
13.08.2017 09:46 16,8 C 19,4 C 81 % 1020,4 hPa 0,0 l/m 5,1 km/h (1 Bft) W-SW 256 0 min 0,000 mm 1,2 UV-I 227 W/m 13,5 C 16,8 C 11,3 km/h (2 Bft) 98,00 %
13.08.2017 09:48 16,8 C 19,4 C 81 % 1020,4 hPa 0,0 l/m 6,2 km/h (2 Bft) W-SW 255 0 min 0,000 mm 1,2 UV-I 227 W/m 13,5 C 16,8 C 9,7 km/h (2 Bft) 97,37 %
13.08.2017 09:50 16,8 C 19,4 C 82 % 1020,3 hPa 0,0 l/m 5,1 km/h (1 Bft) W 259 0 min 0,000 mm 1,2 UV-I 225 W/m 13,7 C 16,8 C 9,7 km/h (2 Bft) 94,34 %
13.08.2017 09:52 16,8 C 19,4 C 81 % 1020,3 hPa 0,0 l/m 5,6 km/h (1 Bft) W-SW 238 0 min 0,000 mm 1,3 UV-I 229 W/m 13,5 C 16,8 C 8,0 km/h (2 Bft) 96,00 %
13.08.2017 09:54 16,9 C 19,4 C 82 % 1020,3 hPa 0,0 l/m 4,4 km/h (1 Bft) W-SW 254 0 min 0,000 mm 1,3 UV-I 240 W/m 13,8 C 16,9 C 11,3 km/h (2 Bft) 97,56 %
13.08.2017 09:56 16,9 C 19,4 C 81 % 1020,3 hPa 0,0 l/m 6,3 km/h (2 Bft) W-SW 246 0 min 0,000 mm 1,4 UV-I 247 W/m 13,6 C 16,9 C 11,3 km/h (2 Bft) 97,87 %
13.08.2017 09:58 17,0 C 19,4 C 82 % 1020,3 hPa 0,0 l/m 4,0 km/h (1 Bft) SW 236 0 min 0,000 mm 1,5 UV-I 257 W/m 13,9 C 17,0 C 8,0 km/h (2 Bft) 98,00 %
13.08.2017 10:00 17,1 C 19,4 C 82 % 1020,3 hPa 0,0 l/m 6,9 km/h (2 Bft) W-SW 246 0 min 0,127 mm 1,4 UV-I 245 W/m 14,0 C 16,9 C 14,5 km/h (3 Bft) 97,56 %
13.08.2017 10:02 17,1 C 19,4 C 81 % 1020,3 hPa 0,0 l/m 8,2 km/h (2 Bft) W 267 0 min 0,000 mm 1,4 UV-I 234 W/m 13,8 C 16,2 C 14,5 km/h (3 Bft) 96,00 %
13.08.2017 10:04 17,1 C 19,4 C 80 % 1020,3 hPa 0,0 l/m 7,1 km/h (2 Bft) W 279 0 min 0,000 mm 1,5 UV-I 262 W/m 13,6 C 16,7 C 11,3 km/h (2 Bft) 97,73 %
13.08.2017 10:06 17,1 C 19,4 C 80 % 1020,4 hPa 0,0 l/m 4,7 km/h (1 Bft) W 262 0 min 0,000 mm 1,7 UV-I 275 W/m 13,6 C 17,1 C 6,4 km/h (2 Bft) 98,00 %
13.08.2017 10:08 17,1 C 19,4 C 80 % 1020,4 hPa 0,0 l/m 3,9 km/h (1 Bft) SW 216 0 min 0,000 mm 1,6 UV-I 261 W/m 13,6 C 17,1 C 6,4 km/h (2 Bft) 96,15 %
13.08.2017 10:10 17,1 C 19,4 C 81 % 1020,4 hPa 0,0 l/m 3,4 km/h (1 Bft) NW 323 0 min 0,000 mm 1,5 UV-I 239 W/m 13,8 C 17,1 C 8,0 km/h (2 Bft) 97,22 %
13.08.2017 10:12 17,2 C 19,4 C 80 % 1020,4 hPa 0,0 l/m 2,7 km/h (1 Bft) NW 307 0 min 0,000 mm 1,7 UV-I 256 W/m 13,7 C 17,2 C 4,8 km/h (1 Bft) 98,00 %
13.08.2017 10:14 17,2 C 19,4 C 80 % 1020,4 hPa 0,0 l/m 4,9 km/h (1 Bft) W 275 0 min 0,000 mm 1,9 UV-I 291 W/m 13,7 C 17,2 C 9,7 km/h (2 Bft) 98,00 %
13.08.2017 10:16 17,2 C 19,4 C 81 % 1020,4 hPa 0,0 l/m 4,0 km/h (1 Bft) W-SW 245 0 min 0,000 mm 2,0 UV-I 335 W/m 13,9 C 17,2 C 9,7 km/h (2 Bft) 95,74 %
13.08.2017 10:18 17,3 C 19,4 C 80 % 1020,4 hPa 0,0 l/m 8,7 km/h (2 Bft) W-SW 248 2 min 0,000 mm 2,2 UV-I 370 W/m 13,8 C 16,2 C 14,5 km/h (3 Bft) 94,34 %
13.08.2017 10:20 17,4 C 19,4 C 80 % 1020,4 hPa 0,0 l/m 6,4 km/h (2 Bft) W-SW 249 2 min 0,000 mm 2,2 UV-I 397 W/m 13,9 C 17,4 C 12,9 km/h (3 Bft) 97,56 %
13.08.2017 10:22 17,6 C 19,4 C 81 % 1020,4 hPa 0,0 l/m 5,6 km/h (1 Bft) W-SW 242 2 min 0,000 mm 2,3 UV-I 391 W/m 14,3 C 17,6 C 14,5 km/h (3 Bft) 98,11 %
13.08.2017 10:24 17,6 C 19,4 C 79 % 1020,3 hPa 0,0 l/m 8,6 km/h (2 Bft) W-NW 288 2 min 0,000 mm 2,3 UV-I 405 W/m 13,9 C 16,6 C 16,1 km/h (3 Bft) 97,73 %
13.08.2017 10:26 17,7 C 20,0 C 80 % 1020,4 hPa 0,0 l/m 4,7 km/h (1 Bft) SW 225 2 min 0,000 mm 2,3 UV-I 392 W/m 14,2 C 17,7 C 9,7 km/h (2 Bft) 94,29 %
13.08.2017 10:28 17,7 C 19,4 C 79 % 1020,4 hPa 0,0 l/m 8,8 km/h (2 Bft) W-SW 257 0 min 0,000 mm 1,9 UV-I 338 W/m 14,0 C 16,6 C 16,1 km/h (3 Bft) 98,21 %
13.08.2017 10:30 17,7 C 19,4 C 77 % 1020,4 hPa 0,0 l/m 12,4 km/h (3 Bft) SW 219 0 min 0,000 mm 1,8 UV-I 319 W/m 13,6 C 15,2 C 17,7 km/h (3 Bft) 97,73 %
13.08.2017 10:32 17,7 C 19,4 C 78 % 1020,4 hPa 0,0 l/m 10,7 km/h (2 Bft) W-SW 258 0 min 0,000 mm 1,6 UV-I 287 W/m 13,8 C 15,8 C 16,1 km/h (3 Bft) 97,87 %
13.08.2017 10:34 17,7 C 19,4 C 78 % 1020,4 hPa 0,0 l/m 7,7 km/h (2 Bft) W-SW 251 0 min 0,000 mm 1,3 UV-I 227 W/m 13,8 C 17,1 C 14,5 km/h (3 Bft) 95,45 %
13.08.2017 10:36 17,7 C 19,4 C 80 % 1020,4 hPa 0,0 l/m 1,2 km/h (1 Bft) W-SW 250 0 min 0,000 mm 1,2 UV-I 194 W/m 14,2 C 17,7 C 3,2 km/h (1 Bft) 93,62 %
13.08.2017 10:38 17,7 C 19,4 C 79 % 1020,4 hPa 0,0 l/m 0,3 km/h (0 Bft) W-SW 251 0 min 0,000 mm 1,0 UV-I 154 W/m 14,0 C 17,7 C 1,6 km/h (1 Bft) 96,23 %
13.08.2017 10:40 17,7 C 19,4 C 81 % 1020,5 hPa 0,0 l/m 5,8 km/h (2 Bft) W-NW 291 0 min 0,000 mm 1,1 UV-I 143 W/m 14,4 C 17,7 C 11,3 km/h (2 Bft) 100,00 %
13.08.2017 10:42 17,5 C 19,4 C 79 % 1020,5 hPa 0,0 l/m 4,3 km/h (1 Bft) W-SW 246 0 min 0,000 mm 1,2 UV-I 158 W/m 13,8 C 17,5 C 8,0 km/h (2 Bft) 95,74 %
13.08.2017 10:44 17,4 C 19,4 C 80 % 1020,5 hPa 0,0 l/m 3,2 km/h (1 Bft) W 275 0 min 0,000 mm 1,4 UV-I 215 W/m 13,9 C 17,4 C 9,7 km/h (2 Bft) 98,00 %
13.08.2017 10:46 17,4 C 19,4 C 81 % 1020,5 hPa 0,0 l/m 3,2 km/h (1 Bft) W-SW 246 0 min 0,000 mm 1,4 UV-I 233 W/m 14,1 C 17,4 C 8,0 km/h (2 Bft) 96,00 %
13.08.2017 10:48 17,4 C 19,4 C 81 % 1020,5 hPa 0,0 l/m 4,3 km/h (1 Bft) W 272 0 min 0,000 mm 1,3 UV-I 210 W/m 14,1 C 17,4 C 6,4 km/h (2 Bft) 96,00 %
13.08.2017 10:50 17,4 C 19,4 C 80 % 1020,5 hPa 0,0 l/m 6,3 km/h (2 Bft) W-NW 300 0 min 0,000 mm 1,3 UV-I 214 W/m 13,9 C 17,4 C 11,3 km/h (2 Bft) 100,00 %
13.08.2017 10:52 17,4 C 19,4 C 80 % 1020,5 hPa 0,0 l/m 3,2 km/h (1 Bft) W 268 0 min 0,000 mm 1,4 UV-I 217 W/m 13,9 C 17,4 C 6,4 km/h (2 Bft) 96,36 %
13.08.2017 10:54 17,5 C 19,4 C 81 % 1020,4 hPa 0,0 l/m 3,8 km/h (1 Bft) W 270 0 min 0,000 mm 1,3 UV-I 205 W/m 14,2 C 17,5 C 9,7 km/h (2 Bft) 95,83 %
13.08.2017 10:56 17,6 C 19,4 C 81 % 1020,4 hPa 0,0 l/m 5,9 km/h (2 Bft) W-SW 254 0 min 0,000 mm 1,3 UV-I 200 W/m 14,3 C 17,6 C 12,9 km/h (3 Bft) 95,74 %
13.08.2017 10:58 17,6 C 19,4 C 80 % 1020,5 hPa 0,0 l/m 6,1 km/h (2 Bft) SW 233 0 min 0,000 mm 1,4 UV-I 223 W/m 14,1 C 17,6 C 12,9 km/h (3 Bft) 97,14 %
13.08.2017 11:00 17,6 C 20,0 C 80 % 1020,5 hPa 0,0 l/m 6,5 km/h (2 Bft) W 264 0 min 0,000 mm 1,7 UV-I 254 W/m 14,1 C 17,6 C 11,3 km/h (2 Bft) 96,43 %
13.08.2017 11:02 17,6 C 20,0 C 78 % 1020,5 hPa 0,0 l/m 6,9 km/h (2 Bft) SW 219 0 min 0,153 mm 1,9 UV-I 296 W/m 13,7 C 17,4 C 12,9 km/h (3 Bft) 97,56 %
13.08.2017 11:04 17,6 C 20,0 C 79 % 1020,5 hPa 0,0 l/m 9,8 km/h (2 Bft) W-SW 251 0 min 0,000 mm 2,2 UV-I 328 W/m 13,9 C 16,1 C 17,7 km/h (3 Bft) 98,00 %
13.08.2017 11:06 17,7 C 20,0 C 78 % 1020,5 hPa 0,0 l/m 4,4 km/h (1 Bft) W-SW 245 0 min 0,000 mm 2,2 UV-I 328 W/m 13,8 C 17,7 C 11,3 km/h (2 Bft) 96,23 %
13.08.2017 11:08 17,7 C 20,0 C 79 % 1020,5 hPa 0,0 l/m 5,7 km/h (1 Bft) W 268 0 min 0,000 mm 2,2 UV-I 299 W/m 14,0 C 17,7 C 14,5 km/h (3 Bft) 97,56 %
13.08.2017 11:10 17,7 C 20,0 C 78 % 1020,5 hPa 0,0 l/m 5,4 km/h (1 Bft) W-NW 288 0 min 0,000 mm 2,3 UV-I 303 W/m 13,8 C 17,7 C 9,7 km/h (2 Bft) 98,00 %
13.08.2017 11:12 17,7 C 20,0 C 78 % 1020,4 hPa 0,0 l/m 7,4 km/h (2 Bft) SW 234 0 min 0,000 mm 2,6 UV-I 329 W/m 13,8 C 17,2 C 14,5 km/h (3 Bft) 95,12 %
13.08.2017 11:14 17,8 C 20,0 C 77 % 1020,4 hPa 0,0 l/m 8,3 km/h (2 Bft) W-NW 286 2 min 0,000 mm 3,1 UV-I 413 W/m 13,7 C 16,9 C 11,3 km/h (2 Bft) 97,87 %
13.08.2017 11:16 17,8 C 20,0 C 77 % 1020,3 hPa 0,0 l/m 5,1 km/h (1 Bft) W 268 2 min 0,000 mm 3,7 UV-I 521 W/m 13,7 C 17,8 C 6,4 km/h (2 Bft) 100,00 %
13.08.2017 11:18 18,1 C 20,0 C 78 % 1020,4 hPa 0,0 l/m 6,9 km/h (2 Bft) SW 236 2 min 0,000 mm 3,6 UV-I 549 W/m 14,2 C 17,9 C 14,5 km/h (3 Bft) 100,00 %
13.08.2017 11:20 18,2 C 20,0 C 76 % 1020,5 hPa 0,0 l/m 9,2 km/h (2 Bft) W 276 2 min 0,000 mm 3,6 UV-I 547 W/m 13,9 C 17,0 C 14,5 km/h (3 Bft) 98,11 %
13.08.2017 11:22 18,2 C 20,0 C 77 % 1020,5 hPa 0,0 l/m 6,1 km/h (2 Bft) W 265 2 min 0,000 mm 4,0 UV-I 573 W/m 14,1 C 18,2 C 11,3 km/h (2 Bft) 100,00 %
13.08.2017 11:24 18,4 C 20,0 C 78 % 1020,4 hPa 0,0 l/m 5,4 km/h (1 Bft) W-NW 298 2 min 0,000 mm 3,6 UV-I 585 W/m 14,5 C 18,4 C 9,7 km/h (2 Bft) 100,00 %
13.08.2017 11:26 18,7 C 20,0 C 79 % 1020,5 hPa 0,0 l/m 3,6 km/h (1 Bft) SW 231 2 min 0,000 mm 3,5 UV-I 527 W/m 15,0 C 18,7 C 8,0 km/h (2 Bft) 97,73 %
13.08.2017 11:28 18,9 C 20,0 C 75 % 1020,4 hPa 0,0 l/m 6,9 km/h (2 Bft) W-SW 242 2 min 0,000 mm 4,0 UV-I 656 W/m 14,4 C 18,7 C 14,5 km/h (3 Bft) 98,11 %
13.08.2017 11:30 18,9 C 20,0 C 75 % 1020,4 hPa 0,0 l/m 6,8 km/h (2 Bft) SW 229 2 min 0,000 mm 3,7 UV-I 587 W/m 14,4 C 18,7 C 14,5 km/h (3 Bft) 95,74 %
13.08.2017 11:32 18,8 C 20,0 C 75 % 1020,4 hPa 0,0 l/m 6,0 km/h (2 Bft) W-NW 293 2 min 0,000 mm 2,9 UV-I 425 W/m 14,3 C 18,8 C 12,9 km/h (3 Bft) 95,24 %
13.08.2017 11:34 18,7 C 20,0 C 75 % 1020,5 hPa 0,0 l/m 8,0 km/h (2 Bft) W 259 0 min 0,000 mm 2,4 UV-I 352 W/m 14,2 C 18,0 C 14,5 km/h (3 Bft) 100,00 %
13.08.2017 11:36 18,6 C 20,0 C 75 % 1020,5 hPa 0,0 l/m 7,3 km/h (2 Bft) W-SW 255 0 min 0,000 mm 2,5 UV-I 355 W/m 14,1 C 18,2 C 14,5 km/h (3 Bft) 98,31 %
13.08.2017 11:38 18,4 C 20,0 C 76 % 1020,4 hPa 0,0 l/m 10,7 km/h (2 Bft) W-SW 251 0 min 0,000 mm 2,2 UV-I 294 W/m 14,1 C 16,6 C 17,7 km/h (3 Bft) 100,00 %
13.08.2017 11:40 18,4 C 20,0 C 76 % 1020,4 hPa 0,0 l/m 5,7 km/h (1 Bft) W 273 0 min 0,000 mm 2,1 UV-I 268 W/m 14,1 C 18,4 C 12,9 km/h (3 Bft) 100,00 %
13.08.2017 11:42 18,3 C 20,0 C 76 % 1020,4 hPa 0,0 l/m 7,8 km/h (2 Bft) W-SW 250 0 min 0,000 mm 2,0 UV-I 259 W/m 14,0 C 17,7 C 12,9 km/h (3 Bft) 100,00 %
13.08.2017 11:44 18,3 C 20,0 C 78 % 1020,4 hPa 0,0 l/m 5,3 km/h (1 Bft) W 274 0 min 0,000 mm 2,2 UV-I 270 W/m 14,4 C 18,3 C 12,9 km/h (3 Bft) 100,00 %
13.08.2017 11:46 18,3 C 20,0 C 76 % 1020,4 hPa 0,0 l/m 6,1 km/h (2 Bft) W 262 0 min 0,000 mm 2,5 UV-I 291 W/m 14,0 C 18,3 C 14,5 km/h (3 Bft) 100,00 %
13.08.2017 11:48 18,3 C 20,0 C 76 % 1020,3 hPa 0,0 l/m 10,5 km/h (2 Bft) W-SW 250 0 min 0,000 mm 3,0 UV-I 336 W/m 14,0 C 16,6 C 19,3 km/h (3 Bft) 98,11 %
13.08.2017 11:50 18,5 C 20,0 C 78 % 1020,4 hPa 0,0 l/m 4,6 km/h (1 Bft) W 263 0 min 0,000 mm 3,2 UV-I 352 W/m 14,6 C 18,5 C 9,7 km/h (2 Bft) 100,00 %
13.08.2017 11:52 18,6 C 20,0 C 76 % 1020,3 hPa 0,0 l/m 5,3 km/h (1 Bft) W-NW 291 0 min 0,000 mm 3,3 UV-I 384 W/m 14,3 C 18,6 C 11,3 km/h (2 Bft) 100,00 %
13.08.2017 11:54 18,7 C 20,0 C 76 % 1020,4 hPa 0,0 l/m 8,8 km/h (2 Bft) W 275 0 min 0,000 mm 3,4 UV-I 380 W/m 14,4 C 17,7 C 12,9 km/h (3 Bft) 100,00 %
13.08.2017 11:56 18,7 C 20,0 C 76 % 1020,4 hPa 0,0 l/m 9,2 km/h (2 Bft) SW 236 0 min 0,000 mm 3,7 UV-I 399 W/m 14,4 C 17,5 C 12,9 km/h (3 Bft) 100,00 %
13.08.2017 11:58 18,8 C 20,0 C 75 % 1020,4 hPa 0,0 l/m 6,4 km/h (2 Bft) W-SW 256 0 min 0,000 mm 2,8 UV-I 332 W/m 14,3 C 18,8 C 11,3 km/h (2 Bft) 97,37 %
13.08.2017 12:00 18,8 C 20,0 C 76 % 1020,4 hPa 0,0 l/m 1,7 km/h (1 Bft) W 264 0 min 0,228 mm 2,4 UV-I 265 W/m 14,5 C 18,8 C 6,4 km/h (2 Bft) 98,11 %
13.08.2017 12:02 18,8 C 20,0 C 78 % 1020,3 hPa 0,0 l/m 2,5 km/h (1 Bft) W-SW 239 0 min 0,000 mm 2,1 UV-I 232 W/m 14,9 C 18,8 C 6,4 km/h (2 Bft) 100,00 %
13.08.2017 12:04 18,8 C 20,0 C 76 % 1020,3 hPa 0,0 l/m 3,6 km/h (1 Bft) SW 217 0 min 0,000 mm 2,6 UV-I 304 W/m 14,5 C 18,8 C 8,0 km/h (2 Bft) 100,00 %
13.08.2017 12:06 18,8 C 20,0 C 77 % 1020,3 hPa 0,0 l/m 3,1 km/h (1 Bft) W-NW 302 0 min 0,000 mm 4,4 UV-I 343 W/m 14,7 C 18,8 C 11,3 km/h (2 Bft) 100,00 %
13.08.2017 12:08 19,0 C 20,0 C 76 % 1020,3 hPa 0,0 l/m 3,0 km/h (1 Bft) W 274 0 min 0,000 mm 3,1 UV-I 369 W/m 14,7 C 19,0 C 6,4 km/h (2 Bft) 100,00 %
13.08.2017 12:10 19,0 C 20,0 C 75 % 1020,4 hPa 0,0 l/m 7,2 km/h (2 Bft) W 271 0 min 0,000 mm 3,0 UV-I 384 W/m 14,5 C 18,6 C 11,3 km/h (2 Bft) 98,00 %
13.08.2017 12:12 19,0 C 20,0 C 76 % 1020,3 hPa 0,0 l/m 6,1 km/h (2 Bft) W 261 0 min 0,000 mm 2,5 UV-I 331 W/m 14,7 C 19,0 C 12,9 km/h (3 Bft) 100,00 %
13.08.2017 12:14 18,9 C 20,0 C 75 % 1020,3 hPa 0,0 l/m 6,3 km/h (2 Bft) W-SW 246 0 min 0,000 mm 2,4 UV-I 312 W/m 14,4 C 18,9 C 12,9 km/h (3 Bft) 100,00 %
13.08.2017 12:16 18,9 C 20,0 C 75 % 1020,3 hPa 0,0 l/m 9,1 km/h (2 Bft) SW 232 0 min 0,000 mm 2,4 UV-I 308 W/m 14,4 C 17,8 C 17,7 km/h (3 Bft) 100,00 %
13.08.2017 12:18 18,9 C 20,0 C 76 % 1020,3 hPa 0,0 l/m 5,6 km/h (1 Bft) W-SW 242 0 min 0,000 mm 2,5 UV-I 310 W/m 14,6 C 18,9 C 11,3 km/h (2 Bft) 100,00 %
13.08.2017 12:20 18,8 C 20,0 C 75 % 1020,3 hPa 0,0 l/m 2,3 km/h (1 Bft) NW 304 0 min 0,000 mm 3,1 UV-I 353 W/m 14,3 C 18,8 C 4,8 km/h (1 Bft) 100,00 %
13.08.2017 12:22 18,8 C 20,0 C 78 % 1020,2 hPa 0,0 l/m 2,8 km/h (1 Bft) S 188 0 min 0,000 mm 3,7 UV-I 367 W/m 14,9 C 18,8 C 6,4 km/h (2 Bft) 100,00 %
13.08.2017 12:24 18,9 C 20,0 C 76 % 1020,2 hPa 0,0 l/m 6,5 km/h (2 Bft) W-SW 256 0 min 0,000 mm 4,5 UV-I 369 W/m 14,6 C 18,9 C 11,3 km/h (2 Bft) 100,00 %
13.08.2017 12:26 18,9 C 20,0 C 77 % 1020,2 hPa 0,0 l/m 1,9 km/h (1 Bft) NW 306 0 min 0,000 mm 4,1 UV-I 369 W/m 14,8 C 18,9 C 4,8 km/h (1 Bft) 100,00 %
13.08.2017 12:28 19,1 C 20,0 C 79 % 1020,2 hPa 0,0 l/m 2,5 km/h (1 Bft) SW 234 0 min 0,000 mm 3,5 UV-I 380 W/m 15,4 C 19,1 C 6,4 km/h (2 Bft) 97,87 %
13.08.2017 12:30 19,1 C 20,0 C 75 % 1020,2 hPa 0,0 l/m 8,0 km/h (2 Bft) W 261 0 min 0,000 mm 3,2 UV-I 411 W/m 14,6 C 18,4 C 11,3 km/h (2 Bft) 100,00 %
13.08.2017 12:32 19,0 C 20,0 C 75 % 1020,2 hPa 0,0 l/m 3,3 km/h (1 Bft) W 269 0 min 0,000 mm 3,2 UV-I 374 W/m 14,5 C 19,0 C 9,7 km/h (2 Bft) 100,00 %
13.08.2017 12:34 18,9 C 20,0 C 75 % 1020,2 hPa 0,0 l/m 2,7 km/h (1 Bft) W-SW 257 0 min 0,000 mm 2,2 UV-I 287 W/m 14,4 C 18,9 C 6,4 km/h (2 Bft) 100,00 %
13.08.2017 12:36 18,9 C 20,0 C 75 % 1020,2 hPa 0,0 l/m 6,0 km/h (2 Bft) W 265 0 min 0,000 mm 2,0 UV-I 256 W/m 14,4 C 18,9 C 9,7 km/h (2 Bft) 100,00 %
13.08.2017 12:38 18,9 C 20,0 C 76 % 1020,2 hPa 0,0 l/m 4,3 km/h (1 Bft) SW 234 0 min 0,000 mm 2,9 UV-I 332 W/m 14,6 C 18,9 C 6,4 km/h (2 Bft) 96,00 %
13.08.2017 12:40 18,9 C 20,0 C 76 % 1020,2 hPa 0,0 l/m 5,8 km/h (2 Bft) W-SW 246 0 min 0,000 mm 4,6 UV-I 390 W/m 14,6 C 18,9 C 11,3 km/h (2 Bft) 98,11 %
13.08.2017 12:42 19,1 C 20,0 C 74 % 1020,1 hPa 0,0 l/m 4,6 km/h (1 Bft) SW 225 2 min 0,000 mm 4,5 UV-I 476 W/m 14,4 C 19,1 C 11,3 km/h (2 Bft) 97,87 %
13.08.2017 12:44 19,4 C 20,0 C 76 % 1020,1 hPa 0,0 l/m 1,7 km/h (1 Bft) W-SW 252 2 min 0,000 mm 4,6 UV-I 491 W/m 15,1 C 19,4 C 4,8 km/h (1 Bft) 97,37 %
13.08.2017 12:46 19,4 C 20,0 C 75 % 1020,1 hPa 0,0 l/m 2,7 km/h (1 Bft) W 281 0 min 0,000 mm 3,0 UV-I 297 W/m 14,8 C 19,4 C 6,4 km/h (2 Bft) 98,11 %
13.08.2017 12:48 19,3 C 20,0 C 75 % 1020,1 hPa 0,0 l/m 3,0 km/h (1 Bft) W 271 0 min 0,000 mm 2,6 UV-I 250 W/m 14,8 C 19,3 C 4,8 km/h (1 Bft) 97,62 %
13.08.2017 12:50 19,2 C 20,0 C 74 % 1020,1 hPa 0,0 l/m 5,0 km/h (1 Bft) W 261 0 min 0,000 mm 2,6 UV-I 232 W/m 14,4 C 19,2 C 9,7 km/h (2 Bft) 98,00 %
13.08.2017 12:52 19,3 C 20,0 C 76 % 1020,1 hPa 0,0 l/m 3,5 km/h (1 Bft) W 267 0 min 0,000 mm 3,2 UV-I 324 W/m 15,0 C 19,3 C 6,4 km/h (2 Bft) 96,15 %
13.08.2017 12:54 19,4 C 20,0 C 77 % 1020,1 hPa 0,0 l/m 3,5 km/h (1 Bft) NW 305 0 min 0,000 mm 3,5 UV-I 412 W/m 15,3 C 19,4 C 9,7 km/h (2 Bft) 97,44 %
13.08.2017 12:56 19,4 C 20,0 C 76 % 1020,1 hPa 0,0 l/m 2,5 km/h (1 Bft) NW 314 0 min 0,000 mm 3,5 UV-I 383 W/m 15,1 C 19,4 C 6,4 km/h (2 Bft) 97,87 %
13.08.2017 12:58 19,4 C 20,0 C 74 % 1020,2 hPa 0,0 l/m 3,0 km/h (1 Bft) W-NW 303 0 min 0,000 mm 3,6 UV-I 371 W/m 14,6 C 19,4 C 6,4 km/h (2 Bft) 98,00 %
13.08.2017 13:00 19,4 C 20,0 C 75 % 1020,2 hPa 0,0 l/m 1,7 km/h (1 Bft) W-NW 296 0 min 0,254 mm 3,4 UV-I 346 W/m 14,8 C 19,4 C 4,8 km/h (1 Bft) 97,87 %
13.08.2017 13:02 19,4 C 20,0 C 75 % 1020,1 hPa 0,0 l/m 1,2 km/h (1 Bft) W-NW 296 0 min 0,000 mm 3,2 UV-I 364 W/m 14,8 C 19,4 C 3,2 km/h (1 Bft) 94,00 %
13.08.2017 13:04 19,5 C 20,0 C 75 % 1020,1 hPa 0,0 l/m 1,6 km/h (1 Bft) W-NW 287 0 min 0,000 mm 3,5 UV-I 399 W/m 14,9 C 19,5 C 6,4 km/h (2 Bft) 97,37 %
13.08.2017 13:06 19,5 C 20,0 C 73 % 1020,1 hPa 0,0 l/m 6,0 km/h (2 Bft) W-NW 290 0 min 0,000 mm 4,0 UV-I 427 W/m 14,5 C 19,5 C 12,9 km/h (3 Bft) 97,87 %
13.08.2017 13:08 19,5 C 20,0 C 74 % 1020,1 hPa 0,0 l/m 2,1 km/h (1 Bft) W-NW 288 2 min 0,000 mm 4,2 UV-I 566 W/m 14,7 C 19,5 C 6,4 km/h (2 Bft) 95,74 %
13.08.2017 13:10 19,6 C 20,0 C 74 % 1020,0 hPa 0,0 l/m 4,8 km/h (1 Bft) W-NW 302 0 min 0,000 mm 4,4 UV-I 404 W/m 14,8 C 19,6 C 8,0 km/h (2 Bft) 98,11 %
13.08.2017 13:12 19,6 C 20,0 C 74 % 1020,1 hPa 0,0 l/m 3,7 km/h (1 Bft) W 276 0 min 0,000 mm 3,9 UV-I 450 W/m 14,8 C 19,6 C 6,4 km/h (2 Bft) 100,00 %
13.08.2017 13:14 19,7 C 20,0 C 76 % 1020,0 hPa 0,0 l/m 2,8 km/h (1 Bft) NW 313 0 min 0,000 mm 3,5 UV-I 423 W/m 15,3 C 19,7 C 11,3 km/h (2 Bft) 97,87 %
13.08.2017 13:16 19,7 C 20,0 C 73 % 1020,0 hPa 0,0 l/m 2,6 km/h (1 Bft) N 360 0 min 0,000 mm 3,1 UV-I 395 W/m 14,7 C 19,7 C 6,4 km/h (2 Bft) 100,00 %
13.08.2017 13:18 19,7 C 20,0 C 73 % 1020,0 hPa 0,0 l/m 1,3 km/h (1 Bft) W-NW 298 0 min 0,000 mm 2,6 UV-I 332 W/m 14,7 C 19,7 C 3,2 km/h (1 Bft) 100,00 %
13.08.2017 13:20 19,7 C 20,0 C 74 % 1020,0 hPa 0,0 l/m 4,1 km/h (1 Bft) N 11 0 min 0,000 mm 2,2 UV-I 277 W/m 14,9 C 19,7 C 6,4 km/h (2 Bft) 100,00 %
13.08.2017 13:22 19,7 C 20,0 C 74 % 1020,0 hPa 0,0 l/m 2,1 km/h (1 Bft) W-NW 300 0 min 0,000 mm 1,6 UV-I 204 W/m 14,9 C 19,7 C 4,8 km/h (1 Bft) 100,00 %
13.08.2017 13:24 19,6 C 20,0 C 75 % 1020,0 hPa 0,0 l/m 1,9 km/h (1 Bft) W 273 0 min 0,000 mm 1,6 UV-I 201 W/m 15,0 C 19,6 C 3,2 km/h (1 Bft) 100,00 %
13.08.2017 13:26 19,6 C 20,0 C 74 % 1020,0 hPa 0,0 l/m 4,6 km/h (1 Bft) W-NW 283 0 min 0,000 mm 2,2 UV-I 257 W/m 14,8 C 19,6 C 9,7 km/h (2 Bft) 100,00 %
13.08.2017 13:28 19,6 C 20,0 C 74 % 1020,0 hPa 0,0 l/m 4,8 km/h (1 Bft) W-SW 252 0 min 0,000 mm 3,7 UV-I 365 W/m 14,8 C 19,6 C 9,7 km/h (2 Bft) 100,00 %
13.08.2017 13:30 19,6 C 20,0 C 73 % 1020,0 hPa 0,0 l/m 4,1 km/h (1 Bft) W-SW 245 0 min 0,000 mm 3,8 UV-I 396 W/m 14,6 C 19,6 C 8,0 km/h (2 Bft) 100,00 %
13.08.2017 13:32 19,8 C 20,0 C 74 % 1020,0 hPa 0,0 l/m 4,8 km/h (1 Bft) W 274 2 min 0,000 mm 5,3 UV-I 589 W/m 15,0 C 19,8 C 6,4 km/h (2 Bft) 98,00 %
13.08.2017 13:34 20,1 C 20,0 C 74 % 1020,0 hPa 0,0 l/m 5,1 km/h (1 Bft) W 278 2 min 0,000 mm 4,5 UV-I 885 W/m 15,3 C 20,1 C 8,0 km/h (2 Bft) 100,00 %
13.08.2017 13:36 20,2 C 20,0 C 73 % 1020,0 hPa 0,0 l/m 5,3 km/h (1 Bft) NW 312 0 min 0,000 mm 3,1 UV-I 384 W/m 15,2 C 20,2 C 6,4 km/h (2 Bft) 100,00 %
13.08.2017 13:38 20,2 C 20,0 C 74 % 1020,0 hPa 0,0 l/m 2,6 km/h (1 Bft) NW 321 0 min 0,000 mm 2,4 UV-I 301 W/m 15,4 C 20,2 C 8,0 km/h (2 Bft) 100,00 %
13.08.2017 13:40 20,1 C 20,0 C 73 % 1020,0 hPa 0,0 l/m 4,5 km/h (1 Bft) N-NW 347 0 min 0,000 mm 2,0 UV-I 247 W/m 15,1 C 20,1 C 11,3 km/h (2 Bft) 96,23 %
13.08.2017 13:42 19,8 C 20,0 C 73 % 1020,0 hPa 0,0 l/m 1,3 km/h (1 Bft) N 355 0 min 0,000 mm 2,1 UV-I 255 W/m 14,8 C 19,8 C 8,0 km/h (2 Bft) 100,00 %
13.08.2017 13:44 19,7 C 20,0 C 76 % 1019,9 hPa 0,0 l/m 1,7 km/h (1 Bft) N 349 0 min 0,000 mm 2,3 UV-I 269 W/m 15,3 C 19,7 C 6,4 km/h (2 Bft) 100,00 %
13.08.2017 13:46 19,7 C 20,0 C 76 % 1020,0 hPa 0,0 l/m 0,8 km/h (0 Bft) W-NW 296 0 min 0,000 mm 2,2 UV-I 261 W/m 15,3 C 19,7 C 3,2 km/h (1 Bft) 100,00 %
13.08.2017 13:48 19,7 C 20,0 C 76 % 1019,9 hPa 0,0 l/m 2,3 km/h (1 Bft) N-NW 343 0 min 0,000 mm 2,0 UV-I 245 W/m 15,3 C 19,7 C 6,4 km/h (2 Bft) 100,00 %
13.08.2017 13:50 19,6 C 20,0 C 76 % 1020,0 hPa 0,0 l/m 3,3 km/h (1 Bft) NW 311 0 min 0,000 mm 2,0 UV-I 251 W/m 15,2 C 19,6 C 9,7 km/h (2 Bft) 100,00 %
13.08.2017 13:52 19,5 C 20,0 C 76 % 1020,0 hPa 0,0 l/m 3,2 km/h (1 Bft) N-NO 25 0 min 0,000 mm 2,1 UV-I 252 W/m 15,2 C 19,5 C 6,4 km/h (2 Bft) 98,00 %
13.08.2017 13:54 19,5 C 20,0 C 76 % 1020,0 hPa 0,0 l/m 2,2 km/h (1 Bft) NW 315 0 min 0,000 mm 1,9 UV-I 237 W/m 15,2 C 19,5 C 4,8 km/h (1 Bft) 97,87 %
13.08.2017 13:56 19,5 C 20,0 C 75 % 1020,0 hPa 0,0 l/m 2,5 km/h (1 Bft) NW 324 0 min 0,000 mm 1,9 UV-I 230 W/m 14,9 C 19,5 C 6,4 km/h (2 Bft) 98,00 %
13.08.2017 13:58 19,5 C 20,0 C 76 % 1020,0 hPa 0,0 l/m 1,2 km/h (1 Bft) NW 325 0 min 0,000 mm 1,9 UV-I 232 W/m 15,2 C 19,5 C 4,8 km/h (1 Bft) 97,37 %
13.08.2017 14:00 19,5 C 20,0 C 75 % 1020,0 hPa 0,0 l/m 4,4 km/h (1 Bft) NW 315 0 min 0,203 mm 1,9 UV-I 230 W/m 14,9 C 19,5 C 9,7 km/h (2 Bft) 96,23 %
13.08.2017 14:02 19,5 C 20,0 C 75 % 1020,0 hPa 0,0 l/m 2,9 km/h (1 Bft) N-NW 333 0 min 0,000 mm 1,7 UV-I 213 W/m 14,9 C 19,5 C 6,4 km/h (2 Bft) 96,00 %
13.08.2017 14:04 19,5 C 20,0 C 76 % 1020,0 hPa 0,0 l/m 1,4 km/h (1 Bft) NW 317 0 min 0,000 mm 1,6 UV-I 192 W/m 15,2 C 19,5 C 8,0 km/h (2 Bft) 97,87 %
13.08.2017 14:06 19,4 C 20,0 C 77 % 1020,0 hPa 0,0 l/m 3,3 km/h (1 Bft) NW 312 0 min 0,000 mm 1,4 UV-I 174 W/m 15,3 C 19,4 C 6,4 km/h (2 Bft) 97,22 %
13.08.2017 14:08 19,4 C 20,0 C 78 % 1020,0 hPa 0,0 l/m 2,8 km/h (1 Bft) N 11 0 min 0,000 mm 1,3 UV-I 161 W/m 15,5 C 19,4 C 6,4 km/h (2 Bft) 98,18 %
13.08.2017 14:10 19,3 C 20,0 C 76 % 1020,0 hPa 0,0 l/m 5,0 km/h (1 Bft) W-NW 292 0 min 0,000 mm 1,2 UV-I 156 W/m 15,0 C 19,3 C 8,0 km/h (2 Bft) 97,56 %
13.08.2017 14:12 19,2 C 20,0 C 77 % 1020,0 hPa 0,0 l/m 4,1 km/h (1 Bft) N 9 0 min 0,000 mm 1,4 UV-I 178 W/m 15,1 C 19,2 C 11,3 km/h (2 Bft) 96,23 %
13.08.2017 14:14 19,2 C 20,0 C 78 % 1020,0 hPa 0,0 l/m 3,7 km/h (1 Bft) N 355 0 min 0,000 mm 1,8 UV-I 236 W/m 15,3 C 19,2 C 6,4 km/h (2 Bft) 98,00 %
13.08.2017 14:16 19,1 C 20,0 C 79 % 1020,0 hPa 0,0 l/m 2,6 km/h (1 Bft) N-NW 337 0 min 0,000 mm 2,2 UV-I 296 W/m 15,4 C 19,1 C 8,0 km/h (2 Bft) 97,56 %
13.08.2017 14:18 19,2 C 20,0 C 81 % 1020,0 hPa 0,0 l/m 3,5 km/h (1 Bft) N 355 0 min 0,000 mm 2,4 UV-I 311 W/m 15,9 C 19,2 C 8,0 km/h (2 Bft) 95,74 %
13.08.2017 14:20 19,2 C 20,0 C 81 % 1020,0 hPa 0,0 l/m 2,7 km/h (1 Bft) N-NW 327 0 min 0,000 mm 2,3 UV-I 303 W/m 15,9 C 19,2 C 4,8 km/h (1 Bft) 98,11 %
13.08.2017 14:22 19,2 C 20,0 C 79 % 1019,9 hPa 0,0 l/m 3,1 km/h (1 Bft) N 5 0 min 0,000 mm 2,5 UV-I 324 W/m 15,5 C 19,2 C 6,4 km/h (2 Bft) 97,37 %
13.08.2017 14:24 19,3 C 20,0 C 81 % 1019,9 hPa 0,0 l/m 2,6 km/h (1 Bft) N-NO 24 0 min 0,000 mm 2,9 UV-I 382 W/m 16,0 C 19,3 C 6,4 km/h (2 Bft) 96,00 %
13.08.2017 14:26 19,6 C 20,0 C 81 % 1019,9 hPa 0,0 l/m 4,0 km/h (1 Bft) N-NO 17 0 min 0,000 mm 4,8 UV-I 390 W/m 16,2 C 19,6 C 11,3 km/h (2 Bft) 98,00 %
13.08.2017 14:28 19,8 C 20,0 C 80 % 1019,8 hPa 0,0 l/m 4,9 km/h (1 Bft) N-NO 23 0 min 0,000 mm 3,5 UV-I 377 W/m 16,2 C 19,8 C 9,7 km/h (2 Bft) 97,37 %
13.08.2017 14:30 19,7 C 20,0 C 76 % 1019,8 hPa 0,0 l/m 4,4 km/h (1 Bft) N-NO 22 0 min 0,000 mm 3,3 UV-I 340 W/m 15,3 C 19,7 C 8,0 km/h (2 Bft) 95,45 %
13.08.2017 14:32 19,6 C 20,0 C 77 % 1019,8 hPa 0,0 l/m 3,0 km/h (1 Bft) NO 34 0 min 0,000 mm 3,3 UV-I 322 W/m 15,5 C 19,6 C 8,0 km/h (2 Bft) 98,11 %
13.08.2017 14:34 19,6 C 20,0 C 78 % 1019,8 hPa 0,0 l/m 1,4 km/h (1 Bft) N 9 0 min 0,000 mm 3,3 UV-I 310 W/m 15,7 C 19,6 C 3,2 km/h (1 Bft) 96,00 %
13.08.2017 14:36 19,6 C 20,0 C 78 % 1019,7 hPa 0,0 l/m 1,4 km/h (1 Bft) N 355 0 min 0,000 mm 4,4 UV-I 315 W/m 15,7 C 19,6 C 4,8 km/h (1 Bft) 94,00 %
13.08.2017 14:38 19,6 C 20,0 C 78 % 1019,7 hPa 0,0 l/m 3,6 km/h (1 Bft) N-NO 17 2 min 0,000 mm 3,9 UV-I 445 W/m 15,7 C 19,6 C 6,4 km/h (2 Bft) 92,11 %
13.08.2017 14:40 19,9 C 20,0 C 80 % 1019,7 hPa 0,0 l/m 4,2 km/h (1 Bft) NO 49 2 min 0,000 mm 5,5 UV-I 712 W/m 16,3 C 19,9 C 6,4 km/h (2 Bft) 95,74 %
13.08.2017 14:42 20,2 C 20,0 C 79 % 1019,7 hPa 0,0 l/m 3,7 km/h (1 Bft) NO 41 2 min 0,000 mm 5,5 UV-I 839 W/m 16,4 C 20,2 C 6,4 km/h (2 Bft) 94,00 %
13.08.2017 14:44 20,3 C 20,0 C 74 % 1019,7 hPa 0,0 l/m 2,3 km/h (1 Bft) N-NO 26 2 min 0,000 mm 5,5 UV-I 814 W/m 15,5 C 20,3 C 6,4 km/h (2 Bft) 95,56 %
13.08.2017 14:46 20,4 C 20,0 C 77 % 1019,7 hPa 0,0 l/m 5,0 km/h (1 Bft) N 11 2 min 0,000 mm 5,4 UV-I 801 W/m 16,2 C 20,4 C 6,4 km/h (2 Bft) 96,00 %
13.08.2017 14:48 20,4 C 20,0 C 75 % 1019,6 hPa 0,0 l/m 2,0 km/h (1 Bft) N-NO 22 2 min 0,000 mm 5,3 UV-I 790 W/m 15,8 C 20,4 C 4,8 km/h (1 Bft) 95,12 %
13.08.2017 14:50 20,6 C 20,0 C 75 % 1019,6 hPa 0,0 l/m 5,8 km/h (2 Bft) NO 55 2 min 0,000 mm 5,3 UV-I 794 W/m 16,0 C 20,6 C 9,7 km/h (2 Bft) 94,92 %
13.08.2017 14:52 20,8 C 20,0 C 78 % 1019,6 hPa 0,0 l/m 2,5 km/h (1 Bft) N 355 2 min 0,000 mm 5,4 UV-I 840 W/m 16,8 C 20,8 C 6,4 km/h (2 Bft) 97,56 %
13.08.2017 14:54 20,8 C 20,6 C 73 % 1019,6 hPa 0,0 l/m 1,0 km/h (0 Bft) N-NW 332 2 min 0,000 mm 5,3 UV-I 843 W/m 15,8 C 20,8 C 3,2 km/h (1 Bft) 92,45 %
13.08.2017 14:56 20,8 C 20,6 C 74 % 1019,7 hPa 0,0 l/m 3,0 km/h (1 Bft) NW 321 2 min 0,000 mm 5,2 UV-I 783 W/m 16,0 C 20,8 C 4,8 km/h (1 Bft) 95,12 %
13.08.2017 14:58 20,7 C 20,6 C 72 % 1019,6 hPa 0,0 l/m 2,0 km/h (1 Bft) NW 320 2 min 0,000 mm 4,1 UV-I 819 W/m 15,5 C 20,7 C 3,2 km/h (1 Bft) 97,56 %
13.08.2017 15:00 20,7 C 20,6 C 74 % 1019,6 hPa 0,0 l/m 3,7 km/h (1 Bft) NW 313 2 min 0,280 mm 4,5 UV-I 819 W/m 15,9 C 20,7 C 8,0 km/h (2 Bft) 94,64 %
13.08.2017 15:02 20,8 C 20,6 C 74 % 1019,6 hPa 0,0 l/m 1,6 km/h (1 Bft) N-NW 342 2 min 0,000 mm 5,1 UV-I 840 W/m 16,0 C 20,8 C 6,4 km/h (2 Bft) 95,12 %
13.08.2017 15:04 21,1 C 20,6 C 75 % 1019,6 hPa 0,0 l/m 2,5 km/h (1 Bft) W-SW 251 2 min 0,000 mm 4,6 UV-I 755 W/m 16,5 C 21,1 C 6,4 km/h (2 Bft) 96,00 %
13.08.2017 15:06 21,1 C 20,6 C 74 % 1019,6 hPa 0,0 l/m 2,1 km/h (1 Bft) W-NW 290 2 min 0,000 mm 4,2 UV-I 569 W/m 16,3 C 21,1 C 6,4 km/h (2 Bft) 95,74 %
13.08.2017 15:08 20,9 C 20,6 C 69 % 1019,5 hPa 0,0 l/m 2,2 km/h (1 Bft) W-NW 287 2 min 0,000 mm 4,7 UV-I 565 W/m 15,0 C 20,9 C 4,8 km/h (1 Bft) 94,00 %
13.08.2017 15:10 20,9 C 20,6 C 73 % 1019,5 hPa 0,0 l/m 3,7 km/h (1 Bft) SW 233 2 min 0,000 mm 4,6 UV-I 832 W/m 15,9 C 20,9 C 8,0 km/h (2 Bft) 97,37 %
13.08.2017 15:12 20,9 C 20,6 C 70 % 1019,5 hPa 0,0 l/m 4,9 km/h (1 Bft) W-NW 290 2 min 0,000 mm 3,0 UV-I 584 W/m 15,2 C 20,9 C 11,3 km/h (2 Bft) 98,11 %
13.08.2017 15:14 20,7 C 20,6 C 70 % 1019,5 hPa 0,0 l/m 1,9 km/h (1 Bft) W-NW 298 0 min 0,000 mm 2,9 UV-I 268 W/m 15,0 C 20,7 C 6,4 km/h (2 Bft) 97,37 %
13.08.2017 15:16 20,6 C 20,6 C 71 % 1019,5 hPa 0,0 l/m 0,7 km/h (0 Bft) W-NW 298 0 min 0,000 mm 3,0 UV-I 310 W/m 15,2 C 20,6 C 3,2 km/h (1 Bft) 100,00 %
13.08.2017 15:18 20,6 C 20,6 C 73 % 1019,5 hPa 0,0 l/m 3,3 km/h (1 Bft) W 278 0 min 0,000 mm 3,0 UV-I 308 W/m 15,6 C 20,6 C 6,4 km/h (2 Bft) 100,00 %
13.08.2017 15:20 20,6 C 20,6 C 72 % 1019,5 hPa 0,0 l/m 5,1 km/h (1 Bft) W 275 0 min 0,000 mm 2,7 UV-I 302 W/m 15,4 C 20,6 C 9,7 km/h (2 Bft) 100,00 %
13.08.2017 15:23 20,6 C 20,6 C 71 % 1019,5 hPa 0,0 l/m 3,1 km/h (1 Bft) W 278 0 min 0,000 mm 2,6 UV-I 270 W/m 15,2 C 20,6 C 6,4 km/h (2 Bft) 98,39 %
13.08.2017 15:24 20,5 C 20,6 C 72 % 1019,5 hPa 0,0 l/m 3,9 km/h (1 Bft) W 277 0 min 0,000 mm 2,6 UV-I 283 W/m 15,3 C 20,5 C 4,8 km/h (1 Bft) 100,00 %
13.08.2017 15:26 20,5 C 20,6 C 72 % 1019,5 hPa 0,0 l/m 4,3 km/h (1 Bft) SW 223 0 min 0,000 mm 2,7 UV-I 303 W/m 15,3 C 20,5 C 6,4 km/h (2 Bft) 98,15 %
13.08.2017 15:28 20,6 C 20,6 C 72 % 1019,5 hPa 0,0 l/m 7,1 km/h (2 Bft) W-SW 250 2 min 0,000 mm 3,1 UV-I 390 W/m 15,4 C 20,3 C 11,3 km/h (2 Bft) 100,00 %
13.08.2017 15:30 20,6 C 20,6 C 71 % 1019,5 hPa 0,0 l/m 5,0 km/h (1 Bft) W-SW 249 0 min 0,000 mm 2,8 UV-I 370 W/m 15,2 C 20,6 C 8,0 km/h (2 Bft) 100,00 %
13.08.2017 15:33 20,6 C 20,6 C 72 % 1019,5 hPa 0,0 l/m 3,0 km/h (1 Bft) W-SW 249 0 min 0,000 mm 2,4 UV-I 348 W/m 15,4 C 20,6 C 8,0 km/h (2 Bft) 98,11 %
13.08.2017 15:34 20,7 C 20,6 C 71 % 1019,5 hPa 0,0 l/m 4,4 km/h (1 Bft) W-SW 250 1 min 0,000 mm 2,4 UV-I 406 W/m 15,2 C 20,7 C 6,4 km/h (2 Bft) 100,00 %
13.08.2017 15:36 20,6 C 20,6 C 71 % 1019,5 hPa 0,0 l/m 2,8 km/h (1 Bft) W-SW 250 2 min 0,000 mm 2,6 UV-I 444 W/m 15,2 C 20,6 C 4,8 km/h (1 Bft) 100,00 %
13.08.2017 15:38 20,7 C 20,6 C 71 % 1019,5 hPa 0,0 l/m 2,4 km/h (1 Bft) W-NW 301 2 min 0,000 mm 2,7 UV-I 452 W/m 15,2 C 20,7 C 3,2 km/h (1 Bft) 100,00 %
13.08.2017 15:40 20,8 C 20,6 C 71 % 1019,5 hPa 0,0 l/m 2,6 km/h (1 Bft) NW 318 2 min 0,000 mm 2,4 UV-I 383 W/m 15,3 C 20,8 C 6,4 km/h (2 Bft) 100,00 %
13.08.2017 15:42 20,8 C 20,6 C 71 % 1019,5 hPa 0,0 l/m 2,6 km/h (1 Bft) N-NW 329 0 min 0,000 mm 2,2 UV-I 305 W/m 15,3 C 20,8 C 4,8 km/h (1 Bft) 100,00 %
13.08.2017 15:44 20,8 C 20,6 C 72 % 1019,5 hPa 0,0 l/m 3,6 km/h (1 Bft) N-NO 15 0 min 0,000 mm 2,1 UV-I 249 W/m 15,6 C 20,8 C 8,0 km/h (2 Bft) 100,00 %
13.08.2017 15:46 20,7 C 20,6 C 71 % 1019,5 hPa 0,0 l/m 1,0 km/h (0 Bft) N-NW 339 0 min 0,000 mm 1,9 UV-I 227 W/m 15,2 C 20,7 C 3,2 km/h (1 Bft) 100,00 %
13.08.2017 15:48 20,7 C 20,6 C 72 % 1019,5 hPa 0,0 l/m 2,0 km/h (1 Bft) N-NW 336 0 min 0,000 mm 1,9 UV-I 224 W/m 15,5 C 20,7 C 4,8 km/h (1 Bft) 100,00 %
13.08.2017 15:50 20,7 C 20,6 C 71 % 1019,5 hPa 0,0 l/m 1,6 km/h (1 Bft) N-NO 13 0 min 0,000 mm 1,9 UV-I 236 W/m 15,2 C 20,7 C 4,8 km/h (1 Bft) 97,37 %
13.08.2017 15:52 20,7 C 20,6 C 73 % 1019,4 hPa 0,0 l/m 1,8 km/h (1 Bft) NW 321 0 min 0,000 mm 2,0 UV-I 270 W/m 15,7 C 20,7 C 6,4 km/h (2 Bft) 100,00 %
13.08.2017 15:54 20,7 C 20,6 C 71 % 1019,4 hPa 0,0 l/m 2,9 km/h (1 Bft) N-NO 22 0 min 0,000 mm 2,5 UV-I 252 W/m 15,2 C 20,7 C 8,0 km/h (2 Bft) 98,00 %
13.08.2017 15:56 20,8 C 20,6 C 72 % 1019,4 hPa 0,0 l/m 2,7 km/h (1 Bft) W-NW 300 0 min 0,000 mm 2,4 UV-I 337 W/m 15,6 C 20,8 C 6,4 km/h (2 Bft) 100,00 %
13.08.2017 15:58 20,9 C 20,6 C 74 % 1019,4 hPa 0,0 l/m 1,8 km/h (1 Bft) N 5 0 min 0,000 mm 2,8 UV-I 340 W/m 16,1 C 20,9 C 4,8 km/h (1 Bft) 100,00 %
13.08.2017 16:00 21,1 C 20,6 C 72 % 1019,4 hPa 0,0 l/m 2,6 km/h (1 Bft) NW 308 0 min 0,228 mm 2,2 UV-I 270 W/m 15,8 C 21,1 C 4,8 km/h (1 Bft) 100,00 %
13.08.2017 16:02 21,1 C 20,6 C 70 % 1019,4 hPa 0,0 l/m 2,1 km/h (1 Bft) NW 313 0 min 0,000 mm 2,3 UV-I 288 W/m 15,4 C 21,1 C 6,4 km/h (2 Bft) 97,87 %
13.08.2017 16:04 21,1 C 20,6 C 71 % 1019,4 hPa 0,0 l/m 2,9 km/h (1 Bft) W-NW 286 0 min 0,000 mm 2,9 UV-I 337 W/m 15,6 C 21,1 C 11,3 km/h (2 Bft) 100,00 %
13.08.2017 16:06 21,2 C 20,6 C 69 % 1019,4 hPa 0,0 l/m 4,8 km/h (1 Bft) NW 310 2 min 0,000 mm 2,8 UV-I 410 W/m 15,3 C 21,2 C 12,9 km/h (3 Bft) 100,00 %
13.08.2017 16:08 21,3 C 20,6 C 72 % 1019,4 hPa 0,0 l/m 3,7 km/h (1 Bft) W 274 0 min 0,000 mm 2,6 UV-I 345 W/m 16,0 C 21,3 C 6,4 km/h (2 Bft) 98,21 %
13.08.2017 16:10 21,3 C 20,6 C 71 % 1019,4 hPa 0,0 l/m 2,8 km/h (1 Bft) N 9 0 min 0,000 mm 2,2 UV-I 307 W/m 15,8 C 21,3 C 6,4 km/h (2 Bft) 100,00 %
13.08.2017 16:12 21,3 C 20,6 C 71 % 1019,4 hPa 0,0 l/m 2,3 km/h (1 Bft) N-NW 330 0 min 0,000 mm 2,2 UV-I 315 W/m 15,8 C 21,3 C 8,0 km/h (2 Bft) 100,00 %
13.08.2017 16:14 21,3 C 20,6 C 69 % 1019,4 hPa 0,0 l/m 2,0 km/h (1 Bft) NW 308 0 min 0,000 mm 2,2 UV-I 334 W/m 15,4 C 21,3 C 6,4 km/h (2 Bft) 100,00 %
13.08.2017 16:16 21,3 C 20,6 C 72 % 1019,4 hPa 0,0 l/m 2,5 km/h (1 Bft) W-NW 301 0 min 0,000 mm 2,2 UV-I 341 W/m 16,0 C 21,3 C 4,8 km/h (1 Bft) 100,00 %
13.08.2017 16:18 21,3 C 20,6 C 69 % 1019,3 hPa 0,0 l/m 4,0 km/h (1 Bft) W-NW 298 0 min 0,000 mm 2,1 UV-I 324 W/m 15,4 C 21,3 C 8,0 km/h (2 Bft) 100,00 %
13.08.2017 16:20 21,2 C 20,6 C 67 % 1019,3 hPa 0,0 l/m 3,7 km/h (1 Bft) W-NW 288 0 min 0,000 mm 2,0 UV-I 309 W/m 14,8 C 21,2 C 8,0 km/h (2 Bft) 100,00 %
13.08.2017 16:22 21,2 C 20,6 C 69 % 1019,3 hPa 0,0 l/m 1,3 km/h (1 Bft) NW 315 2 min 0,000 mm 2,0 UV-I 352 W/m 15,3 C 21,2 C 3,2 km/h (1 Bft) 97,37 %
13.08.2017 16:24 21,2 C 20,6 C 69 % 1019,4 hPa 0,0 l/m 4,4 km/h (1 Bft) W 279 2 min 0,000 mm 2,1 UV-I 422 W/m 15,3 C 21,2 C 6,4 km/h (2 Bft) 98,11 %
13.08.2017 16:26 21,2 C 20,6 C 67 % 1019,4 hPa 0,0 l/m 6,4 km/h (2 Bft) NW 304 2 min 0,000 mm 2,2 UV-I 401 W/m 14,8 C 21,2 C 16,1 km/h (3 Bft) 100,00 %
13.08.2017 16:28 21,2 C 20,6 C 69 % 1019,3 hPa 0,0 l/m 2,7 km/h (1 Bft) NW 305 2 min 0,000 mm 2,1 UV-I 374 W/m 15,3 C 21,2 C 6,4 km/h (2 Bft) 100,00 %
13.08.2017 16:30 21,3 C 20,6 C 69 % 1019,3 hPa 0,0 l/m 4,7 km/h (1 Bft) W 279 2 min 0,000 mm 2,1 UV-I 384 W/m 15,4 C 21,3 C 8,0 km/h (2 Bft) 97,87 %
13.08.2017 16:32 21,3 C 20,6 C 69 % 1019,3 hPa 0,0 l/m 0,9 km/h (0 Bft) NW 313 2 min 0,000 mm 2,2 UV-I 420 W/m 15,4 C 21,3 C 3,2 km/h (1 Bft) 100,00 %
13.08.2017 16:34 21,4 C 20,6 C 69 % 1019,3 hPa 0,0 l/m 2,5 km/h (1 Bft) NW 317 2 min 0,000 mm 2,1 UV-I 389 W/m 15,5 C 21,4 C 8,0 km/h (2 Bft) 97,37 %
13.08.2017 16:36 21,6 C 20,6 C 70 % 1019,3 hPa 0,0 l/m 2,5 km/h (1 Bft) NW 315 2 min 0,000 mm 2,5 UV-I 486 W/m 15,9 C 21,6 C 6,4 km/h (2 Bft) 96,43 %
13.08.2017 16:38 21,7 C 20,6 C 68 % 1019,3 hPa 0,0 l/m 6,0 km/h (2 Bft) W-SW 243 2 min 0,000 mm 2,5 UV-I 472 W/m 15,5 C 21,7 C 12,9 km/h (3 Bft) 97,87 %
13.08.2017 16:40 21,8 C 20,6 C 67 % 1019,3 hPa 0,0 l/m 5,8 km/h (2 Bft) W 271 2 min 0,000 mm 2,7 UV-I 734 W/m 15,4 C 21,8 C 14,5 km/h (3 Bft) 97,62 %
13.08.2017 16:42 21,9 C 20,6 C 67 % 1019,3 hPa 0,0 l/m 3,9 km/h (1 Bft) N-NW 340 2 min 0,000 mm 2,3 UV-I 434 W/m 15,5 C 21,9 C 9,7 km/h (2 Bft) 97,87 %
13.08.2017 16:44 21,9 C 20,6 C 67 % 1019,3 hPa 0,0 l/m 3,2 km/h (1 Bft) O-NO 57 2 min 0,000 mm 2,3 UV-I 413 W/m 15,5 C 21,9 C 6,4 km/h (2 Bft) 97,87 %
13.08.2017 16:46 21,8 C 20,6 C 65 % 1019,3 hPa 0,0 l/m 3,7 km/h (1 Bft) W-NW 297 2 min 0,000 mm 2,4 UV-I 559 W/m 14,9 C 21,8 C 6,4 km/h (2 Bft) 97,87 %
13.08.2017 16:48 21,9 C 20,6 C 65 % 1019,3 hPa 0,0 l/m 1,8 km/h (1 Bft) NW 320 2 min 0,000 mm 2,4 UV-I 564 W/m 15,0 C 21,9 C 3,2 km/h (1 Bft) 98,00 %
13.08.2017 16:50 21,9 C 20,6 C 64 % 1019,3 hPa 0,0 l/m 5,0 km/h (1 Bft) W-NW 291 2 min 0,000 mm 2,3 UV-I 543 W/m 14,8 C 21,9 C 9,7 km/h (2 Bft) 97,87 %
13.08.2017 16:52 22,1 C 20,6 C 65 % 1019,3 hPa 0,0 l/m 6,9 km/h (2 Bft) W 262 2 min 0,000 mm 2,3 UV-I 529 W/m 15,2 C 21,9 C 14,5 km/h (3 Bft) 96,00 %
13.08.2017 16:54 22,1 C 20,6 C 65 % 1019,3 hPa 0,0 l/m 7,8 km/h (2 Bft) W-SW 254 2 min 0,000 mm 2,2 UV-I 515 W/m 15,2 C 21,6 C 12,9 km/h (3 Bft) 97,56 %
13.08.2017 16:56 21,9 C 20,6 C 67 % 1019,3 hPa 0,0 l/m 4,8 km/h (1 Bft) W 280 2 min 0,000 mm 2,1 UV-I 513 W/m 15,5 C 21,9 C 6,4 km/h (2 Bft) 100,00 %
13.08.2017 16:58 21,9 C 20,6 C 66 % 1019,3 hPa 0,0 l/m 6,5 km/h (2 Bft) W-NW 290 2 min 0,000 mm 2,1 UV-I 547 W/m 15,3 C 21,9 C 11,3 km/h (2 Bft) 94,00 %
13.08.2017 17:00 21,9 C 20,6 C 66 % 1019,4 hPa 0,0 l/m 5,3 km/h (1 Bft) SW 226 2 min 0,280 mm 2,1 UV-I 578 W/m 15,3 C 21,9 C 9,7 km/h (2 Bft) 95,45 %
13.08.2017 17:02 21,9 C 20,6 C 69 % 1019,3 hPa 0,0 l/m 2,1 km/h (1 Bft) N 355 2 min 0,000 mm 1,5 UV-I 322 W/m 15,9 C 21,9 C 4,8 km/h (1 Bft) 97,56 %
13.08.2017 17:04 21,8 C 20,6 C 69 % 1019,4 hPa 0,0 l/m 4,7 km/h (1 Bft) NW 313 2 min 0,000 mm 2,0 UV-I 370 W/m 15,9 C 21,8 C 9,7 km/h (2 Bft) 98,21 %
13.08.2017 17:06 21,8 C 20,6 C 66 % 1019,4 hPa 0,0 l/m 4,0 km/h (1 Bft) W-NW 287 2 min 0,000 mm 2,0 UV-I 594 W/m 15,2 C 21,8 C 6,4 km/h (2 Bft) 100,00 %
13.08.2017 17:08 21,8 C 20,6 C 68 % 1019,4 hPa 0,0 l/m 0,9 km/h (0 Bft) W-NW 287 2 min 0,000 mm 1,7 UV-I 585 W/m 15,6 C 21,8 C 3,2 km/h (1 Bft) 96,23 %
13.08.2017 17:10 21,7 C 20,6 C 67 % 1019,4 hPa 0,0 l/m 1,5 km/h (1 Bft) W-NW 300 2 min 0,000 mm 1,5 UV-I 453 W/m 15,3 C 21,7 C 6,4 km/h (2 Bft) 100,00 %
13.08.2017 17:12 21,7 C 20,6 C 68 % 1019,4 hPa 0,0 l/m 4,2 km/h (1 Bft) N-NW 339 0 min 0,000 mm 1,5 UV-I 201 W/m 15,5 C 21,7 C 9,7 km/h (2 Bft) 100,00 %
13.08.2017 17:14 21,6 C 20,6 C 68 % 1019,4 hPa 0,0 l/m 5,0 km/h (1 Bft) NW 313 2 min 0,000 mm 1,6 UV-I 480 W/m 15,4 C 21,6 C 12,9 km/h (3 Bft) 100,00 %
13.08.2017 17:16 21,7 C 20,6 C 71 % 1019,4 hPa 0,0 l/m 1,0 km/h (0 Bft) N-NW 331 2 min 0,000 mm 1,4 UV-I 529 W/m 16,2 C 21,7 C 4,8 km/h (1 Bft) 100,00 %
13.08.2017 17:18 21,6 C 20,6 C 68 % 1019,3 hPa 0,0 l/m 4,0 km/h (1 Bft) SW 234 0 min 0,000 mm 1,3 UV-I 162 W/m 15,4 C 21,6 C 12,9 km/h (3 Bft) 100,00 %
13.08.2017 17:20 21,4 C 20,6 C 70 % 1019,4 hPa 0,0 l/m 2,8 km/h (1 Bft) N-NW 334 0 min 0,000 mm 1,5 UV-I 252 W/m 15,7 C 21,4 C 6,4 km/h (2 Bft) 100,00 %
13.08.2017 17:22 21,5 C 20,6 C 68 % 1019,4 hPa 0,0 l/m 2,7 km/h (1 Bft) W-NW 288 2 min 0,000 mm 1,6 UV-I 478 W/m 15,3 C 21,5 C 4,8 km/h (1 Bft) 98,00 %
13.08.2017 17:24 21,7 C 20,6 C 68 % 1019,4 hPa 0,0 l/m 2,5 km/h (1 Bft) NW 310 2 min 0,000 mm 1,5 UV-I 470 W/m 15,5 C 21,7 C 4,8 km/h (1 Bft) 100,00 %
13.08.2017 17:26 21,8 C 20,6 C 65 % 1019,4 hPa 0,0 l/m 3,7 km/h (1 Bft) N-NW 329 2 min 0,000 mm 1,5 UV-I 453 W/m 14,9 C 21,8 C 6,4 km/h (2 Bft) 100,00 %
13.08.2017 17:28 21,8 C 20,6 C 66 % 1019,4 hPa 0,0 l/m 3,0 km/h (1 Bft) NW 306 2 min 0,000 mm 1,4 UV-I 412 W/m 15,2 C 21,8 C 4,8 km/h (1 Bft) 95,74 %
13.08.2017 17:30 21,8 C 20,6 C 68 % 1019,4 hPa 0,0 l/m 3,0 km/h (1 Bft) W-NW 301 2 min 0,000 mm 1,2 UV-I 425 W/m 15,6 C 21,8 C 6,4 km/h (2 Bft) 100,00 %
13.08.2017 17:32 21,7 C 20,6 C 67 % 1019,4 hPa 0,0 l/m 3,0 km/h (1 Bft) N 355 2 min 0,000 mm 1,2 UV-I 425 W/m 15,3 C 21,7 C 8,0 km/h (2 Bft) 100,00 %
13.08.2017 17:34 21,6 C 20,6 C 68 % 1019,4 hPa 0,0 l/m 0,1 km/h (0 Bft) N 355 0 min 0,000 mm 1,0 UV-I 145 W/m 15,4 C 21,6 C 1,6 km/h (1 Bft) 98,00 %
13.08.2017 17:36 21,5 C 20,6 C 68 % 1019,4 hPa 0,0 l/m 3,1 km/h (1 Bft) W-SW 254 0 min 0,000 mm 1,2 UV-I 186 W/m 15,3 C 21,5 C 6,4 km/h (2 Bft) 98,11 %
13.08.2017 17:38 21,4 C 20,6 C 68 % 1019,4 hPa 0,0 l/m 2,9 km/h (1 Bft) W-NW 292 0 min 0,000 mm 1,3 UV-I 169 W/m 15,2 C 21,4 C 4,8 km/h (1 Bft) 98,00 %
13.08.2017 17:40 21,6 C 20,6 C 69 % 1019,4 hPa 0,0 l/m 1,8 km/h (1 Bft) W-SW 248 2 min 0,000 mm 1,3 UV-I 371 W/m 15,7 C 21,6 C 4,8 km/h (1 Bft) 100,00 %
13.08.2017 17:42 21,7 C 20,6 C 66 % 1019,4 hPa 0,0 l/m 4,4 km/h (1 Bft) W 268 2 min 0,000 mm 1,2 UV-I 368 W/m 15,1 C 21,7 C 9,7 km/h (2 Bft) 100,00 %
13.08.2017 17:44 21,7 C 20,6 C 67 % 1019,3 hPa 0,0 l/m 4,5 km/h (1 Bft) W-SW 240 2 min 0,000 mm 1,2 UV-I 362 W/m 15,3 C 21,7 C 8,0 km/h (2 Bft) 100,00 %
13.08.2017 17:46 21,8 C 20,6 C 67 % 1019,3 hPa 0,0 l/m 1,6 km/h (1 Bft) W-NW 288 2 min 0,000 mm 1,2 UV-I 352 W/m 15,4 C 21,8 C 3,2 km/h (1 Bft) 100,00 %
13.08.2017 17:48 21,9 C 20,6 C 67 % 1019,3 hPa 0,0 l/m 3,0 km/h (1 Bft) NW 319 2 min 0,000 mm 1,1 UV-I 343 W/m 15,5 C 21,9 C 6,4 km/h (2 Bft) 100,00 %
13.08.2017 17:50 21,9 C 20,6 C 65 % 1019,2 hPa 0,0 l/m 2,4 km/h (1 Bft) NW 304 2 min 0,000 mm 1,1 UV-I 341 W/m 15,0 C 21,9 C 4,8 km/h (1 Bft) 98,11 %
13.08.2017 17:52 21,9 C 20,6 C 66 % 1019,2 hPa 0,0 l/m 3,1 km/h (1 Bft) N-NW 341 2 min 0,000 mm 1,1 UV-I 338 W/m 15,3 C 21,9 C 8,0 km/h (2 Bft) 100,00 %
13.08.2017 17:54 21,9 C 20,6 C 66 % 1019,3 hPa 0,0 l/m 2,5 km/h (1 Bft) N-NW 331 2 min 0,000 mm 1,0 UV-I 331 W/m 15,3 C 21,9 C 4,8 km/h (1 Bft) 100,00 %
13.08.2017 17:56 22,0 C 20,6 C 65 % 1019,2 hPa 0,0 l/m 3,0 km/h (1 Bft) W-NW 302 2 min 0,000 mm 1,0 UV-I 305 W/m 15,1 C 22,0 C 6,4 km/h (2 Bft) 100,00 %
13.08.2017 17:58 22,0 C 20,6 C 68 % 1019,3 hPa 0,0 l/m 1,6 km/h (1 Bft) NW 304 2 min 0,000 mm 1,0 UV-I 315 W/m 15,8 C 22,0 C 3,2 km/h (1 Bft) 100,00 %
13.08.2017 18:00 22,0 C 20,6 C 66 % 1019,3 hPa 0,0 l/m 2,1 km/h (1 Bft) N-NW 336 2 min 0,228 mm 0,9 UV-I 310 W/m 15,3 C 22,0 C 8,0 km/h (2 Bft) 97,44 %
13.08.2017 18:02 21,9 C 20,6 C 67 % 1019,2 hPa 0,0 l/m 3,2 km/h (1 Bft) N-NW 331 2 min 0,000 mm 0,9 UV-I 304 W/m 15,5 C 21,9 C 6,4 km/h (2 Bft) 100,00 %
13.08.2017 18:04 21,8 C 20,6 C 67 % 1019,3 hPa 0,0 l/m 4,0 km/h (1 Bft) N-NW 331 2 min 0,000 mm 0,9 UV-I 297 W/m 15,4 C 21,8 C 6,4 km/h (2 Bft) 100,00 %
13.08.2017 18:06 21,7 C 20,6 C 68 % 1019,3 hPa 0,0 l/m 3,4 km/h (1 Bft) N-NW 348 2 min 0,000 mm 0,8 UV-I 292 W/m 15,5 C 21,7 C 8,0 km/h (2 Bft) 100,00 %
13.08.2017 18:08 21,7 C 20,6 C 69 % 1019,2 hPa 0,0 l/m 2,7 km/h (1 Bft) N-NW 327 2 min 0,000 mm 0,8 UV-I 288 W/m 15,8 C 21,7 C 6,4 km/h (2 Bft) 100,00 %
13.08.2017 18:10 21,6 C 21,1 C 69 % 1019,3 hPa 0,0 l/m 1,6 km/h (1 Bft) N-NW 342 2 min 0,000 mm 0,8 UV-I 287 W/m 15,7 C 21,6 C 4,8 km/h (1 Bft) 98,00 %
13.08.2017 18:12 21,6 C 21,1 C 69 % 1019,3 hPa 0,0 l/m 2,0 km/h (1 Bft) N-NW 340 2 min 0,000 mm 0,8 UV-I 286 W/m 15,7 C 21,6 C 4,8 km/h (1 Bft) 100,00 %
13.08.2017 18:14 21,6 C 21,1 C 69 % 1019,2 hPa 0,0 l/m 8,2 km/h (2 Bft) O 88 2 min 0,000 mm 0,7 UV-I 280 W/m 15,7 C 21,0 C 17,7 km/h (3 Bft) 93,62 %
13.08.2017 18:16 21,7 C 21,1 C 70 % 1019,2 hPa 0,0 l/m 1,4 km/h (1 Bft) W-SW 250 2 min 0,000 mm 0,7 UV-I 272 W/m 16,0 C 21,7 C 6,4 km/h (2 Bft) 100,00 %
13.08.2017 18:18 21,7 C 21,1 C 67 % 1019,2 hPa 0,0 l/m 3,2 km/h (1 Bft) W-SW 242 2 min 0,000 mm 0,7 UV-I 261 W/m 15,3 C 21,7 C 6,4 km/h (2 Bft) 100,00 %
13.08.2017 18:20 21,7 C 21,1 C 65 % 1019,2 hPa 0,0 l/m 0,9 km/h (0 Bft) W 279 2 min 0,000 mm 0,7 UV-I 252 W/m 14,8 C 21,7 C 3,2 km/h (1 Bft) 98,00 %
13.08.2017 18:22 21,8 C 21,1 C 67 % 1019,2 hPa 0,0 l/m 0,9 km/h (0 Bft) NO 38 2 min 0,000 mm 0,6 UV-I 245 W/m 15,4 C 21,8 C 6,4 km/h (2 Bft) 100,00 %
13.08.2017 18:24 21,8 C 21,1 C 64 % 1019,2 hPa 0,0 l/m 2,5 km/h (1 Bft) N-NW 330 2 min 0,000 mm 0,6 UV-I 239 W/m 14,7 C 21,8 C 6,4 km/h (2 Bft) 98,11 %
13.08.2017 18:26 21,7 C 21,1 C 64 % 1019,2 hPa 0,0 l/m 2,9 km/h (1 Bft) W-NW 300 2 min 0,000 mm 0,6 UV-I 233 W/m 14,6 C 21,7 C 6,4 km/h (2 Bft) 100,00 %
13.08.2017 18:28 21,7 C 21,1 C 63 % 1019,2 hPa 0,0 l/m 3,9 km/h (1 Bft) W-NW 296 2 min 0,000 mm 0,6 UV-I 226 W/m 14,3 C 21,7 C 11,3 km/h (2 Bft) 98,11 %
13.08.2017 18:30 21,7 C 21,1 C 64 % 1019,2 hPa 0,0 l/m 0,6 km/h (0 Bft) W-NW 301 2 min 0,000 mm 0,5 UV-I 221 W/m 14,6 C 21,7 C 3,2 km/h (1 Bft) 95,74 %
13.08.2017 18:32 21,8 C 21,1 C 64 % 1019,2 hPa 0,0 l/m 2,0 km/h (1 Bft) W-NW 300 2 min 0,000 mm 0,5 UV-I 215 W/m 14,7 C 21,8 C 4,8 km/h (1 Bft) 97,44 %
13.08.2017 18:34 21,8 C 21,1 C 64 % 1019,1 hPa 0,0 l/m 1,0 km/h (0 Bft) N-NO 24 2 min 0,000 mm 0,5 UV-I 211 W/m 14,7 C 21,8 C 3,2 km/h (1 Bft) 92,45 %
13.08.2017 18:36 21,8 C 21,1 C 65 % 1019,1 hPa 0,0 l/m 1,0 km/h (0 Bft) N 9 2 min 0,000 mm 0,5 UV-I 204 W/m 14,9 C 21,8 C 3,2 km/h (1 Bft) 95,24 %
13.08.2017 18:38 21,8 C 21,1 C 63 % 1019,2 hPa 0,0 l/m 2,8 km/h (1 Bft) S-SO 168 2 min 0,000 mm 0,5 UV-I 199 W/m 14,4 C 21,8 C 6,4 km/h (2 Bft) 92,73 %
13.08.2017 18:40 21,8 C 21,1 C 65 % 1019,2 hPa 0,0 l/m 3,0 km/h (1 Bft) W-SW 246 2 min 0,000 mm 0,0 UV-I 194 W/m 14,9 C 21,8 C 6,4 km/h (2 Bft) 96,00 %
13.08.2017 18:42 21,8 C 21,1 C 63 % 1019,2 hPa 0,0 l/m 5,4 km/h (1 Bft) W 277 2 min 0,000 mm 0,0 UV-I 189 W/m 14,4 C 21,8 C 11,3 km/h (2 Bft) 91,67 %
13.08.2017 18:44 21,7 C 21,1 C 64 % 1019,2 hPa 0,0 l/m 2,2 km/h (1 Bft) W-SW 241 2 min 0,000 mm 0,0 UV-I 185 W/m 14,6 C 21,7 C 8,0 km/h (2 Bft) 96,00 %
13.08.2017 18:46 21,7 C 21,1 C 63 % 1019,2 hPa 0,0 l/m 1,2 km/h (1 Bft) W-SW 247 2 min 0,000 mm 0,0 UV-I 179 W/m 14,3 C 21,7 C 6,4 km/h (2 Bft) 96,00 %
13.08.2017 18:48 21,6 C 21,1 C 64 % 1019,3 hPa 0,0 l/m 3,1 km/h (1 Bft) W-NW 292 2 min 0,000 mm 0,0 UV-I 174 W/m 14,5 C 21,6 C 6,4 km/h (2 Bft) 95,12 %
13.08.2017 18:50 21,6 C 21,1 C 64 % 1019,3 hPa 0,0 l/m 4,8 km/h (1 Bft) W 260 2 min 0,000 mm 0,0 UV-I 168 W/m 14,5 C 21,6 C 9,7 km/h (2 Bft) 96,23 %
13.08.2017 18:52 21,6 C 21,1 C 65 % 1019,2 hPa 0,0 l/m 2,3 km/h (1 Bft) W-SW 254 2 min 0,000 mm 0,0 UV-I 164 W/m 14,7 C 21,6 C 6,4 km/h (2 Bft) 95,45 %
13.08.2017 18:54 21,5 C 21,1 C 65 % 1019,3 hPa 0,0 l/m 1,6 km/h (1 Bft) W-SW 254 2 min 0,000 mm 0,0 UV-I 160 W/m 14,6 C 21,5 C 3,2 km/h (1 Bft) 95,45 %
13.08.2017 18:56 21,4 C 21,1 C 64 % 1019,3 hPa 0,0 l/m 5,1 km/h (1 Bft) W 281 2 min 0,000 mm 0,0 UV-I 156 W/m 14,3 C 21,4 C 9,7 km/h (2 Bft) 93,62 %
13.08.2017 18:58 21,4 C 21,1 C 64 % 1019,2 hPa 0,0 l/m 0,8 km/h (0 Bft) W 281 2 min 0,000 mm 0,0 UV-I 153 W/m 14,3 C 21,4 C 3,2 km/h (1 Bft) 94,00 %
13.08.2017 19:00 21,5 C 21,1 C 65 % 1019,3 hPa 0,0 l/m 0,3 km/h (0 Bft) W 281 0 min 0,000 mm 0,0 UV-I 88 W/m 14,6 C 21,5 C 1,6 km/h (1 Bft) 97,87 %
13.08.2017 19:03 21,3 C 21,1 C 64 % 1019,3 hPa 0,0 l/m 3,0 km/h (1 Bft) W-SW 250 0 min 0,153 mm 0,0 UV-I 41 W/m 14,2 C 21,3 C 6,4 km/h (2 Bft) 96,20 %
13.08.2017 19:04 21,2 C 21,1 C 65 % 1019,3 hPa 0,0 l/m 2,4 km/h (1 Bft) W-SW 257 0 min 0,000 mm 0,0 UV-I 40 W/m 14,4 C 21,2 C 3,2 km/h (1 Bft) 100,00 %
13.08.2017 19:06 21,1 C 21,1 C 66 % 1019,3 hPa 0,0 l/m 0,8 km/h (0 Bft) W-SW 257 0 min 0,000 mm 0,0 UV-I 39 W/m 14,5 C 21,1 C 3,2 km/h (1 Bft) 98,00 %
13.08.2017 19:08 20,9 C 21,1 C 66 % 1019,3 hPa 0,0 l/m 1,3 km/h (1 Bft) W-SW 257 0 min 0,000 mm 0,0 UV-I 45 W/m 14,3 C 20,9 C 3,2 km/h (1 Bft) 96,23 %
13.08.2017 19:10 20,8 C 21,1 C 67 % 1019,3 hPa 0,0 l/m 1,6 km/h (1 Bft) W-SW 257 0 min 0,000 mm 0,0 UV-I 52 W/m 14,4 C 20,8 C 3,2 km/h (1 Bft) 97,37 %
13.08.2017 19:12 20,7 C 21,1 C 68 % 1019,3 hPa 0,0 l/m 0,8 km/h (0 Bft) W-SW 257 0 min 0,000 mm 0,0 UV-I 39 W/m 14,6 C 20,7 C 1,6 km/h (1 Bft) 97,73 %
13.08.2017 19:14 20,6 C 21,1 C 69 % 1019,3 hPa 0,0 l/m 0,2 km/h (0 Bft) W-SW 257 0 min 0,000 mm 0,0 UV-I 45 W/m 14,7 C 20,6 C 1,6 km/h (1 Bft) 98,11 %
13.08.2017 19:16 20,5 C 21,1 C 69 % 1019,3 hPa 0,0 l/m 0,2 km/h (0 Bft) W-SW 257 0 min 0,000 mm 0,0 UV-I 33 W/m 14,6 C 20,5 C 1,6 km/h (1 Bft) 94,34 %
13.08.2017 19:18 20,4 C 21,1 C 69 % 1019,4 hPa 0,0 l/m 0,0 km/h (0 Bft) W-SW 257 0 min 0,000 mm 0,0 UV-I 30 W/m 14,5 C 20,4 C 1,6 km/h (1 Bft) 94,87 %
13.08.2017 19:20 20,4 C 21,1 C 69 % 1019,4 hPa 0,0 l/m 0,0 km/h (0 Bft) W-SW 257 0 min 0,000 mm 0,0 UV-I 30 W/m 14,5 C 20,4 C 0,0 km/h (0 Bft) 98,00 %
13.08.2017 19:22 20,3 C 21,1 C 71 % 1019,4 hPa 0,0 l/m 0,4 km/h (0 Bft) W-SW 257 0 min 0,000 mm 0,0 UV-I 28 W/m 14,9 C 20,3 C 1,6 km/h (1 Bft) 98,00 %
13.08.2017 19:24 20,3 C 21,1 C 69 % 1019,5 hPa 0,0 l/m 0,6 km/h (0 Bft) W-SW 257 0 min 0,000 mm 0,0 UV-I 28 W/m 14,4 C 20,3 C 1,6 km/h (1 Bft) 97,87 %
13.08.2017 19:26 20,3 C 21,1 C 73 % 1019,5 hPa 0,0 l/m 0,0 km/h (0 Bft) W-SW 257 0 min 0,000 mm 0,0 UV-I 28 W/m 15,3 C 20,3 C 0,0 km/h (0 Bft) 97,87 %
13.08.2017 19:28 20,0 C 21,1 C 75 % 1019,4 hPa 0,0 l/m 0,0 km/h (0 Bft) W-SW 257 0 min 0,000 mm 0,0 UV-I 30 W/m 15,4 C 20,0 C 0,0 km/h (0 Bft) 94,74 %
13.08.2017 19:30 19,7 C 21,1 C 77 % 1019,5 hPa 0,0 l/m 0,0 km/h (0 Bft) W-SW 257 0 min 0,000 mm 0,0 UV-I 30 W/m 15,5 C 19,7 C 0,0 km/h (0 Bft) 96,00 %
13.08.2017 19:32 19,4 C 21,1 C 77 % 1019,5 hPa 0,0 l/m 0,0 km/h (0 Bft) W-SW 257 0 min 0,000 mm 0,0 UV-I 30 W/m 15,3 C 19,4 C 0,0 km/h (0 Bft) 97,87 %
13.08.2017 19:34 19,2 C 20,6 C 79 % 1019,5 hPa 0,0 l/m 0,2 km/h (0 Bft) W-SW 257 0 min 0,000 mm 0,0 UV-I 29 W/m 15,5 C 19,2 C 1,6 km/h (1 Bft) 95,74 %
13.08.2017 19:36 19,1 C 20,6 C 80 % 1019,5 hPa 0,0 l/m 0,0 km/h (0 Bft) W-SW 257 0 min 0,000 mm 0,0 UV-I 28 W/m 15,6 C 19,1 C 0,0 km/h (0 Bft) 96,15 %
13.08.2017 19:38 18,9 C 20,6 C 81 % 1019,5 hPa 0,0 l/m 0,0 km/h (0 Bft) W-SW 257 0 min 0,000 mm 0,0 UV-I 26 W/m 15,6 C 18,9 C 0,0 km/h (0 Bft) 97,18 %
13.08.2017 19:40 18,8 C 20,6 C 82 % 1019,5 hPa 0,0 l/m 0,0 km/h (0 Bft) W-SW 257 0 min 0,000 mm 0,0 UV-I 26 W/m 15,7 C 18,8 C 0,0 km/h (0 Bft) 95,74 %
13.08.2017 19:42 18,7 C 20,6 C 82 % 1019,4 hPa 0,0 l/m 0,0 km/h (0 Bft) W-SW 257 0 min 0,000 mm 0,0 UV-I 26 W/m 15,6 C 18,7 C 0,0 km/h (0 Bft) 94,74 %
13.08.2017 19:44 18,6 C 20,6 C 83 % 1019,5 hPa 0,0 l/m 0,0 km/h (0 Bft) W-SW 257 0 min 0,000 mm 0,0 UV-I 25 W/m 15,7 C 18,6 C 0,0 km/h (0 Bft) 95,74 %
13.08.2017 19:46 18,6 C 20,6 C 83 % 1019,5 hPa 0,0 l/m 0,0 km/h (0 Bft) W-SW 257 0 min 0,000 mm 0,0 UV-I 25 W/m 15,7 C 18,6 C 0,0 km/h (0 Bft) 97,22 %
13.08.2017 19:48 18,4 C 20,6 C 84 % 1019,5 hPa 0,0 l/m 0,0 km/h (0 Bft) W-SW 257 0 min 0,000 mm 0,0 UV-I 24 W/m 15,6 C 18,4 C 0,0 km/h (0 Bft) 98,36 %
13.08.2017 19:50 18,3 C 20,6 C 85 % 1019,5 hPa 0,0 l/m 0,7 km/h (0 Bft) W-SW 257 0 min 0,000 mm 0,0 UV-I 23 W/m 15,7 C 18,3 C 1,6 km/h (1 Bft) 96,00 %
13.08.2017 19:52 18,2 C 20,6 C 85 % 1019,5 hPa 0,0 l/m 1,2 km/h (1 Bft) W-SW 257 0 min 0,000 mm 0,0 UV-I 23 W/m 15,6 C 18,2 C 3,2 km/h (1 Bft) 100,00 %
13.08.2017 19:54 18,1 C 20,6 C 85 % 1019,4 hPa 0,0 l/m 1,3 km/h (1 Bft) W-SW 257 0 min 0,000 mm 0,0 UV-I 23 W/m 15,5 C 18,1 C 3,2 km/h (1 Bft) 100,00 %
13.08.2017 19:56 18,0 C 20,6 C 85 % 1019,5 hPa 0,0 l/m 1,1 km/h (1 Bft) W-SW 257 0 min 0,000 mm 0,0 UV-I 23 W/m 15,4 C 18,0 C 3,2 km/h (1 Bft) 96,00 %
13.08.2017 19:58 17,9 C 20,6 C 85 % 1019,5 hPa 0,0 l/m 1,8 km/h (1 Bft) W-SW 257 0 min 0,000 mm 0,0 UV-I 24 W/m 15,3 C 17,9 C 3,2 km/h (1 Bft) 97,87 %
13.08.2017 20:00 17,9 C 20,6 C 85 % 1019,5 hPa 0,0 l/m 1,5 km/h (1 Bft) W-SW 257 2 min 0,025 mm 0,0 UV-I 23 W/m 15,3 C 17,9 C 3,2 km/h (1 Bft) 100,00 %
13.08.2017 20:02 17,8 C 20,6 C 85 % 1019,5 hPa 0,0 l/m 2,4 km/h (1 Bft) W-SW 257 2 min 0,000 mm 0,0 UV-I 21 W/m 15,2 C 17,8 C 3,2 km/h (1 Bft) 100,00 %
13.08.2017 20:04 17,8 C 20,6 C 85 % 1019,5 hPa 0,0 l/m 2,0 km/h (1 Bft) W-SW 257 2 min 0,000 mm 0,0 UV-I 19 W/m 15,2 C 17,8 C 3,2 km/h (1 Bft) 100,00 %
13.08.2017 20:06 17,8 C 20,6 C 86 % 1019,5 hPa 0,0 l/m 3,1 km/h (1 Bft) W-SW 257 2 min 0,000 mm 0,0 UV-I 18 W/m 15,4 C 17,8 C 4,8 km/h (1 Bft) 100,00 %
13.08.2017 20:08 17,8 C 20,6 C 86 % 1019,5 hPa 0,0 l/m 2,2 km/h (1 Bft) W-SW 257 2 min 0,000 mm 0,0 UV-I 17 W/m 15,4 C 17,8 C 3,2 km/h (1 Bft) 100,00 %
13.08.2017 20:10 17,8 C 20,6 C 87 % 1019,5 hPa 0,0 l/m 2,0 km/h (1 Bft) W-SW 257 0 min 0,000 mm 0,0 UV-I 15 W/m 15,6 C 17,8 C 3,2 km/h (1 Bft) 100,00 %
13.08.2017 20:12 17,8 C 20,6 C 87 % 1019,5 hPa 0,0 l/m 1,6 km/h (1 Bft) W-SW 257 0 min 0,000 mm 0,0 UV-I 13 W/m 15,6 C 17,8 C 1,6 km/h (1 Bft) 100,00 %
13.08.2017 20:14 17,8 C 20,6 C 87 % 1019,6 hPa 0,0 l/m 0,5 km/h (0 Bft) W-SW 257 0 min 0,000 mm 0,0 UV-I 12 W/m 15,6 C 17,8 C 1,6 km/h (1 Bft) 98,00 %
13.08.2017 20:16 17,8 C 20,6 C 87 % 1019,6 hPa 0,0 l/m 0,3 km/h (0 Bft) W-SW 257 0 min 0,000 mm 0,0 UV-I 11 W/m 15,6 C 17,8 C 1,6 km/h (1 Bft) 100,00 %
13.08.2017 20:18 17,7 C 20,6 C 86 % 1019,6 hPa 0,0 l/m 1,8 km/h (1 Bft) W-SW 257 0 min 0,000 mm 0,0 UV-I 9 W/m 15,3 C 17,7 C 3,2 km/h (1 Bft) 100,00 %
13.08.2017 20:20 17,7 C 20,6 C 85 % 1019,6 hPa 0,0 l/m 2,6 km/h (1 Bft) W-SW 257 0 min 0,000 mm 0,0 UV-I 9 W/m 15,1 C 17,7 C 3,2 km/h (1 Bft) 97,87 %
13.08.2017 20:22 17,6 C 20,6 C 85 % 1019,6 hPa 0,0 l/m 2,2 km/h (1 Bft) W-SW 257 0 min 0,000 mm 0,0 UV-I 7 W/m 15,0 C 17,6 C 3,2 km/h (1 Bft) 98,00 %
13.08.2017 20:24 17,6 C 20,6 C 84 % 1019,7 hPa 0,0 l/m 0,8 km/h (0 Bft) W-SW 257 0 min 0,000 mm 0,0 UV-I 7 W/m 14,9 C 17,6 C 3,2 km/h (1 Bft) 98,00 %
13.08.2017 20:26 17,6 C 20,6 C 84 % 1019,7 hPa 0,0 l/m 1,1 km/h (1 Bft) W-SW 257 0 min 0,000 mm 0,0 UV-I 7 W/m 14,9 C 17,6 C 3,2 km/h (1 Bft) 95,74 %
13.08.2017 20:28 17,5 C 20,6 C 84 % 1019,7 hPa 0,0 l/m 1,7 km/h (1 Bft) W-SW 257 0 min 0,000 mm 0,0 UV-I 6 W/m 14,8 C 17,5 C 3,2 km/h (1 Bft) 100,00 %
13.08.2017 20:30 17,4 C 20,6 C 85 % 1019,7 hPa 0,0 l/m 1,7 km/h (1 Bft) W-SW 257 0 min 0,000 mm 0,0 UV-I 5 W/m 14,8 C 17,4 C 3,2 km/h (1 Bft) 98,21 %
13.08.2017 20:32 17,4 C 20,6 C 85 % 1019,7 hPa 0,0 l/m 0,6 km/h (0 Bft) W-SW 257 0 min 0,000 mm 0,0 UV-I 5 W/m 14,8 C 17,4 C 3,2 km/h (1 Bft) 97,56 %
13.08.2017 20:34 17,3 C 20,6 C 85 % 1019,7 hPa 0,0 l/m 0,0 km/h (0 Bft) W-SW 257 0 min 0,000 mm 0,0 UV-I 5 W/m 14,8 C 17,3 C 0,0 km/h (0 Bft) 98,00 %
13.08.2017 20:36 17,2 C 20,6 C 85 % 1019,7 hPa 0,0 l/m 0,0 km/h (0 Bft) W-SW 257 0 min 0,000 mm 0,0 UV-I 5 W/m 14,7 C 17,2 C 1,6 km/h (1 Bft) 94,44 %
13.08.2017 20:38 17,1 C 20,6 C 85 % 1019,7 hPa 0,0 l/m 0,7 km/h (0 Bft) W-SW 257 0 min 0,000 mm 0,0 UV-I 0 W/m 14,6 C 17,1 C 3,2 km/h (1 Bft) 98,11 %
13.08.2017 20:40 17,0 C 20,6 C 86 % 1019,7 hPa 0,0 l/m 0,1 km/h (0 Bft) W-SW 257 0 min 0,000 mm 0,0 UV-I 0 W/m 14,6 C 17,0 C 1,6 km/h (1 Bft) 95,74 %
13.08.2017 20:42 17,0 C 20,6 C 86 % 1019,7 hPa 0,0 l/m 0,0 km/h (0 Bft) W-SW 257 0 min 0,000 mm 0,0 UV-I 0 W/m 14,6 C 17,0 C 0,0 km/h (0 Bft) 97,87 %
13.08.2017 20:44 17,0 C 20,6 C 86 % 1019,8 hPa 0,0 l/m 0,2 km/h (0 Bft) W-SW 257 0 min 0,000 mm 0,0 UV-I 0 W/m 14,6 C 17,0 C 1,6 km/h (1 Bft) 100,00 %
13.08.2017 20:46 16,9 C 20,6 C 86 % 1019,8 hPa 0,0 l/m 0,9 km/h (0 Bft) W-SW 257 0 min 0,000 mm 0,0 UV-I 0 W/m 14,5 C 16,9 C 3,2 km/h (1 Bft) 96,92 %
13.08.2017 20:48 16,9 C 20,6 C 86 % 1019,8 hPa 0,0 l/m 1,2 km/h (1 Bft) W-SW 257 0 min 0,000 mm 0,0 UV-I 0 W/m 14,5 C 16,9 C 1,6 km/h (1 Bft) 97,14 %
13.08.2017 20:50 16,9 C 20,6 C 86 % 1019,9 hPa 0,0 l/m 0,9 km/h (0 Bft) W-SW 257 0 min 0,000 mm 0,0 UV-I 0 W/m 14,5 C 16,9 C 3,2 km/h (1 Bft) 98,11 %
13.08.2017 20:52 16,8 C 20,6 C 86 % 1019,9 hPa 0,0 l/m 1,7 km/h (1 Bft) W-SW 257 0 min 0,000 mm 0,0 UV-I 0 W/m 14,4 C 16,8 C 3,2 km/h (1 Bft) 97,87 %
13.08.2017 20:54 16,8 C 20,6 C 87 % 1019,9 hPa 0,0 l/m 1,2 km/h (1 Bft) W-SW 257 0 min 0,000 mm 0,0 UV-I 0 W/m 14,6 C 16,8 C 3,2 km/h (1 Bft) 98,00 %
13.08.2017 20:56 16,7 C 20,6 C 87 % 1019,9 hPa 0,0 l/m 0,0 km/h (0 Bft) W-SW 257 0 min 0,000 mm 0,0 UV-I 0 W/m 14,5 C 16,7 C 1,6 km/h (1 Bft) 95,74 %
13.08.2017 20:58 16,7 C 20,6 C 87 % 1020,0 hPa 0,0 l/m 0,0 km/h (0 Bft) W-SW 257 0 min 0,000 mm 0,0 UV-I 0 W/m 14,5 C 16,7 C 0,0 km/h (0 Bft) 98,00 %
13.08.2017 21:00 16,7 C 20,6 C 87 % 1019,9 hPa 0,0 l/m 0,7 km/h (0 Bft) W-SW 257 0 min 0,000 mm 0,0 UV-I 0 W/m 14,5 C 16,7 C 1,6 km/h (1 Bft) 94,74 %
13.08.2017 21:02 16,7 C 20,6 C 87 % 1020,0 hPa 0,0 l/m 0,1 km/h (0 Bft) W-SW 257 0 min 0,000 mm 0,0 UV-I 0 W/m 14,5 C 16,7 C 1,6 km/h (1 Bft) 96,00 %
13.08.2017 21:04 16,6 C 20,6 C 87 % 1020,0 hPa 0,0 l/m 0,0 km/h (0 Bft) W-SW 257 0 min 0,000 mm 0,0 UV-I 0 W/m 14,4 C 16,6 C 0,0 km/h (0 Bft) 97,56 %
13.08.2017 21:06 16,5 C 20,6 C 88 % 1020,1 hPa 0,0 l/m 0,0 km/h (0 Bft) W-SW 257 0 min 0,000 mm 0,0 UV-I 0 W/m 14,5 C 16,5 C 0,0 km/h (0 Bft) 100,00 %
13.08.2017 21:08 16,4 C 20,6 C 88 % 1020,1 hPa 0,0 l/m 0,8 km/h (0 Bft) W-SW 257 0 min 0,000 mm 0,0 UV-I 0 W/m 14,4 C 16,4 C 3,2 km/h (1 Bft) 97,87 %
13.08.2017 21:10 16,4 C 20,6 C 88 % 1020,1 hPa 0,0 l/m 2,7 km/h (1 Bft) W-SW 257 0 min 0,000 mm 0,0 UV-I 0 W/m 14,4 C 16,4 C 3,2 km/h (1 Bft) 100,00 %
13.08.2017 21:12 16,4 C 20,6 C 88 % 1020,0 hPa 0,0 l/m 2,9 km/h (1 Bft) W-SW 257 0 min 0,000 mm 0,0 UV-I 0 W/m 14,4 C 16,4 C 3,2 km/h (1 Bft) 95,74 %
13.08.2017 21:14 16,4 C 20,6 C 88 % 1020,1 hPa 0,0 l/m 0,4 km/h (0 Bft) W-SW 257 0 min 0,000 mm 0,0 UV-I 0 W/m 14,4 C 16,4 C 1,6 km/h (1 Bft) 97,92 %
13.08.2017 21:16 16,4 C 20,6 C 88 % 1020,1 hPa 0,0 l/m 1,5 km/h (1 Bft) W-SW 257 0 min 0,000 mm 0,0 UV-I 0 W/m 14,4 C 16,4 C 3,2 km/h (1 Bft) 100,00 %
13.08.2017 21:18 16,3 C 20,6 C 88 % 1020,1 hPa 0,0 l/m 0,9 km/h (0 Bft) W-SW 257 0 min 0,000 mm 0,0 UV-I 0 W/m 14,3 C 16,3 C 1,6 km/h (1 Bft) 97,44 %
13.08.2017 21:20 16,3 C 20,6 C 88 % 1020,1 hPa 0,0 l/m 0,1 km/h (0 Bft) W-SW 257 0 min 0,000 mm 0,0 UV-I 0 W/m 14,3 C 16,3 C 1,6 km/h (1 Bft) 100,00 %
13.08.2017 21:22 16,2 C 20,6 C 88 % 1020,0 hPa 0,0 l/m 0,0 km/h (0 Bft) W-SW 257 0 min 0,000 mm 0,0 UV-I 0 W/m 14,2 C 16,2 C 1,6 km/h (1 Bft) 100,00 %
13.08.2017 21:24 16,2 C 20,6 C 88 % 1020,0 hPa 0,0 l/m 0,2 km/h (0 Bft) W-SW 257 0 min 0,000 mm 0,0 UV-I 0 W/m 14,2 C 16,2 C 1,6 km/h (1 Bft) 100,00 %
13.08.2017 21:26 16,2 C 20,6 C 88 % 1020,0 hPa 0,0 l/m 0,0 km/h (0 Bft) W-SW 257 0 min 0,000 mm 0,0 UV-I 0 W/m 14,2 C 16,2 C 1,6 km/h (1 Bft) 98,11 %
13.08.2017 21:28 16,2 C 20,6 C 89 % 1020,1 hPa 0,0 l/m 0,0 km/h (0 Bft) W-SW 257 0 min 0,000 mm 0,0 UV-I 0 W/m 14,4 C 16,2 C 0,0 km/h (0 Bft) 100,00 %
13.08.2017 21:30 16,1 C 20,6 C 89 % 1020,1 hPa 0,0 l/m 0,0 km/h (0 Bft) W-SW 257 0 min 0,000 mm 0,0 UV-I 0 W/m 14,3 C 16,1 C 0,0 km/h (0 Bft) 100,00 %
13.08.2017 21:32 16,1 C 20,6 C 89 % 1020,1 hPa 0,0 l/m 0,0 km/h (0 Bft) W-SW 257 0 min 0,000 mm 0,0 UV-I 0 W/m 14,3 C 16,1 C 0,0 km/h (0 Bft) 97,87 %
13.08.2017 21:34 16,0 C 20,6 C 89 % 1020,0 hPa 0,0 l/m 0,0 km/h (0 Bft) W-SW 257 0 min 0,000 mm 0,0 UV-I 0 W/m 14,2 C 16,0 C 0,0 km/h (0 Bft) 100,00 %
13.08.2017 21:36 15,9 C 20,6 C 89 % 1020,1 hPa 0,0 l/m 0,0 km/h (0 Bft) W-SW 257 0 min 0,000 mm 0,0 UV-I 0 W/m 14,1 C 15,9 C 0,0 km/h (0 Bft) 95,45 %
13.08.2017 21:38 15,9 C 20,6 C 89 % 1020,2 hPa 0,0 l/m 0,0 km/h (0 Bft) W-SW 257 0 min 0,000 mm 0,0 UV-I 0 W/m 14,1 C 15,9 C 0,0 km/h (0 Bft) 100,00 %
13.08.2017 21:40 15,9 C 20,6 C 90 % 1020,2 hPa 0,0 l/m 0,0 km/h (0 Bft) W-SW 257 0 min 0,000 mm 0,0 UV-I 0 W/m 14,3 C 15,9 C 0,0 km/h (0 Bft) 100,00 %
13.08.2017 21:42 15,8 C 20,6 C 90 % 1020,2 hPa 0,0 l/m 0,0 km/h (0 Bft) W-SW 257 0 min 0,000 mm 0,0 UV-I 0 W/m 14,2 C 15,8 C 0,0 km/h (0 Bft) 100,00 %
13.08.2017 21:44 15,8 C 20,6 C 90 % 1020,2 hPa 0,0 l/m 0,0 km/h (0 Bft) W-SW 257 0 min 0,000 mm 0,0 UV-I 0 W/m 14,2 C 15,8 C 0,0 km/h (0 Bft) 98,39 %
13.08.2017 21:46 15,8 C 20,6 C 90 % 1020,3 hPa 0,0 l/m 0,0 km/h (0 Bft) W-SW 257 0 min 0,000 mm 0,0 UV-I 0 W/m 14,2 C 15,8 C 0,0 km/h (0 Bft) 100,00 %
13.08.2017 21:48 15,8 C 20,6 C 90 % 1020,2 hPa 0,0 l/m 0,0 km/h (0 Bft) W-SW 257 0 min 0,000 mm 0,0 UV-I 0 W/m 14,2 C 15,8 C 0,0 km/h (0 Bft) 100,00 %
13.08.2017 21:50 15,7 C 20,6 C 90 % 1020,2 hPa 0,0 l/m 0,0 km/h (0 Bft) W-SW 257 0 min 0,000 mm 0,0 UV-I 0 W/m 14,1 C 15,7 C 0,0 km/h (0 Bft) 100,00 %
13.08.2017 21:52 15,7 C 20,6 C 90 % 1020,2 hPa 0,0 l/m 0,0 km/h (0 Bft) W-SW 257 0 min 0,000 mm 0,0 UV-I 0 W/m 14,1 C 15,7 C 0,0 km/h (0 Bft) 100,00 %
13.08.2017 21:54 15,7 C 20,6 C 90 % 1020,2 hPa 0,0 l/m 0,0 km/h (0 Bft) W-SW 257 0 min 0,000 mm 0,0 UV-I 0 W/m 14,1 C 15,7 C 0,0 km/h (0 Bft) 100,00 %
13.08.2017 21:56 15,7 C 20,6 C 90 % 1020,2 hPa 0,0 l/m 0,0 km/h (0 Bft) W-SW 257 0 min 0,000 mm 0,0 UV-I 0 W/m 14,1 C 15,7 C 0,0 km/h (0 Bft) 100,00 %
13.08.2017 21:58 15,7 C 20,6 C 90 % 1020,2 hPa 0,0 l/m 0,0 km/h (0 Bft) W-SW 257 0 min 0,000 mm 0,0 UV-I 0 W/m 14,1 C 15,7 C 0,0 km/h (0 Bft) 100,00 %
13.08.2017 22:00 15,6 C 20,6 C 90 % 1020,2 hPa 0,0 l/m 0,0 km/h (0 Bft) W-SW 257 0 min 0,000 mm 0,0 UV-I 0 W/m 14,0 C 15,6 C 0,0 km/h (0 Bft) 100,00 %
13.08.2017 22:02 15,6 C 20,6 C 90 % 1020,2 hPa 0,0 l/m 0,0 km/h (0 Bft) W-SW 257 0 min 0,000 mm 0,0 UV-I 0 W/m 14,0 C 15,6 C 0,0 km/h (0 Bft) 100,00 %
13.08.2017 22:04 15,6 C 20,6 C 90 % 1020,2 hPa 0,0 l/m 0,0 km/h (0 Bft) W-SW 257 0 min 0,000 mm 0,0 UV-I 0 W/m 14,0 C 15,6 C 0,0 km/h (0 Bft) 100,00 %
13.08.2017 22:06 15,6 C 20,6 C 90 % 1020,2 hPa 0,0 l/m 0,0 km/h (0 Bft) W-SW 257 0 min 0,000 mm 0,0 UV-I 0 W/m 14,0 C 15,6 C 0,0 km/h (0 Bft) 97,87 %
13.08.2017 22:08 15,6 C 20,6 C 90 % 1020,2 hPa 0,0 l/m 0,0 km/h (0 Bft) W-SW 257 0 min 0,000 mm 0,0 UV-I 0 W/m 14,0 C 15,6 C 0,0 km/h (0 Bft) 100,00 %
13.08.2017 22:10 15,6 C 20,6 C 90 % 1020,3 hPa 0,0 l/m 0,0 km/h (0 Bft) W-SW 257 0 min 0,000 mm 0,0 UV-I 0 W/m 14,0 C 15,6 C 0,0 km/h (0 Bft) 100,00 %
13.08.2017 22:12 15,6 C 20,6 C 90 % 1020,3 hPa 0,0 l/m 0,0 km/h (0 Bft) W-SW 257 0 min 0,000 mm 0,0 UV-I 0 W/m 14,0 C 15,6 C 0,0 km/h (0 Bft) 100,00 %
13.08.2017 22:14 15,5 C 20,6 C 90 % 1020,3 hPa 0,0 l/m 0,0 km/h (0 Bft) W-SW 257 0 min 0,000 mm 0,0 UV-I 0 W/m 13,9 C 15,5 C 0,0 km/h (0 Bft) 100,00 %
13.08.2017 22:16 15,5 C 20,6 C 90 % 1020,3 hPa 0,0 l/m 1,0 km/h (0 Bft) W-SW 257 0 min 0,000 mm 0,0 UV-I 0 W/m 13,9 C 15,5 C 3,2 km/h (1 Bft) 100,00 %
13.08.2017 22:18 15,4 C 20,6 C 90 % 1020,3 hPa 0,0 l/m 1,1 km/h (1 Bft) W-SW 257 0 min 0,000 mm 0,0 UV-I 0 W/m 13,8 C 15,4 C 3,2 km/h (1 Bft) 100,00 %
13.08.2017 22:20 15,4 C 20,6 C 90 % 1020,3 hPa 0,0 l/m 1,6 km/h (1 Bft) W-SW 257 0 min 0,000 mm 0,0 UV-I 0 W/m 13,8 C 15,4 C 3,2 km/h (1 Bft) 100,00 %
13.08.2017 22:22 15,3 C 20,6 C 90 % 1020,4 hPa 0,0 l/m 1,7 km/h (1 Bft) W-SW 257 0 min 0,000 mm 0,0 UV-I 0 W/m 13,7 C 15,3 C 3,2 km/h (1 Bft) 100,00 %
13.08.2017 22:24 15,3 C 20,6 C 90 % 1020,4 hPa 0,0 l/m 3,2 km/h (1 Bft) W-SW 257 0 min 0,000 mm 0,0 UV-I 0 W/m 13,7 C 15,3 C 4,8 km/h (1 Bft) 94,74 %
13.08.2017 22:26 15,3 C 20,6 C 90 % 1020,4 hPa 0,0 l/m 2,5 km/h (1 Bft) S-SW 212 0 min 0,000 mm 0,0 UV-I 0 W/m 13,7 C 15,3 C 3,2 km/h (1 Bft) 90,00 %
13.08.2017 22:28 15,3 C 20,6 C 90 % 1020,3 hPa 0,0 l/m 2,4 km/h (1 Bft) S-SW 212 0 min 0,000 mm 0,0 UV-I 0 W/m 13,7 C 15,3 C 4,8 km/h (1 Bft) 100,00 %
13.08.2017 22:30 15,3 C 20,6 C 90 % 1020,3 hPa 0,0 l/m 0,9 km/h (0 Bft) S-SW 212 0 min 0,000 mm 0,0 UV-I 0 W/m 13,7 C 15,3 C 3,2 km/h (1 Bft) 93,62 %
13.08.2017 22:32 15,3 C 20,6 C 90 % 1020,4 hPa 0,0 l/m 1,4 km/h (1 Bft) S-SW 212 0 min 0,000 mm 0,0 UV-I 0 W/m 13,7 C 15,3 C 3,2 km/h (1 Bft) 98,00 %
13.08.2017 22:34 15,4 C 20,6 C 91 % 1020,4 hPa 0,0 l/m 2,5 km/h (1 Bft) S-SW 212 0 min 0,000 mm 0,0 UV-I 0 W/m 13,9 C 15,4 C 4,8 km/h (1 Bft) 96,00 %
13.08.2017 22:36 15,4 C 20,6 C 91 % 1020,4 hPa 0,0 l/m 1,6 km/h (1 Bft) S-SW 212 0 min 0,000 mm 0,0 UV-I 0 W/m 13,9 C 15,4 C 3,2 km/h (1 Bft) 92,11 %
13.08.2017 22:38 15,5 C 20,6 C 90 % 1020,4 hPa 0,0 l/m 1,4 km/h (1 Bft) S-SW 212 0 min 0,000 mm 0,0 UV-I 0 W/m 13,9 C 15,5 C 3,2 km/h (1 Bft) 92,31 %
13.08.2017 22:40 15,6 C 20,6 C 90 % 1020,4 hPa 0,0 l/m 0,3 km/h (0 Bft) S-SW 212 0 min 0,000 mm 0,0 UV-I 0 W/m 14,0 C 15,6 C 1,6 km/h (1 Bft) 95,74 %
13.08.2017 22:42 15,6 C 20,6 C 90 % 1020,4 hPa 0,0 l/m 0,2 km/h (0 Bft) S-SW 212 0 min 0,000 mm 0,0 UV-I 0 W/m 14,0 C 15,6 C 1,6 km/h (1 Bft) 94,00 %
13.08.2017 22:44 15,5 C 20,6 C 90 % 1020,4 hPa 0,0 l/m 0,9 km/h (0 Bft) S-SW 212 0 min 0,000 mm 0,0 UV-I 0 W/m 13,9 C 15,5 C 1,6 km/h (1 Bft) 95,12 %
13.08.2017 22:46 15,4 C 20,6 C 90 % 1020,5 hPa 0,0 l/m 1,3 km/h (1 Bft) S-SW 212 0 min 0,000 mm 0,0 UV-I 0 W/m 13,8 C 15,4 C 3,2 km/h (1 Bft) 95,74 %
13.08.2017 22:48 15,4 C 20,6 C 90 % 1020,5 hPa 0,0 l/m 1,5 km/h (1 Bft) S-SW 212 0 min 0,000 mm 0,0 UV-I 0 W/m 13,8 C 15,4 C 3,2 km/h (1 Bft) 93,62 %
13.08.2017 22:50 15,4 C 20,6 C 90 % 1020,4 hPa 0,0 l/m 1,4 km/h (1 Bft) S-SW 212 0 min 0,000 mm 0,0 UV-I 0 W/m 13,8 C 15,4 C 3,2 km/h (1 Bft) 95,74 %
13.08.2017 22:52 15,4 C 20,6 C 90 % 1020,4 hPa 0,0 l/m 1,6 km/h (1 Bft) S-SW 212 0 min 0,000 mm 0,0 UV-I 0 W/m 13,8 C 15,4 C 4,8 km/h (1 Bft) 91,49 %
13.08.2017 22:54 15,4 C 20,6 C 90 % 1020,4 hPa 0,0 l/m 0,8 km/h (0 Bft) S-SW 212 0 min 0,000 mm 0,0 UV-I 0 W/m 13,8 C 15,4 C 1,6 km/h (1 Bft) 93,18 %
13.08.2017 22:56 15,4 C 20,6 C 90 % 1020,4 hPa 0,0 l/m 1,2 km/h (1 Bft) S-SW 212 0 min 0,000 mm 0,0 UV-I 0 W/m 13,8 C 15,4 C 3,2 km/h (1 Bft) 96,23 %
13.08.2017 22:58 15,4 C 20,6 C 90 % 1020,4 hPa 0,0 l/m 1,0 km/h (0 Bft) S-SW 212 0 min 0,000 mm 0,0 UV-I 0 W/m 13,8 C 15,4 C 3,2 km/h (1 Bft) 91,49 %
13.08.2017 23:00 15,4 C 20,6 C 90 % 1020,4 hPa 0,0 l/m 1,0 km/h (0 Bft) S-SW 212 0 min 0,000 mm 0,0 UV-I 0 W/m 13,8 C 15,4 C 3,2 km/h (1 Bft) 95,45 %
13.08.2017 23:02 15,4 C 20,6 C 90 % 1020,4 hPa 0,0 l/m 0,9 km/h (0 Bft) S-SW 212 0 min 0,000 mm 0,0 UV-I 0 W/m 13,8 C 15,4 C 1,6 km/h (1 Bft) 95,74 %
13.08.2017 23:04 15,4 C 20,6 C 90 % 1020,4 hPa 0,0 l/m 0,8 km/h (0 Bft) S-SW 212 0 min 0,000 mm 0,0 UV-I 0 W/m 13,8 C 15,4 C 3,2 km/h (1 Bft) 94,00 %
13.08.2017 23:06 15,4 C 20,6 C 90 % 1020,4 hPa 0,0 l/m 1,1 km/h (1 Bft) S-SW 212 0 min 0,000 mm 0,0 UV-I 0 W/m 13,8 C 15,4 C 3,2 km/h (1 Bft) 96,00 %
13.08.2017 23:08 15,3 C 20,6 C 90 % 1020,4 hPa 0,0 l/m 2,3 km/h (1 Bft) S-SW 212 0 min 0,000 mm 0,0 UV-I 0 W/m 13,7 C 15,3 C 3,2 km/h (1 Bft) 95,45 %
13.08.2017 23:10 15,3 C 20,6 C 90 % 1020,3 hPa 0,0 l/m 2,1 km/h (1 Bft) S-SW 212 0 min 0,000 mm 0,0 UV-I 0 W/m 13,7 C 15,3 C 3,2 km/h (1 Bft) 97,87 %
13.08.2017 23:12 15,3 C 20,6 C 90 % 1020,3 hPa 0,0 l/m 1,7 km/h (1 Bft) S-SW 212 0 min 0,000 mm 0,0 UV-I 0 W/m 13,7 C 15,3 C 3,2 km/h (1 Bft) 96,00 %
13.08.2017 23:14 15,2 C 20,6 C 90 % 1020,3 hPa 0,0 l/m 1,2 km/h (1 Bft) S-SW 212 0 min 0,000 mm 0,0 UV-I 0 W/m 13,6 C 15,2 C 1,6 km/h (1 Bft) 97,44 %
13.08.2017 23:16 15,2 C 20,6 C 90 % 1020,4 hPa 0,0 l/m 1,2 km/h (1 Bft) S-SW 212 0 min 0,000 mm 0,0 UV-I 0 W/m 13,6 C 15,2 C 1,6 km/h (1 Bft) 95,74 %
13.08.2017 23:18 15,1 C 20,6 C 91 % 1020,4 hPa 0,0 l/m 1,2 km/h (1 Bft) S-SW 212 0 min 0,000 mm 0,0 UV-I 0 W/m 13,6 C 15,1 C 3,2 km/h (1 Bft) 96,00 %
13.08.2017 23:20 15,1 C 20,6 C 91 % 1020,4 hPa 0,0 l/m 2,2 km/h (1 Bft) S-SW 212 0 min 0,000 mm 0,0 UV-I 0 W/m 13,6 C 15,1 C 3,2 km/h (1 Bft) 97,87 %
13.08.2017 23:22 15,1 C 20,6 C 91 % 1020,4 hPa 0,0 l/m 3,0 km/h (1 Bft) S-SW 212 0 min 0,000 mm 0,0 UV-I 0 W/m 13,6 C 15,1 C 4,8 km/h (1 Bft) 100,00 %
13.08.2017 23:24 15,0 C 20,6 C 91 % 1020,4 hPa 0,0 l/m 2,7 km/h (1 Bft) S-SW 212 0 min 0,000 mm 0,0 UV-I 0 W/m 13,5 C 15,0 C 6,4 km/h (2 Bft) 97,87 %
13.08.2017 23:26 14,9 C 20,6 C 91 % 1020,4 hPa 0,0 l/m 2,1 km/h (1 Bft) S-SW 212 0 min 0,000 mm 0,0 UV-I 0 W/m 13,4 C 14,9 C 3,2 km/h (1 Bft) 97,37 %
13.08.2017 23:28 14,9 C 20,6 C 91 % 1020,4 hPa 0,0 l/m 1,9 km/h (1 Bft) S-SW 212 0 min 0,000 mm 0,0 UV-I 0 W/m 13,4 C 14,9 C 3,2 km/h (1 Bft) 100,00 %
13.08.2017 23:30 14,9 C 20,6 C 91 % 1020,4 hPa 0,0 l/m 1,7 km/h (1 Bft) S-SW 212 0 min 0,000 mm 0,0 UV-I 0 W/m 13,4 C 14,9 C 3,2 km/h (1 Bft) 100,00 %
13.08.2017 23:32 14,9 C 20,6 C 92 % 1020,5 hPa 0,0 l/m 1,5 km/h (1 Bft) S-SW 212 0 min 0,000 mm 0,0 UV-I 0 W/m 13,6 C 14,9 C 3,2 km/h (1 Bft) 100,00 %
13.08.2017 23:34 14,9 C 20,6 C 92 % 1020,4 hPa 0,0 l/m 0,8 km/h (0 Bft) S-SW 212 0 min 0,000 mm 0,0 UV-I 0 W/m 13,6 C 14,9 C 3,2 km/h (1 Bft) 100,00 %
13.08.2017 23:36 14,9 C 20,6 C 92 % 1020,4 hPa 0,0 l/m 0,0 km/h (0 Bft) S-SW 212 0 min 0,000 mm 0,0 UV-I 0 W/m 13,6 C 14,9 C 0,0 km/h (0 Bft) 97,37 %
13.08.2017 23:38 15,0 C 20,6 C 92 % 1020,5 hPa 0,0 l/m 0,0 km/h (0 Bft) S-SW 212 0 min 0,000 mm 0,0 UV-I 0 W/m 13,7 C 15,0 C 0,0 km/h (0 Bft) 100,00 %
13.08.2017 23:40 15,0 C 20,6 C 92 % 1020,5 hPa 0,0 l/m 0,0 km/h (0 Bft) S-SW 212 0 min 0,000 mm 0,0 UV-I 0 W/m 13,7 C 15,0 C 0,0 km/h (0 Bft) 100,00 %
13.08.2017 23:42 14,9 C 20,6 C 92 % 1020,6 hPa 0,0 l/m 1,3 km/h (1 Bft) S-SW 212 0 min 0,000 mm 0,0 UV-I 0 W/m 13,6 C 14,9 C 3,2 km/h (1 Bft) 98,00 %
13.08.2017 23:44 14,9 C 20,6 C 92 % 1020,5 hPa 0,0 l/m 3,4 km/h (1 Bft) S-SW 212 0 min 0,000 mm 0,0 UV-I 0 W/m 13,6 C 14,9 C 4,8 km/h (1 Bft) 100,00 %
13.08.2017 23:46 14,9 C 20,6 C 92 % 1020,5 hPa 0,0 l/m 5,0 km/h (1 Bft) S-SW 212 0 min 0,000 mm 0,0 UV-I 0 W/m 13,6 C 14,9 C 6,4 km/h (2 Bft) 98,21 %
13.08.2017 23:48 15,0 C 20,6 C 92 % 1020,5 hPa 0,0 l/m 5,4 km/h (1 Bft) S-SW 212 0 min 0,000 mm 0,0 UV-I 0 W/m 13,7 C 15,0 C 6,4 km/h (2 Bft) 100,00 %
13.08.2017 23:50 14,9 C 20,6 C 92 % 1020,5 hPa 0,0 l/m 5,8 km/h (2 Bft) S-SW 212 0 min 0,000 mm 0,0 UV-I 0 W/m 13,6 C 14,9 C 6,4 km/h (2 Bft) 100,00 %
13.08.2017 23:52 14,9 C 20,6 C 92 % 1020,5 hPa 0,0 l/m 5,4 km/h (1 Bft) S-SW 212 0 min 0,000 mm 0,0 UV-I 0 W/m 13,6 C 14,9 C 6,4 km/h (2 Bft) 100,00 %
13.08.2017 23:54 14,9 C 20,6 C 92 % 1020,5 hPa 0,0 l/m 4,5 km/h (1 Bft) S-SW 212 0 min 0,000 mm 0,0 UV-I 0 W/m 13,6 C 14,9 C 6,4 km/h (2 Bft) 100,00 %
13.08.2017 23:56 15,0 C 20,6 C 92 % 1020,5 hPa 0,0 l/m 3,0 km/h (1 Bft) S-SW 212 0 min 0,000 mm 0,0 UV-I 0 W/m 13,7 C 15,0 C 6,4 km/h (2 Bft) 100,00 %
13.08.2017 23:58 15,0 C 20,6 C 92 % 1020,5 hPa 0,0 l/m 4,1 km/h (1 Bft) S-SW 212 0 min 0,000 mm 0,0 UV-I 0 W/m 13,7 C 15,0 C 6,4 km/h (2 Bft) 100,00 %
_ Min-Zeit 04:32 05:08 18:28 00:04 - 19:18 - - - - - - 00:16 05:32 19:20 22:26
Minimum _ 14,8 C 19,4 C 63 % 1018,9 hPa - 0,0 km/h (0 Bft) - - - - - - 12,1 C 9,9 C 0,0 km/h (0 Bft) 90,00 %
_ Max-Zeit 16:52 18:10 23:32 23:42 00:00 05:32 - - 10:18 15:00 14:40 13:34 14:52 17:56 00:22 00:00
Maximum _ 22,1 C 21,1 C 92 % 1020,6 hPa 0,0 l/m 18,4 km/h
SW (3 Bft)
- - 2 min 0,280 mm 5,5 UV-I 885 W/m 16,8 C 22,0 C 25,7 km/h
SW (4 Bft)
100,00 %
Durchschnitt _ 17,4 C 20,1 C 80 % 1019,7 hPa #0,0 l/m 6,0 km/h (2 Bft) W-SW - #4:03 h #2,489 mm 2,2 UV-I 248 W/m 13,9 C 16,6 C 10,2 km/h (2 Bft) 97,98 %